<?xml version="1.0" encoding="UTF-8" standalone="no" ?>
<gpx xmlns="http://www.topografix.com/GPX/1/1" creator="www.cicloide.com" version="1.1" xmlns:xsi="http://www.w3.org/2001/XMLSchema-instance" xsi:schemaLocation="http://www.topografix.com/GPX/1/1 http://www.topografix.com/GPX/1/1/gpx.xsd">
  <trk>
    <name>www.cicloide.com 11178</name>
    <desc>www.cicloide.com 11178</desc>
    <trkseg>
      <trkpt lat="42.473438600" lon="-2.463715200">
        <ele>387.10</ele>
        <time>2012-11-10T08:43:03Z</time>
      </trkpt>
      <trkpt lat="42.473389900" lon="-2.463657500">
        <ele>385.10</ele>
        <time>2012-11-10T08:43:05Z</time>
      </trkpt>
      <trkpt lat="42.473323100" lon="-2.463568500">
        <ele>382.70</ele>
        <time>2012-11-10T08:43:09Z</time>
      </trkpt>
      <trkpt lat="42.473159000" lon="-2.463368800">
        <ele>379.40</ele>
        <time>2012-11-10T08:43:16Z</time>
      </trkpt>
      <trkpt lat="42.473016000" lon="-2.463190100">
        <ele>373.60</ele>
        <time>2012-11-10T08:43:21Z</time>
      </trkpt>
      <trkpt lat="42.472923300" lon="-2.463061500">
        <ele>371.20</ele>
        <time>2012-11-10T08:43:24Z</time>
      </trkpt>
      <trkpt lat="42.472752400" lon="-2.462849700">
        <ele>371.20</ele>
        <time>2012-11-10T08:43:33Z</time>
      </trkpt>
      <trkpt lat="42.472595800" lon="-2.462644000">
        <ele>371.70</ele>
        <time>2012-11-10T08:43:40Z</time>
      </trkpt>
      <trkpt lat="42.472441800" lon="-2.462549100">
        <ele>374.10</ele>
        <time>2012-11-10T08:43:47Z</time>
      </trkpt>
      <trkpt lat="42.472343700" lon="-2.462638900">
        <ele>376.50</ele>
        <time>2012-11-10T08:43:52Z</time>
      </trkpt>
      <trkpt lat="42.472226700" lon="-2.462514800">
        <ele>381.30</ele>
        <time>2012-11-10T08:43:59Z</time>
      </trkpt>
      <trkpt lat="42.472110200" lon="-2.462310800">
        <ele>389.00</ele>
        <time>2012-11-10T08:44:06Z</time>
      </trkpt>
      <trkpt lat="42.471930000" lon="-2.462061300">
        <ele>391.40</ele>
        <time>2012-11-10T08:44:15Z</time>
      </trkpt>
      <trkpt lat="42.471800200" lon="-2.461853800">
        <ele>394.80</ele>
        <time>2012-11-10T08:44:20Z</time>
      </trkpt>
      <trkpt lat="42.471721100" lon="-2.461708800">
        <ele>402.40</ele>
        <time>2012-11-10T08:44:25Z</time>
      </trkpt>
      <trkpt lat="42.471700900" lon="-2.461647100">
        <ele>413.50</ele>
        <time>2012-11-10T08:44:29Z</time>
      </trkpt>
      <trkpt lat="42.471529400" lon="-2.461429500">
        <ele>407.70</ele>
        <time>2012-11-10T08:44:34Z</time>
      </trkpt>
      <trkpt lat="42.471461200" lon="-2.461477000">
        <ele>409.70</ele>
        <time>2012-11-10T08:44:39Z</time>
      </trkpt>
      <trkpt lat="42.471446600" lon="-2.461484300">
        <ele>410.10</ele>
        <time>2012-11-10T08:44:39Z</time>
      </trkpt>
      <trkpt lat="42.471314000" lon="-2.461649100">
        <ele>417.80</ele>
        <time>2012-11-10T08:44:44Z</time>
      </trkpt>
      <trkpt lat="42.471277200" lon="-2.461681700">
        <ele>419.80</ele>
        <time>2012-11-10T08:44:46Z</time>
      </trkpt>
      <trkpt lat="42.471080800" lon="-2.461942300">
        <ele>437.10</ele>
        <time>2012-11-10T08:44:53Z</time>
      </trkpt>
      <trkpt lat="42.471047300" lon="-2.461984700">
        <ele>438.00</ele>
        <time>2012-11-10T08:44:53Z</time>
      </trkpt>
      <trkpt lat="42.470901400" lon="-2.462087100">
        <ele>430.80</ele>
        <time>2012-11-10T08:44:58Z</time>
      </trkpt>
      <trkpt lat="42.470679000" lon="-2.462162300">
        <ele>419.80</ele>
        <time>2012-11-10T08:45:04Z</time>
      </trkpt>
      <trkpt lat="42.470578300" lon="-2.462200900">
        <ele>416.90</ele>
        <time>2012-11-10T08:45:05Z</time>
      </trkpt>
      <trkpt lat="42.470402900" lon="-2.462410000">
        <ele>406.80</ele>
        <time>2012-11-10T08:45:11Z</time>
      </trkpt>
      <trkpt lat="42.470286100" lon="-2.462449300">
        <ele>402.00</ele>
        <time>2012-11-10T08:45:14Z</time>
      </trkpt>
      <trkpt lat="42.470234200" lon="-2.462493900">
        <ele>406.30</ele>
        <time>2012-11-10T08:45:16Z</time>
      </trkpt>
      <trkpt lat="42.470080900" lon="-2.462602200">
        <ele>406.80</ele>
        <time>2012-11-10T08:45:21Z</time>
      </trkpt>
      <trkpt lat="42.469841100" lon="-2.462531800">
        <ele>402.40</ele>
        <time>2012-11-10T08:45:28Z</time>
      </trkpt>
      <trkpt lat="42.469566800" lon="-2.462393400">
        <ele>396.70</ele>
        <time>2012-11-10T08:45:37Z</time>
      </trkpt>
      <trkpt lat="42.469250200" lon="-2.462155800">
        <ele>391.40</ele>
        <time>2012-11-10T08:45:45Z</time>
      </trkpt>
      <trkpt lat="42.469060800" lon="-2.462030300">
        <ele>389.00</ele>
        <time>2012-11-10T08:45:51Z</time>
      </trkpt>
      <trkpt lat="42.468971600" lon="-2.461980700">
        <ele>387.50</ele>
        <time>2012-11-10T08:45:54Z</time>
      </trkpt>
      <trkpt lat="42.468887800" lon="-2.461973400">
        <ele>384.70</ele>
        <time>2012-11-10T08:45:59Z</time>
      </trkpt>
      <trkpt lat="42.468806900" lon="-2.461980000">
        <ele>384.20</ele>
        <time>2012-11-10T08:46:01Z</time>
      </trkpt>
      <trkpt lat="42.468653600" lon="-2.461971100">
        <ele>380.80</ele>
        <time>2012-11-10T08:46:06Z</time>
      </trkpt>
      <trkpt lat="42.468483800" lon="-2.461921100">
        <ele>379.40</ele>
        <time>2012-11-10T08:46:10Z</time>
      </trkpt>
      <trkpt lat="42.468297100" lon="-2.461934800">
        <ele>379.90</ele>
        <time>2012-11-10T08:46:15Z</time>
      </trkpt>
      <trkpt lat="42.468236600" lon="-2.461960800">
        <ele>381.30</ele>
        <time>2012-11-10T08:46:15Z</time>
      </trkpt>
      <trkpt lat="42.468039700" lon="-2.461990600">
        <ele>374.60</ele>
        <time>2012-11-10T08:46:20Z</time>
      </trkpt>
      <trkpt lat="42.467769800" lon="-2.461996800">
        <ele>376.00</ele>
        <time>2012-11-10T08:46:27Z</time>
      </trkpt>
      <trkpt lat="42.467719500" lon="-2.461999700">
        <ele>377.00</ele>
        <time>2012-11-10T08:46:27Z</time>
      </trkpt>
      <trkpt lat="42.467453800" lon="-2.462170800">
        <ele>390.40</ele>
        <time>2012-11-10T08:46:32Z</time>
      </trkpt>
      <trkpt lat="42.467254800" lon="-2.462231400">
        <ele>395.20</ele>
        <time>2012-11-10T08:46:36Z</time>
      </trkpt>
      <trkpt lat="42.467062900" lon="-2.462229600">
        <ele>391.40</ele>
        <time>2012-11-10T08:46:41Z</time>
      </trkpt>
      <trkpt lat="42.466970300" lon="-2.462265700">
        <ele>390.00</ele>
        <time>2012-11-10T08:46:43Z</time>
      </trkpt>
      <trkpt lat="42.466676400" lon="-2.462459200">
        <ele>387.10</ele>
        <time>2012-11-10T08:46:50Z</time>
      </trkpt>
      <trkpt lat="42.466590600" lon="-2.462507200">
        <ele>387.50</ele>
        <time>2012-11-10T08:46:52Z</time>
      </trkpt>
      <trkpt lat="42.466264600" lon="-2.462636600">
        <ele>389.00</ele>
        <time>2012-11-10T08:46:59Z</time>
      </trkpt>
      <trkpt lat="42.466149600" lon="-2.462645200">
        <ele>390.90</ele>
        <time>2012-11-10T08:47:02Z</time>
      </trkpt>
      <trkpt lat="42.465853200" lon="-2.462675600">
        <ele>396.70</ele>
        <time>2012-11-10T08:47:07Z</time>
      </trkpt>
      <trkpt lat="42.465618100" lon="-2.462711000">
        <ele>402.00</ele>
        <time>2012-11-10T08:47:12Z</time>
      </trkpt>
      <trkpt lat="42.465398900" lon="-2.462716900">
        <ele>411.60</ele>
        <time>2012-11-10T08:47:16Z</time>
      </trkpt>
      <trkpt lat="42.465335400" lon="-2.462703900">
        <ele>418.80</ele>
        <time>2012-11-10T08:47:18Z</time>
      </trkpt>
      <trkpt lat="42.465146500" lon="-2.462697500">
        <ele>445.70</ele>
        <time>2012-11-10T08:47:21Z</time>
      </trkpt>
      <trkpt lat="42.464849800" lon="-2.462710900">
        <ele>468.30</ele>
        <time>2012-11-10T08:47:28Z</time>
      </trkpt>
      <trkpt lat="42.464813500" lon="-2.462708700">
        <ele>465.90</ele>
        <time>2012-11-10T08:47:30Z</time>
      </trkpt>
      <trkpt lat="42.464635000" lon="-2.462666300">
        <ele>456.30</ele>
        <time>2012-11-10T08:47:33Z</time>
      </trkpt>
      <trkpt lat="42.464471700" lon="-2.462614700">
        <ele>456.30</ele>
        <time>2012-11-10T08:47:37Z</time>
      </trkpt>
      <trkpt lat="42.464319400" lon="-2.462557500">
        <ele>454.80</ele>
        <time>2012-11-10T08:47:40Z</time>
      </trkpt>
      <trkpt lat="42.464219600" lon="-2.462488600">
        <ele>446.70</ele>
        <time>2012-11-10T08:47:42Z</time>
      </trkpt>
      <trkpt lat="42.464014300" lon="-2.462422200">
        <ele>432.70</ele>
        <time>2012-11-10T08:47:47Z</time>
      </trkpt>
      <trkpt lat="42.463918000" lon="-2.462360400">
        <ele>431.30</ele>
        <time>2012-11-10T08:47:51Z</time>
      </trkpt>
      <trkpt lat="42.463789400" lon="-2.462229800">
        <ele>423.60</ele>
        <time>2012-11-10T08:47:54Z</time>
      </trkpt>
      <trkpt lat="42.463494400" lon="-2.462142200">
        <ele>424.60</ele>
        <time>2012-11-10T08:47:59Z</time>
      </trkpt>
      <trkpt lat="42.463267900" lon="-2.462326100">
        <ele>434.20</ele>
        <time>2012-11-10T08:48:05Z</time>
      </trkpt>
      <trkpt lat="42.463233800" lon="-2.462363300">
        <ele>432.70</ele>
        <time>2012-11-10T08:48:05Z</time>
      </trkpt>
      <trkpt lat="42.463089200" lon="-2.462567000">
        <ele>421.70</ele>
        <time>2012-11-10T08:48:10Z</time>
      </trkpt>
      <trkpt lat="42.463033300" lon="-2.462731600">
        <ele>416.40</ele>
        <time>2012-11-10T08:48:12Z</time>
      </trkpt>
      <trkpt lat="42.462981200" lon="-2.462838300">
        <ele>409.20</ele>
        <time>2012-11-10T08:48:15Z</time>
      </trkpt>
      <trkpt lat="42.462869900" lon="-2.463149000">
        <ele>402.00</ele>
        <time>2012-11-10T08:48:19Z</time>
      </trkpt>
      <trkpt lat="42.462851400" lon="-2.463285200">
        <ele>400.00</ele>
        <time>2012-11-10T08:48:22Z</time>
      </trkpt>
      <trkpt lat="42.462897200" lon="-2.463607600">
        <ele>412.10</ele>
        <time>2012-11-10T08:48:27Z</time>
      </trkpt>
      <trkpt lat="42.462983800" lon="-2.463711000">
        <ele>433.70</ele>
        <time>2012-11-10T08:48:31Z</time>
      </trkpt>
      <trkpt lat="42.462949400" lon="-2.463868700">
        <ele>440.40</ele>
        <time>2012-11-10T08:48:36Z</time>
      </trkpt>
      <trkpt lat="42.462918100" lon="-2.464044200">
        <ele>438.00</ele>
        <time>2012-11-10T08:48:41Z</time>
      </trkpt>
      <trkpt lat="42.462924100" lon="-2.464056000">
        <ele>437.50</ele>
        <time>2012-11-10T08:48:48Z</time>
      </trkpt>
      <trkpt lat="42.462912900" lon="-2.464054800">
        <ele>433.20</ele>
        <time>2012-11-10T08:48:50Z</time>
      </trkpt>
      <trkpt lat="42.462834900" lon="-2.464080400">
        <ele>427.90</ele>
        <time>2012-11-10T08:48:55Z</time>
      </trkpt>
      <trkpt lat="42.462783500" lon="-2.464210200">
        <ele>425.50</ele>
        <time>2012-11-10T08:49:00Z</time>
      </trkpt>
      <trkpt lat="42.462688700" lon="-2.464282900">
        <ele>424.60</ele>
        <time>2012-11-10T08:49:04Z</time>
      </trkpt>
      <trkpt lat="42.462656200" lon="-2.464281400">
        <ele>423.60</ele>
        <time>2012-11-10T08:49:06Z</time>
      </trkpt>
      <trkpt lat="42.462339300" lon="-2.464175300">
        <ele>412.10</ele>
        <time>2012-11-10T08:49:13Z</time>
      </trkpt>
      <trkpt lat="42.461972600" lon="-2.464048600">
        <ele>406.80</ele>
        <time>2012-11-10T08:49:23Z</time>
      </trkpt>
      <trkpt lat="42.461635400" lon="-2.463919600">
        <ele>399.10</ele>
        <time>2012-11-10T08:49:30Z</time>
      </trkpt>
      <trkpt lat="42.461259200" lon="-2.463725800">
        <ele>395.70</ele>
        <time>2012-11-10T08:49:41Z</time>
      </trkpt>
      <trkpt lat="42.460814800" lon="-2.463530600">
        <ele>396.20</ele>
        <time>2012-11-10T08:49:53Z</time>
      </trkpt>
      <trkpt lat="42.460662800" lon="-2.463539700">
        <ele>396.20</ele>
        <time>2012-11-10T08:49:56Z</time>
      </trkpt>
      <trkpt lat="42.460617300" lon="-2.463575500">
        <ele>397.20</ele>
        <time>2012-11-10T08:49:58Z</time>
      </trkpt>
      <trkpt lat="42.460585200" lon="-2.463705100">
        <ele>393.80</ele>
        <time>2012-11-10T08:50:03Z</time>
      </trkpt>
      <trkpt lat="42.460435400" lon="-2.463839700">
        <ele>382.70</ele>
        <time>2012-11-10T08:50:08Z</time>
      </trkpt>
      <trkpt lat="42.460293100" lon="-2.463900400">
        <ele>380.80</ele>
        <time>2012-11-10T08:50:12Z</time>
      </trkpt>
      <trkpt lat="42.460186500" lon="-2.463939700">
        <ele>379.90</ele>
        <time>2012-11-10T08:50:14Z</time>
      </trkpt>
      <trkpt lat="42.460083600" lon="-2.463982900">
        <ele>381.30</ele>
        <time>2012-11-10T08:50:17Z</time>
      </trkpt>
      <trkpt lat="42.460011800" lon="-2.464012200">
        <ele>382.30</ele>
        <time>2012-11-10T08:50:19Z</time>
      </trkpt>
      <trkpt lat="42.459796100" lon="-2.464076400">
        <ele>386.60</ele>
        <time>2012-11-10T08:50:26Z</time>
      </trkpt>
      <trkpt lat="42.459626900" lon="-2.464053900">
        <ele>390.00</ele>
        <time>2012-11-10T08:50:31Z</time>
      </trkpt>
      <trkpt lat="42.459433200" lon="-2.463960600">
        <ele>392.80</ele>
        <time>2012-11-10T08:50:40Z</time>
      </trkpt>
      <trkpt lat="42.459281500" lon="-2.463928100">
        <ele>392.80</ele>
        <time>2012-11-10T08:50:45Z</time>
      </trkpt>
      <trkpt lat="42.459212600" lon="-2.464060900">
        <ele>395.70</ele>
        <time>2012-11-10T08:50:50Z</time>
      </trkpt>
      <trkpt lat="42.459211600" lon="-2.464101700">
        <ele>396.20</ele>
        <time>2012-11-10T08:50:50Z</time>
      </trkpt>
      <trkpt lat="42.459227600" lon="-2.464397000">
        <ele>399.10</ele>
        <time>2012-11-10T08:50:59Z</time>
      </trkpt>
      <trkpt lat="42.459203800" lon="-2.464691200">
        <ele>401.00</ele>
        <time>2012-11-10T08:51:06Z</time>
      </trkpt>
      <trkpt lat="42.459118300" lon="-2.464887800">
        <ele>401.00</ele>
        <time>2012-11-10T08:51:11Z</time>
      </trkpt>
      <trkpt lat="42.459114100" lon="-2.465031000">
        <ele>403.40</ele>
        <time>2012-11-10T08:51:16Z</time>
      </trkpt>
      <trkpt lat="42.459114200" lon="-2.465069100">
        <ele>403.90</ele>
        <time>2012-11-10T08:51:18Z</time>
      </trkpt>
      <trkpt lat="42.459009400" lon="-2.465101800">
        <ele>399.60</ele>
        <time>2012-11-10T08:51:25Z</time>
      </trkpt>
      <trkpt lat="42.458963100" lon="-2.465147100">
        <ele>395.70</ele>
        <time>2012-11-10T08:51:32Z</time>
      </trkpt>
      <trkpt lat="42.458949000" lon="-2.465182100">
        <ele>395.20</ele>
        <time>2012-11-10T08:51:44Z</time>
      </trkpt>
      <trkpt lat="42.458950800" lon="-2.465217000">
        <ele>397.20</ele>
        <time>2012-11-10T08:51:51Z</time>
      </trkpt>
      <trkpt lat="42.458903400" lon="-2.465243300">
        <ele>396.70</ele>
        <time>2012-11-10T08:52:07Z</time>
      </trkpt>
      <trkpt lat="42.458853800" lon="-2.465219100">
        <ele>388.50</ele>
        <time>2012-11-10T08:52:21Z</time>
      </trkpt>
      <trkpt lat="42.458868300" lon="-2.465209700">
        <ele>392.40</ele>
        <time>2012-11-10T08:52:26Z</time>
      </trkpt>
      <trkpt lat="42.458932800" lon="-2.465234600">
        <ele>404.40</ele>
        <time>2012-11-10T08:52:42Z</time>
      </trkpt>
      <trkpt lat="42.458935700" lon="-2.465238500">
        <ele>405.30</ele>
        <time>2012-11-10T08:52:47Z</time>
      </trkpt>
      <trkpt lat="42.458976600" lon="-2.465158800">
        <ele>408.70</ele>
        <time>2012-11-10T08:53:03Z</time>
      </trkpt>
      <trkpt lat="42.459024200" lon="-2.465114400">
        <ele>412.10</ele>
        <time>2012-11-10T08:53:27Z</time>
      </trkpt>
      <trkpt lat="42.458990600" lon="-2.465140900">
        <ele>412.50</ele>
        <time>2012-11-10T08:53:46Z</time>
      </trkpt>
      <trkpt lat="42.458990600" lon="-2.465143700">
        <ele>417.30</ele>
        <time>2012-11-10T08:53:50Z</time>
      </trkpt>
      <trkpt lat="42.458990800" lon="-2.465147400">
        <ele>417.80</ele>
        <time>2012-11-10T08:53:50Z</time>
      </trkpt>
      <trkpt lat="42.458988000" lon="-2.465148000">
        <ele>418.30</ele>
        <time>2012-11-10T08:53:51Z</time>
      </trkpt>
      <trkpt lat="42.458989100" lon="-2.465174400">
        <ele>421.20</ele>
        <time>2012-11-10T08:54:00Z</time>
      </trkpt>
      <trkpt lat="42.458965200" lon="-2.465146100">
        <ele>418.80</ele>
        <time>2012-11-10T08:54:09Z</time>
      </trkpt>
      <trkpt lat="42.458949100" lon="-2.465093600">
        <ele>422.20</ele>
        <time>2012-11-10T08:54:21Z</time>
      </trkpt>
      <trkpt lat="42.458937700" lon="-2.465115500">
        <ele>416.40</ele>
        <time>2012-11-10T08:54:33Z</time>
      </trkpt>
      <trkpt lat="42.458930200" lon="-2.465121200">
        <ele>414.90</ele>
        <time>2012-11-10T08:54:40Z</time>
      </trkpt>
      <trkpt lat="42.458903200" lon="-2.465117500">
        <ele>405.80</ele>
        <time>2012-11-10T08:54:54Z</time>
      </trkpt>
      <trkpt lat="42.458898200" lon="-2.465106100">
        <ele>402.00</ele>
        <time>2012-11-10T08:55:01Z</time>
      </trkpt>
      <trkpt lat="42.458938100" lon="-2.465125800">
        <ele>419.30</ele>
        <time>2012-11-10T08:55:29Z</time>
      </trkpt>
      <trkpt lat="42.458933100" lon="-2.465153100">
        <ele>418.80</ele>
        <time>2012-11-10T08:55:41Z</time>
      </trkpt>
      <trkpt lat="42.458919900" lon="-2.465151000">
        <ele>416.90</ele>
        <time>2012-11-10T08:55:50Z</time>
      </trkpt>
      <trkpt lat="42.458897200" lon="-2.465146900">
        <ele>410.60</ele>
        <time>2012-11-10T08:56:02Z</time>
      </trkpt>
      <trkpt lat="42.458818100" lon="-2.465196300">
        <ele>401.00</ele>
        <time>2012-11-10T08:56:07Z</time>
      </trkpt>
      <trkpt lat="42.458780700" lon="-2.465197800">
        <ele>394.30</ele>
        <time>2012-11-10T08:56:18Z</time>
      </trkpt>
      <trkpt lat="42.458780900" lon="-2.465194000">
        <ele>393.80</ele>
        <time>2012-11-10T08:56:23Z</time>
      </trkpt>
      <trkpt lat="42.458861200" lon="-2.465161100">
        <ele>400.50</ele>
        <time>2012-11-10T08:57:20Z</time>
      </trkpt>
      <trkpt lat="42.458868400" lon="-2.465158900">
        <ele>401.00</ele>
        <time>2012-11-10T08:57:24Z</time>
      </trkpt>
      <trkpt lat="42.458870000" lon="-2.465155600">
        <ele>400.50</ele>
        <time>2012-11-10T08:57:26Z</time>
      </trkpt>
      <trkpt lat="42.458870700" lon="-2.465154200">
        <ele>400.50</ele>
        <time>2012-11-10T08:57:26Z</time>
      </trkpt>
      <trkpt lat="42.458873100" lon="-2.465153900">
        <ele>400.50</ele>
        <time>2012-11-10T08:57:29Z</time>
      </trkpt>
      <trkpt lat="42.458880200" lon="-2.465160400">
        <ele>401.50</ele>
        <time>2012-11-10T08:57:29Z</time>
      </trkpt>
      <trkpt lat="42.458937400" lon="-2.465217800">
        <ele>407.30</ele>
        <time>2012-11-10T08:57:48Z</time>
      </trkpt>
      <trkpt lat="42.458970900" lon="-2.465248900">
        <ele>410.10</ele>
        <time>2012-11-10T08:58:00Z</time>
      </trkpt>
      <trkpt lat="42.458968800" lon="-2.465233300">
        <ele>405.80</ele>
        <time>2012-11-10T08:58:14Z</time>
      </trkpt>
      <trkpt lat="42.458898000" lon="-2.465185400">
        <ele>394.80</ele>
        <time>2012-11-10T08:58:28Z</time>
      </trkpt>
      <trkpt lat="42.458867100" lon="-2.465121800">
        <ele>386.10</ele>
        <time>2012-11-10T08:58:54Z</time>
      </trkpt>
      <trkpt lat="42.458862600" lon="-2.465168300">
        <ele>384.20</ele>
        <time>2012-11-10T08:59:12Z</time>
      </trkpt>
      <trkpt lat="42.458807000" lon="-2.465212600">
        <ele>380.80</ele>
        <time>2012-11-10T08:59:19Z</time>
      </trkpt>
      <trkpt lat="42.458761100" lon="-2.465211100">
        <ele>376.00</ele>
        <time>2012-11-10T08:59:24Z</time>
      </trkpt>
      <trkpt lat="42.458732000" lon="-2.465206700">
        <ele>372.20</ele>
        <time>2012-11-10T08:59:26Z</time>
      </trkpt>
      <trkpt lat="42.458728000" lon="-2.465192200">
        <ele>377.50</ele>
        <time>2012-11-10T08:59:43Z</time>
      </trkpt>
      <trkpt lat="42.458757700" lon="-2.465180100">
        <ele>381.30</ele>
        <time>2012-11-10T08:59:48Z</time>
      </trkpt>
      <trkpt lat="42.458769800" lon="-2.465174300">
        <ele>382.70</ele>
        <time>2012-11-10T08:59:52Z</time>
      </trkpt>
      <trkpt lat="42.458773900" lon="-2.465172700">
        <ele>383.20</ele>
        <time>2012-11-10T08:59:52Z</time>
      </trkpt>
      <trkpt lat="42.458805200" lon="-2.465138500">
        <ele>389.50</ele>
        <time>2012-11-10T09:00:09Z</time>
      </trkpt>
      <trkpt lat="42.458827700" lon="-2.465128900">
        <ele>390.90</ele>
        <time>2012-11-10T09:00:11Z</time>
      </trkpt>
      <trkpt lat="42.458907000" lon="-2.465096100">
        <ele>396.20</ele>
        <time>2012-11-10T09:00:16Z</time>
      </trkpt>
      <trkpt lat="42.458915600" lon="-2.465095700">
        <ele>394.30</ele>
        <time>2012-11-10T09:00:30Z</time>
      </trkpt>
      <trkpt lat="42.458934700" lon="-2.465138100">
        <ele>398.60</ele>
        <time>2012-11-10T09:00:41Z</time>
      </trkpt>
      <trkpt lat="42.458942300" lon="-2.465166600">
        <ele>399.60</ele>
        <time>2012-11-10T09:00:55Z</time>
      </trkpt>
      <trkpt lat="42.458937900" lon="-2.465173800">
        <ele>400.00</ele>
        <time>2012-11-10T09:01:07Z</time>
      </trkpt>
      <trkpt lat="42.458940500" lon="-2.465180000">
        <ele>400.50</ele>
        <time>2012-11-10T09:01:14Z</time>
      </trkpt>
      <trkpt lat="42.458941200" lon="-2.465185400">
        <ele>401.00</ele>
        <time>2012-11-10T09:01:23Z</time>
      </trkpt>
      <trkpt lat="42.458946300" lon="-2.465192400">
        <ele>401.50</ele>
        <time>2012-11-10T09:01:42Z</time>
      </trkpt>
      <trkpt lat="42.458949500" lon="-2.465189000">
        <ele>400.50</ele>
        <time>2012-11-10T09:01:52Z</time>
      </trkpt>
      <trkpt lat="42.458977100" lon="-2.465202300">
        <ele>403.90</ele>
        <time>2012-11-10T09:02:06Z</time>
      </trkpt>
      <trkpt lat="42.458836700" lon="-2.465197100">
        <ele>393.30</ele>
        <time>2012-11-10T09:02:58Z</time>
      </trkpt>
      <trkpt lat="42.458748100" lon="-2.465125200">
        <ele>375.10</ele>
        <time>2012-11-10T09:03:11Z</time>
      </trkpt>
      <trkpt lat="42.458777300" lon="-2.465142900">
        <ele>376.50</ele>
        <time>2012-11-10T09:03:30Z</time>
      </trkpt>
      <trkpt lat="42.458795500" lon="-2.465138900">
        <ele>375.10</ele>
        <time>2012-11-10T09:03:47Z</time>
      </trkpt>
      <trkpt lat="42.458822000" lon="-2.465160400">
        <ele>383.70</ele>
        <time>2012-11-10T09:04:17Z</time>
      </trkpt>
      <trkpt lat="42.458871200" lon="-2.465188900">
        <ele>391.40</ele>
        <time>2012-11-10T09:04:27Z</time>
      </trkpt>
      <trkpt lat="42.458892900" lon="-2.465173400">
        <ele>396.70</ele>
        <time>2012-11-10T09:04:50Z</time>
      </trkpt>
      <trkpt lat="42.458898400" lon="-2.465149200">
        <ele>400.50</ele>
        <time>2012-11-10T09:05:18Z</time>
      </trkpt>
      <trkpt lat="42.458926500" lon="-2.465094500">
        <ele>401.50</ele>
        <time>2012-11-10T09:05:32Z</time>
      </trkpt>
      <trkpt lat="42.458926300" lon="-2.465099500">
        <ele>400.50</ele>
        <time>2012-11-10T09:05:37Z</time>
      </trkpt>
      <trkpt lat="42.458935800" lon="-2.465109100">
        <ele>397.60</ele>
        <time>2012-11-10T09:05:53Z</time>
      </trkpt>
      <trkpt lat="42.458947900" lon="-2.465136000">
        <ele>395.70</ele>
        <time>2012-11-10T09:06:13Z</time>
      </trkpt>
      <trkpt lat="42.458947000" lon="-2.465135500">
        <ele>395.70</ele>
        <time>2012-11-10T09:06:15Z</time>
      </trkpt>
      <trkpt lat="42.458916800" lon="-2.465160800">
        <ele>392.40</ele>
        <time>2012-11-10T09:07:27Z</time>
      </trkpt>
      <trkpt lat="42.458905300" lon="-2.465170100">
        <ele>390.90</ele>
        <time>2012-11-10T09:07:34Z</time>
      </trkpt>
      <trkpt lat="42.458886900" lon="-2.465182000">
        <ele>391.40</ele>
        <time>2012-11-10T09:07:44Z</time>
      </trkpt>
      <trkpt lat="42.458884400" lon="-2.465187500">
        <ele>392.40</ele>
        <time>2012-11-10T09:07:48Z</time>
      </trkpt>
      <trkpt lat="42.458872700" lon="-2.465190400">
        <ele>392.40</ele>
        <time>2012-11-10T09:07:49Z</time>
      </trkpt>
      <trkpt lat="42.458850300" lon="-2.465184800">
        <ele>390.00</ele>
        <time>2012-11-10T09:07:56Z</time>
      </trkpt>
      <trkpt lat="42.458829100" lon="-2.465213600">
        <ele>390.90</ele>
        <time>2012-11-10T09:08:00Z</time>
      </trkpt>
      <trkpt lat="42.458820300" lon="-2.465240600">
        <ele>391.40</ele>
        <time>2012-11-10T09:08:03Z</time>
      </trkpt>
      <trkpt lat="42.458704600" lon="-2.465238300">
        <ele>393.30</ele>
        <time>2012-11-10T09:08:10Z</time>
      </trkpt>
      <trkpt lat="42.458674900" lon="-2.465181600">
        <ele>393.80</ele>
        <time>2012-11-10T09:08:12Z</time>
      </trkpt>
      <trkpt lat="42.458624500" lon="-2.464944900">
        <ele>393.80</ele>
        <time>2012-11-10T09:08:17Z</time>
      </trkpt>
      <trkpt lat="42.458575100" lon="-2.464660000">
        <ele>396.20</ele>
        <time>2012-11-10T09:08:24Z</time>
      </trkpt>
      <trkpt lat="42.458513800" lon="-2.464320800">
        <ele>398.60</ele>
        <time>2012-11-10T09:08:31Z</time>
      </trkpt>
      <trkpt lat="42.458460300" lon="-2.464004200">
        <ele>399.60</ele>
        <time>2012-11-10T09:08:36Z</time>
      </trkpt>
      <trkpt lat="42.458422400" lon="-2.463579900">
        <ele>405.80</ele>
        <time>2012-11-10T09:08:45Z</time>
      </trkpt>
      <trkpt lat="42.458341100" lon="-2.463140900">
        <ele>404.90</ele>
        <time>2012-11-10T09:08:52Z</time>
      </trkpt>
      <trkpt lat="42.458270000" lon="-2.462696200">
        <ele>404.90</ele>
        <time>2012-11-10T09:08:59Z</time>
      </trkpt>
      <trkpt lat="42.458193100" lon="-2.462279200">
        <ele>408.20</ele>
        <time>2012-11-10T09:09:08Z</time>
      </trkpt>
      <trkpt lat="42.458130900" lon="-2.461852600">
        <ele>408.20</ele>
        <time>2012-11-10T09:09:15Z</time>
      </trkpt>
      <trkpt lat="42.458094800" lon="-2.461527100">
        <ele>411.60</ele>
        <time>2012-11-10T09:09:20Z</time>
      </trkpt>
      <trkpt lat="42.458078900" lon="-2.461420300">
        <ele>411.60</ele>
        <time>2012-11-10T09:09:22Z</time>
      </trkpt>
      <trkpt lat="42.458076400" lon="-2.461372400">
        <ele>412.50</ele>
        <time>2012-11-10T09:09:23Z</time>
      </trkpt>
      <trkpt lat="42.458056800" lon="-2.461172300">
        <ele>412.10</ele>
        <time>2012-11-10T09:09:30Z</time>
      </trkpt>
      <trkpt lat="42.458078600" lon="-2.461110900">
        <ele>430.30</ele>
        <time>2012-11-10T09:09:44Z</time>
      </trkpt>
      <trkpt lat="42.458060900" lon="-2.461009600">
        <ele>435.60</ele>
        <time>2012-11-10T09:09:48Z</time>
      </trkpt>
      <trkpt lat="42.458020000" lon="-2.460795600">
        <ele>432.70</ele>
        <time>2012-11-10T09:09:55Z</time>
      </trkpt>
      <trkpt lat="42.458012500" lon="-2.460581200">
        <ele>427.40</ele>
        <time>2012-11-10T09:10:00Z</time>
      </trkpt>
      <trkpt lat="42.457946100" lon="-2.460337000">
        <ele>419.80</ele>
        <time>2012-11-10T09:10:05Z</time>
      </trkpt>
      <trkpt lat="42.457920800" lon="-2.460079800">
        <ele>419.30</ele>
        <time>2012-11-10T09:10:10Z</time>
      </trkpt>
      <trkpt lat="42.457899500" lon="-2.459971300">
        <ele>417.80</ele>
        <time>2012-11-10T09:10:12Z</time>
      </trkpt>
      <trkpt lat="42.457781600" lon="-2.459490500">
        <ele>411.10</ele>
        <time>2012-11-10T09:10:21Z</time>
      </trkpt>
      <trkpt lat="42.457759100" lon="-2.459441200">
        <ele>409.70</ele>
        <time>2012-11-10T09:10:21Z</time>
      </trkpt>
      <trkpt lat="42.457669800" lon="-2.459045800">
        <ele>409.20</ele>
        <time>2012-11-10T09:10:28Z</time>
      </trkpt>
      <trkpt lat="42.457623100" lon="-2.458760900">
        <ele>408.70</ele>
        <time>2012-11-10T09:10:35Z</time>
      </trkpt>
      <trkpt lat="42.457598000" lon="-2.458611000">
        <ele>411.10</ele>
        <time>2012-11-10T09:10:38Z</time>
      </trkpt>
      <trkpt lat="42.457587500" lon="-2.458574200">
        <ele>411.10</ele>
        <time>2012-11-10T09:10:38Z</time>
      </trkpt>
      <trkpt lat="42.457499400" lon="-2.458322500">
        <ele>409.70</ele>
        <time>2012-11-10T09:10:45Z</time>
      </trkpt>
      <trkpt lat="42.457463100" lon="-2.458064900">
        <ele>405.80</ele>
        <time>2012-11-10T09:10:50Z</time>
      </trkpt>
      <trkpt lat="42.457423100" lon="-2.457793800">
        <ele>395.70</ele>
        <time>2012-11-10T09:10:57Z</time>
      </trkpt>
      <trkpt lat="42.457430200" lon="-2.457666100">
        <ele>393.80</ele>
        <time>2012-11-10T09:11:03Z</time>
      </trkpt>
      <trkpt lat="42.457448700" lon="-2.457628700">
        <ele>391.90</ele>
        <time>2012-11-10T09:11:13Z</time>
      </trkpt>
      <trkpt lat="42.457450000" lon="-2.457621400">
        <ele>393.30</ele>
        <time>2012-11-10T09:11:17Z</time>
      </trkpt>
      <trkpt lat="42.457459100" lon="-2.457605400">
        <ele>396.20</ele>
        <time>2012-11-10T09:11:18Z</time>
      </trkpt>
      <trkpt lat="42.457470200" lon="-2.457586000">
        <ele>402.00</ele>
        <time>2012-11-10T09:11:29Z</time>
      </trkpt>
      <trkpt lat="42.457462200" lon="-2.457602200">
        <ele>403.40</ele>
        <time>2012-11-10T09:11:36Z</time>
      </trkpt>
      <trkpt lat="42.457460700" lon="-2.457601800">
        <ele>404.40</ele>
        <time>2012-11-10T09:11:39Z</time>
      </trkpt>
      <trkpt lat="42.457430000" lon="-2.457543400">
        <ele>401.50</ele>
        <time>2012-11-10T09:11:43Z</time>
      </trkpt>
      <trkpt lat="42.457373400" lon="-2.457352100">
        <ele>400.00</ele>
        <time>2012-11-10T09:11:48Z</time>
      </trkpt>
      <trkpt lat="42.457244100" lon="-2.457270800">
        <ele>401.00</ele>
        <time>2012-11-10T09:11:53Z</time>
      </trkpt>
      <trkpt lat="42.457159100" lon="-2.457130400">
        <ele>395.20</ele>
        <time>2012-11-10T09:11:57Z</time>
      </trkpt>
      <trkpt lat="42.457179100" lon="-2.456961700">
        <ele>393.30</ele>
        <time>2012-11-10T09:12:00Z</time>
      </trkpt>
      <trkpt lat="42.457275700" lon="-2.456724400">
        <ele>390.90</ele>
        <time>2012-11-10T09:12:05Z</time>
      </trkpt>
      <trkpt lat="42.457255800" lon="-2.456357100">
        <ele>394.30</ele>
        <time>2012-11-10T09:12:11Z</time>
      </trkpt>
      <trkpt lat="42.457167300" lon="-2.455897100">
        <ele>396.20</ele>
        <time>2012-11-10T09:12:19Z</time>
      </trkpt>
      <trkpt lat="42.457075200" lon="-2.455322400">
        <ele>399.10</ele>
        <time>2012-11-10T09:12:28Z</time>
      </trkpt>
      <trkpt lat="42.456998900" lon="-2.454860600">
        <ele>395.70</ele>
        <time>2012-11-10T09:12:37Z</time>
      </trkpt>
      <trkpt lat="42.456921400" lon="-2.454486400">
        <ele>398.60</ele>
        <time>2012-11-10T09:12:44Z</time>
      </trkpt>
      <trkpt lat="42.456850200" lon="-2.454118600">
        <ele>402.90</ele>
        <time>2012-11-10T09:12:51Z</time>
      </trkpt>
      <trkpt lat="42.456844100" lon="-2.454057100">
        <ele>403.90</ele>
        <time>2012-11-10T09:12:52Z</time>
      </trkpt>
      <trkpt lat="42.456813500" lon="-2.453887000">
        <ele>405.30</ele>
        <time>2012-11-10T09:12:54Z</time>
      </trkpt>
      <trkpt lat="42.456768400" lon="-2.453603800">
        <ele>405.30</ele>
        <time>2012-11-10T09:12:59Z</time>
      </trkpt>
      <trkpt lat="42.456704800" lon="-2.453184300">
        <ele>398.60</ele>
        <time>2012-11-10T09:13:06Z</time>
      </trkpt>
      <trkpt lat="42.456630100" lon="-2.452782200">
        <ele>393.30</ele>
        <time>2012-11-10T09:13:13Z</time>
      </trkpt>
      <trkpt lat="42.456562900" lon="-2.452382400">
        <ele>392.80</ele>
        <time>2012-11-10T09:13:20Z</time>
      </trkpt>
      <trkpt lat="42.456521500" lon="-2.452180900">
        <ele>397.60</ele>
        <time>2012-11-10T09:13:24Z</time>
      </trkpt>
      <trkpt lat="42.456533700" lon="-2.451988300">
        <ele>399.10</ele>
        <time>2012-11-10T09:13:27Z</time>
      </trkpt>
      <trkpt lat="42.456583900" lon="-2.451877900">
        <ele>397.60</ele>
        <time>2012-11-10T09:13:29Z</time>
      </trkpt>
      <trkpt lat="42.456528000" lon="-2.451607100">
        <ele>390.90</ele>
        <time>2012-11-10T09:13:34Z</time>
      </trkpt>
      <trkpt lat="42.456474800" lon="-2.451448000">
        <ele>392.40</ele>
        <time>2012-11-10T09:13:36Z</time>
      </trkpt>
      <trkpt lat="42.456376500" lon="-2.451373100">
        <ele>394.80</ele>
        <time>2012-11-10T09:13:41Z</time>
      </trkpt>
      <trkpt lat="42.456276800" lon="-2.451318900">
        <ele>395.70</ele>
        <time>2012-11-10T09:13:45Z</time>
      </trkpt>
      <trkpt lat="42.456083800" lon="-2.451259500">
        <ele>393.30</ele>
        <time>2012-11-10T09:13:50Z</time>
      </trkpt>
      <trkpt lat="42.455711100" lon="-2.451381000">
        <ele>388.50</ele>
        <time>2012-11-10T09:13:59Z</time>
      </trkpt>
      <trkpt lat="42.455344100" lon="-2.451492500">
        <ele>391.40</ele>
        <time>2012-11-10T09:14:07Z</time>
      </trkpt>
      <trkpt lat="42.455181600" lon="-2.451541500">
        <ele>396.70</ele>
        <time>2012-11-10T09:14:11Z</time>
      </trkpt>
      <trkpt lat="42.454875200" lon="-2.451624400">
        <ele>403.90</ele>
        <time>2012-11-10T09:14:19Z</time>
      </trkpt>
      <trkpt lat="42.454616100" lon="-2.451707100">
        <ele>410.10</ele>
        <time>2012-11-10T09:14:26Z</time>
      </trkpt>
      <trkpt lat="42.454504400" lon="-2.451806000">
        <ele>410.10</ele>
        <time>2012-11-10T09:14:30Z</time>
      </trkpt>
      <trkpt lat="42.454373000" lon="-2.452019100">
        <ele>407.70</ele>
        <time>2012-11-10T09:14:35Z</time>
      </trkpt>
      <trkpt lat="42.454248300" lon="-2.452109200">
        <ele>403.40</ele>
        <time>2012-11-10T09:14:39Z</time>
      </trkpt>
      <trkpt lat="42.454039600" lon="-2.452075800">
        <ele>399.60</ele>
        <time>2012-11-10T09:14:44Z</time>
      </trkpt>
      <trkpt lat="42.453910400" lon="-2.451841700">
        <ele>397.20</ele>
        <time>2012-11-10T09:14:49Z</time>
      </trkpt>
      <trkpt lat="42.453905600" lon="-2.451560100">
        <ele>398.10</ele>
        <time>2012-11-10T09:14:54Z</time>
      </trkpt>
      <trkpt lat="42.453914400" lon="-2.451447800">
        <ele>397.60</ele>
        <time>2012-11-10T09:14:56Z</time>
      </trkpt>
      <trkpt lat="42.453872600" lon="-2.451026600">
        <ele>396.70</ele>
        <time>2012-11-10T09:15:03Z</time>
      </trkpt>
      <trkpt lat="42.453808200" lon="-2.450514300">
        <ele>396.70</ele>
        <time>2012-11-10T09:15:10Z</time>
      </trkpt>
      <trkpt lat="42.453728200" lon="-2.449929200">
        <ele>396.20</ele>
        <time>2012-11-10T09:15:19Z</time>
      </trkpt>
      <trkpt lat="42.453653800" lon="-2.449423500">
        <ele>396.70</ele>
        <time>2012-11-10T09:15:27Z</time>
      </trkpt>
      <trkpt lat="42.453567300" lon="-2.448890300">
        <ele>394.30</ele>
        <time>2012-11-10T09:15:36Z</time>
      </trkpt>
      <trkpt lat="42.453484200" lon="-2.448707200">
        <ele>395.20</ele>
        <time>2012-11-10T09:15:41Z</time>
      </trkpt>
      <trkpt lat="42.453424800" lon="-2.448621200">
        <ele>395.20</ele>
        <time>2012-11-10T09:15:43Z</time>
      </trkpt>
      <trkpt lat="42.453342400" lon="-2.448356300">
        <ele>394.30</ele>
        <time>2012-11-10T09:15:48Z</time>
      </trkpt>
      <trkpt lat="42.453349600" lon="-2.448239400">
        <ele>393.30</ele>
        <time>2012-11-10T09:15:50Z</time>
      </trkpt>
      <trkpt lat="42.453387700" lon="-2.448075000">
        <ele>394.30</ele>
        <time>2012-11-10T09:15:52Z</time>
      </trkpt>
      <trkpt lat="42.453379600" lon="-2.447873000">
        <ele>394.80</ele>
        <time>2012-11-10T09:15:57Z</time>
      </trkpt>
      <trkpt lat="42.453351300" lon="-2.447621000">
        <ele>395.20</ele>
        <time>2012-11-10T09:16:00Z</time>
      </trkpt>
      <trkpt lat="42.453298400" lon="-2.447164900">
        <ele>393.80</ele>
        <time>2012-11-10T09:16:07Z</time>
      </trkpt>
      <trkpt lat="42.453216500" lon="-2.446608500">
        <ele>391.90</ele>
        <time>2012-11-10T09:16:16Z</time>
      </trkpt>
      <trkpt lat="42.453200100" lon="-2.446490400">
        <ele>392.40</ele>
        <time>2012-11-10T09:16:18Z</time>
      </trkpt>
      <trkpt lat="42.453113000" lon="-2.446342000">
        <ele>392.40</ele>
        <time>2012-11-10T09:16:21Z</time>
      </trkpt>
      <trkpt lat="42.453048100" lon="-2.446301400">
        <ele>392.40</ele>
        <time>2012-11-10T09:16:23Z</time>
      </trkpt>
      <trkpt lat="42.452907900" lon="-2.446241400">
        <ele>393.80</ele>
        <time>2012-11-10T09:16:30Z</time>
      </trkpt>
      <trkpt lat="42.452855300" lon="-2.446224100">
        <ele>393.30</ele>
        <time>2012-11-10T09:16:34Z</time>
      </trkpt>
      <trkpt lat="42.452829800" lon="-2.446224900">
        <ele>391.90</ele>
        <time>2012-11-10T09:16:39Z</time>
      </trkpt>
      <trkpt lat="42.452809300" lon="-2.446229400">
        <ele>391.40</ele>
        <time>2012-11-10T09:16:42Z</time>
      </trkpt>
      <trkpt lat="42.452788900" lon="-2.446246400">
        <ele>391.40</ele>
        <time>2012-11-10T09:16:49Z</time>
      </trkpt>
      <trkpt lat="42.452795900" lon="-2.446257100">
        <ele>390.00</ele>
        <time>2012-11-10T09:16:58Z</time>
      </trkpt>
      <trkpt lat="42.452789600" lon="-2.446246500">
        <ele>390.90</ele>
        <time>2012-11-10T09:17:07Z</time>
      </trkpt>
      <trkpt lat="42.452786500" lon="-2.446242800">
        <ele>391.90</ele>
        <time>2012-11-10T09:17:14Z</time>
      </trkpt>
      <trkpt lat="42.452784000" lon="-2.446239600">
        <ele>392.40</ele>
        <time>2012-11-10T09:17:19Z</time>
      </trkpt>
      <trkpt lat="42.452783200" lon="-2.446238300">
        <ele>392.80</ele>
        <time>2012-11-10T09:17:21Z</time>
      </trkpt>
      <trkpt lat="42.452780700" lon="-2.446233400">
        <ele>393.30</ele>
        <time>2012-11-10T09:17:31Z</time>
      </trkpt>
      <trkpt lat="42.452782300" lon="-2.446226600">
        <ele>394.80</ele>
        <time>2012-11-10T09:17:40Z</time>
      </trkpt>
      <trkpt lat="42.452774400" lon="-2.446198900">
        <ele>396.70</ele>
        <time>2012-11-10T09:18:01Z</time>
      </trkpt>
      <trkpt lat="42.452772400" lon="-2.446191600">
        <ele>396.70</ele>
        <time>2012-11-10T09:18:09Z</time>
      </trkpt>
      <trkpt lat="42.452769800" lon="-2.446196700">
        <ele>394.80</ele>
        <time>2012-11-10T09:18:53Z</time>
      </trkpt>
      <trkpt lat="42.452757700" lon="-2.446167900">
        <ele>398.60</ele>
        <time>2012-11-10T09:19:38Z</time>
      </trkpt>
      <trkpt lat="42.452772100" lon="-2.446190600">
        <ele>391.90</ele>
        <time>2012-11-10T09:20:27Z</time>
      </trkpt>
      <trkpt lat="42.452775800" lon="-2.446181800">
        <ele>397.20</ele>
        <time>2012-11-10T09:20:55Z</time>
      </trkpt>
      <trkpt lat="42.452778500" lon="-2.446181100">
        <ele>399.60</ele>
        <time>2012-11-10T09:21:00Z</time>
      </trkpt>
      <trkpt lat="42.452827500" lon="-2.446233500">
        <ele>400.50</ele>
        <time>2012-11-10T09:21:31Z</time>
      </trkpt>
      <trkpt lat="42.452798900" lon="-2.446218500">
        <ele>400.50</ele>
        <time>2012-11-10T09:21:52Z</time>
      </trkpt>
      <trkpt lat="42.452798700" lon="-2.446216400">
        <ele>399.60</ele>
        <time>2012-11-10T09:22:05Z</time>
      </trkpt>
      <trkpt lat="42.452799600" lon="-2.446216400">
        <ele>399.10</ele>
        <time>2012-11-10T09:22:10Z</time>
      </trkpt>
      <trkpt lat="42.452805500" lon="-2.446220200">
        <ele>399.10</ele>
        <time>2012-11-10T09:22:20Z</time>
      </trkpt>
      <trkpt lat="42.452807700" lon="-2.446218500">
        <ele>398.60</ele>
        <time>2012-11-10T09:22:27Z</time>
      </trkpt>
      <trkpt lat="42.452795200" lon="-2.446212900">
        <ele>397.60</ele>
        <time>2012-11-10T09:22:31Z</time>
      </trkpt>
      <trkpt lat="42.452791400" lon="-2.446215600">
        <ele>395.70</ele>
        <time>2012-11-10T09:22:39Z</time>
      </trkpt>
      <trkpt lat="42.452781900" lon="-2.446224800">
        <ele>394.80</ele>
        <time>2012-11-10T09:22:46Z</time>
      </trkpt>
      <trkpt lat="42.452765600" lon="-2.446230100">
        <ele>396.20</ele>
        <time>2012-11-10T09:23:07Z</time>
      </trkpt>
      <trkpt lat="42.452768000" lon="-2.446237200">
        <ele>393.80</ele>
        <time>2012-11-10T09:23:16Z</time>
      </trkpt>
      <trkpt lat="42.452751200" lon="-2.446247600">
        <ele>394.80</ele>
        <time>2012-11-10T09:23:25Z</time>
      </trkpt>
      <trkpt lat="42.452675100" lon="-2.446215300">
        <ele>394.30</ele>
        <time>2012-11-10T09:23:30Z</time>
      </trkpt>
      <trkpt lat="42.452541400" lon="-2.446203200">
        <ele>393.80</ele>
        <time>2012-11-10T09:23:37Z</time>
      </trkpt>
      <trkpt lat="42.452226100" lon="-2.446110400">
        <ele>393.80</ele>
        <time>2012-11-10T09:23:53Z</time>
      </trkpt>
      <trkpt lat="42.452014700" lon="-2.446054700">
        <ele>393.30</ele>
        <time>2012-11-10T09:24:01Z</time>
      </trkpt>
      <trkpt lat="42.451793100" lon="-2.445992600">
        <ele>393.80</ele>
        <time>2012-11-10T09:24:10Z</time>
      </trkpt>
      <trkpt lat="42.451472000" lon="-2.445909000">
        <ele>394.30</ele>
        <time>2012-11-10T09:24:22Z</time>
      </trkpt>
      <trkpt lat="42.451221900" lon="-2.445846100">
        <ele>394.30</ele>
        <time>2012-11-10T09:24:31Z</time>
      </trkpt>
      <trkpt lat="42.450953500" lon="-2.445736900">
        <ele>391.90</ele>
        <time>2012-11-10T09:24:41Z</time>
      </trkpt>
      <trkpt lat="42.450674200" lon="-2.445658800">
        <ele>390.40</ele>
        <time>2012-11-10T09:24:50Z</time>
      </trkpt>
      <trkpt lat="42.450418300" lon="-2.445642100">
        <ele>390.40</ele>
        <time>2012-11-10T09:24:57Z</time>
      </trkpt>
      <trkpt lat="42.450138200" lon="-2.445632300">
        <ele>390.90</ele>
        <time>2012-11-10T09:25:06Z</time>
      </trkpt>
      <trkpt lat="42.449858000" lon="-2.445592900">
        <ele>392.40</ele>
        <time>2012-11-10T09:25:16Z</time>
      </trkpt>
      <trkpt lat="42.449613300" lon="-2.445483500">
        <ele>392.80</ele>
        <time>2012-11-10T09:25:23Z</time>
      </trkpt>
      <trkpt lat="42.449364700" lon="-2.445387900">
        <ele>393.30</ele>
        <time>2012-11-10T09:25:32Z</time>
      </trkpt>
      <trkpt lat="42.449134700" lon="-2.445391300">
        <ele>393.80</ele>
        <time>2012-11-10T09:25:39Z</time>
      </trkpt>
      <trkpt lat="42.448850300" lon="-2.445368600">
        <ele>394.80</ele>
        <time>2012-11-10T09:25:48Z</time>
      </trkpt>
      <trkpt lat="42.448642100" lon="-2.445314500">
        <ele>396.20</ele>
        <time>2012-11-10T09:25:54Z</time>
      </trkpt>
      <trkpt lat="42.448270000" lon="-2.445154400">
        <ele>397.20</ele>
        <time>2012-11-10T09:26:07Z</time>
      </trkpt>
      <trkpt lat="42.448003900" lon="-2.444994400">
        <ele>396.70</ele>
        <time>2012-11-10T09:26:15Z</time>
      </trkpt>
      <trkpt lat="42.447730300" lon="-2.444775800">
        <ele>396.70</ele>
        <time>2012-11-10T09:26:26Z</time>
      </trkpt>
      <trkpt lat="42.447527300" lon="-2.444568300">
        <ele>396.70</ele>
        <time>2012-11-10T09:26:35Z</time>
      </trkpt>
      <trkpt lat="42.447352100" lon="-2.444387500">
        <ele>395.70</ele>
        <time>2012-11-10T09:26:42Z</time>
      </trkpt>
      <trkpt lat="42.447079200" lon="-2.444242900">
        <ele>393.80</ele>
        <time>2012-11-10T09:26:50Z</time>
      </trkpt>
      <trkpt lat="42.446712400" lon="-2.444059200">
        <ele>391.90</ele>
        <time>2012-11-10T09:27:02Z</time>
      </trkpt>
      <trkpt lat="42.446517300" lon="-2.443967800">
        <ele>390.40</ele>
        <time>2012-11-10T09:27:11Z</time>
      </trkpt>
      <trkpt lat="42.446395500" lon="-2.443886300">
        <ele>390.40</ele>
        <time>2012-11-10T09:27:16Z</time>
      </trkpt>
      <trkpt lat="42.446222700" lon="-2.443787000">
        <ele>390.40</ele>
        <time>2012-11-10T09:27:22Z</time>
      </trkpt>
      <trkpt lat="42.446082200" lon="-2.443722600">
        <ele>390.90</ele>
        <time>2012-11-10T09:27:27Z</time>
      </trkpt>
      <trkpt lat="42.445974800" lon="-2.443752700">
        <ele>391.90</ele>
        <time>2012-11-10T09:27:32Z</time>
      </trkpt>
      <trkpt lat="42.445810200" lon="-2.443743900">
        <ele>392.80</ele>
        <time>2012-11-10T09:27:37Z</time>
      </trkpt>
      <trkpt lat="42.445594800" lon="-2.443768500">
        <ele>393.80</ele>
        <time>2012-11-10T09:27:46Z</time>
      </trkpt>
      <trkpt lat="42.445302700" lon="-2.443815400">
        <ele>398.10</ele>
        <time>2012-11-10T09:27:56Z</time>
      </trkpt>
      <trkpt lat="42.445047100" lon="-2.443843400">
        <ele>399.10</ele>
        <time>2012-11-10T09:28:05Z</time>
      </trkpt>
      <trkpt lat="42.444815200" lon="-2.443878400">
        <ele>398.10</ele>
        <time>2012-11-10T09:28:14Z</time>
      </trkpt>
      <trkpt lat="42.444686400" lon="-2.443917600">
        <ele>397.60</ele>
        <time>2012-11-10T09:28:19Z</time>
      </trkpt>
      <trkpt lat="42.444546300" lon="-2.443938900">
        <ele>397.20</ele>
        <time>2012-11-10T09:28:26Z</time>
      </trkpt>
      <trkpt lat="42.444333100" lon="-2.443962700">
        <ele>396.70</ele>
        <time>2012-11-10T09:28:33Z</time>
      </trkpt>
      <trkpt lat="42.444190700" lon="-2.443962600">
        <ele>395.70</ele>
        <time>2012-11-10T09:28:38Z</time>
      </trkpt>
      <trkpt lat="42.443917000" lon="-2.443952800">
        <ele>395.20</ele>
        <time>2012-11-10T09:28:47Z</time>
      </trkpt>
      <trkpt lat="42.443617900" lon="-2.443953500">
        <ele>395.70</ele>
        <time>2012-11-10T09:28:56Z</time>
      </trkpt>
      <trkpt lat="42.443341500" lon="-2.443964600">
        <ele>396.20</ele>
        <time>2012-11-10T09:29:04Z</time>
      </trkpt>
      <trkpt lat="42.443223000" lon="-2.443952100">
        <ele>396.20</ele>
        <time>2012-11-10T09:29:08Z</time>
      </trkpt>
      <trkpt lat="42.442966000" lon="-2.443870000">
        <ele>396.20</ele>
        <time>2012-11-10T09:29:18Z</time>
      </trkpt>
      <trkpt lat="42.442801300" lon="-2.443857800">
        <ele>396.70</ele>
        <time>2012-11-10T09:29:24Z</time>
      </trkpt>
      <trkpt lat="42.442610500" lon="-2.443923300">
        <ele>397.20</ele>
        <time>2012-11-10T09:29:30Z</time>
      </trkpt>
      <trkpt lat="42.442454600" lon="-2.443995200">
        <ele>397.60</ele>
        <time>2012-11-10T09:29:36Z</time>
      </trkpt>
      <trkpt lat="42.442199800" lon="-2.444120700">
        <ele>398.10</ele>
        <time>2012-11-10T09:29:46Z</time>
      </trkpt>
      <trkpt lat="42.442035100" lon="-2.444187600">
        <ele>398.10</ele>
        <time>2012-11-10T09:29:51Z</time>
      </trkpt>
      <trkpt lat="42.441842200" lon="-2.444260200">
        <ele>398.60</ele>
        <time>2012-11-10T09:29:58Z</time>
      </trkpt>
      <trkpt lat="42.441624900" lon="-2.444366500">
        <ele>399.10</ele>
        <time>2012-11-10T09:30:07Z</time>
      </trkpt>
      <trkpt lat="42.441466600" lon="-2.444444200">
        <ele>399.60</ele>
        <time>2012-11-10T09:30:12Z</time>
      </trkpt>
      <trkpt lat="42.441214900" lon="-2.444522900">
        <ele>401.00</ele>
        <time>2012-11-10T09:30:21Z</time>
      </trkpt>
      <trkpt lat="42.440931800" lon="-2.444508500">
        <ele>401.50</ele>
        <time>2012-11-10T09:30:30Z</time>
      </trkpt>
      <trkpt lat="42.440682600" lon="-2.444468000">
        <ele>402.00</ele>
        <time>2012-11-10T09:30:37Z</time>
      </trkpt>
      <trkpt lat="42.440438600" lon="-2.444454800">
        <ele>402.90</ele>
        <time>2012-11-10T09:30:45Z</time>
      </trkpt>
      <trkpt lat="42.440119100" lon="-2.444498200">
        <ele>402.90</ele>
        <time>2012-11-10T09:30:56Z</time>
      </trkpt>
      <trkpt lat="42.439778800" lon="-2.444551000">
        <ele>403.90</ele>
        <time>2012-11-10T09:31:06Z</time>
      </trkpt>
      <trkpt lat="42.439525400" lon="-2.444593000">
        <ele>405.30</ele>
        <time>2012-11-10T09:31:15Z</time>
      </trkpt>
      <trkpt lat="42.439266700" lon="-2.444639900">
        <ele>405.80</ele>
        <time>2012-11-10T09:31:22Z</time>
      </trkpt>
      <trkpt lat="42.439069900" lon="-2.444710400">
        <ele>405.30</ele>
        <time>2012-11-10T09:31:29Z</time>
      </trkpt>
      <trkpt lat="42.438894600" lon="-2.444768500">
        <ele>405.80</ele>
        <time>2012-11-10T09:31:36Z</time>
      </trkpt>
      <trkpt lat="42.438626100" lon="-2.444867600">
        <ele>406.30</ele>
        <time>2012-11-10T09:31:43Z</time>
      </trkpt>
      <trkpt lat="42.438322000" lon="-2.444956200">
        <ele>407.30</ele>
        <time>2012-11-10T09:31:53Z</time>
      </trkpt>
      <trkpt lat="42.437971500" lon="-2.445076200">
        <ele>408.20</ele>
        <time>2012-11-10T09:32:04Z</time>
      </trkpt>
      <trkpt lat="42.437650800" lon="-2.445200200">
        <ele>408.70</ele>
        <time>2012-11-10T09:32:14Z</time>
      </trkpt>
      <trkpt lat="42.437301000" lon="-2.445339100">
        <ele>409.70</ele>
        <time>2012-11-10T09:32:25Z</time>
      </trkpt>
      <trkpt lat="42.436972500" lon="-2.445481200">
        <ele>410.60</ele>
        <time>2012-11-10T09:32:35Z</time>
      </trkpt>
      <trkpt lat="42.436823800" lon="-2.445537800">
        <ele>411.10</ele>
        <time>2012-11-10T09:32:40Z</time>
      </trkpt>
      <trkpt lat="42.436653000" lon="-2.445369800">
        <ele>411.60</ele>
        <time>2012-11-10T09:32:47Z</time>
      </trkpt>
      <trkpt lat="42.436398000" lon="-2.445069400">
        <ele>410.60</ele>
        <time>2012-11-10T09:32:56Z</time>
      </trkpt>
      <trkpt lat="42.436172600" lon="-2.444825900">
        <ele>409.70</ele>
        <time>2012-11-10T09:33:03Z</time>
      </trkpt>
      <trkpt lat="42.435944900" lon="-2.444601300">
        <ele>410.60</ele>
        <time>2012-11-10T09:33:12Z</time>
      </trkpt>
      <trkpt lat="42.435826500" lon="-2.444492100">
        <ele>410.60</ele>
        <time>2012-11-10T09:33:15Z</time>
      </trkpt>
      <trkpt lat="42.435573400" lon="-2.444331900">
        <ele>410.10</ele>
        <time>2012-11-10T09:33:24Z</time>
      </trkpt>
      <trkpt lat="42.435333900" lon="-2.444289500">
        <ele>409.70</ele>
        <time>2012-11-10T09:33:31Z</time>
      </trkpt>
      <trkpt lat="42.435096900" lon="-2.444182900">
        <ele>409.20</ele>
        <time>2012-11-10T09:33:38Z</time>
      </trkpt>
      <trkpt lat="42.434789900" lon="-2.443961200">
        <ele>408.70</ele>
        <time>2012-11-10T09:33:48Z</time>
      </trkpt>
      <trkpt lat="42.434629200" lon="-2.443786800">
        <ele>408.70</ele>
        <time>2012-11-10T09:33:53Z</time>
      </trkpt>
      <trkpt lat="42.434511100" lon="-2.443543300">
        <ele>409.20</ele>
        <time>2012-11-10T09:33:59Z</time>
      </trkpt>
      <trkpt lat="42.434485200" lon="-2.443265100">
        <ele>409.20</ele>
        <time>2012-11-10T09:34:06Z</time>
      </trkpt>
      <trkpt lat="42.434399800" lon="-2.443044700">
        <ele>409.70</ele>
        <time>2012-11-10T09:34:11Z</time>
      </trkpt>
      <trkpt lat="42.434276600" lon="-2.442921300">
        <ele>410.60</ele>
        <time>2012-11-10T09:34:16Z</time>
      </trkpt>
      <trkpt lat="42.434157000" lon="-2.442873500">
        <ele>411.60</ele>
        <time>2012-11-10T09:34:21Z</time>
      </trkpt>
      <trkpt lat="42.433803500" lon="-2.442794800">
        <ele>411.60</ele>
        <time>2012-11-10T09:34:32Z</time>
      </trkpt>
      <trkpt lat="42.433532100" lon="-2.442754100">
        <ele>411.10</ele>
        <time>2012-11-10T09:34:41Z</time>
      </trkpt>
      <trkpt lat="42.433287400" lon="-2.442830200">
        <ele>410.10</ele>
        <time>2012-11-10T09:34:46Z</time>
      </trkpt>
      <trkpt lat="42.433123500" lon="-2.442999500">
        <ele>409.70</ele>
        <time>2012-11-10T09:34:51Z</time>
      </trkpt>
      <trkpt lat="42.432931800" lon="-2.443111000">
        <ele>410.10</ele>
        <time>2012-11-10T09:34:54Z</time>
      </trkpt>
      <trkpt lat="42.432666600" lon="-2.443086200">
        <ele>410.10</ele>
        <time>2012-11-10T09:35:00Z</time>
      </trkpt>
      <trkpt lat="42.432357200" lon="-2.442933900">
        <ele>410.10</ele>
        <time>2012-11-10T09:35:07Z</time>
      </trkpt>
      <trkpt lat="42.432156800" lon="-2.442808900">
        <ele>410.10</ele>
        <time>2012-11-10T09:35:12Z</time>
      </trkpt>
      <trkpt lat="42.431932400" lon="-2.442660300">
        <ele>409.70</ele>
        <time>2012-11-10T09:35:19Z</time>
      </trkpt>
      <trkpt lat="42.431558400" lon="-2.442484300">
        <ele>409.20</ele>
        <time>2012-11-10T09:35:29Z</time>
      </trkpt>
      <trkpt lat="42.431281800" lon="-2.442281600">
        <ele>409.70</ele>
        <time>2012-11-10T09:35:36Z</time>
      </trkpt>
      <trkpt lat="42.431044000" lon="-2.442024700">
        <ele>410.60</ele>
        <time>2012-11-10T09:35:45Z</time>
      </trkpt>
      <trkpt lat="42.430739600" lon="-2.441839600">
        <ele>410.10</ele>
        <time>2012-11-10T09:35:54Z</time>
      </trkpt>
      <trkpt lat="42.430406400" lon="-2.441631900">
        <ele>410.10</ele>
        <time>2012-11-10T09:36:04Z</time>
      </trkpt>
      <trkpt lat="42.430115200" lon="-2.441439500">
        <ele>410.60</ele>
        <time>2012-11-10T09:36:13Z</time>
      </trkpt>
      <trkpt lat="42.429770500" lon="-2.441269400">
        <ele>410.60</ele>
        <time>2012-11-10T09:36:23Z</time>
      </trkpt>
      <trkpt lat="42.429522300" lon="-2.441162900">
        <ele>411.10</ele>
        <time>2012-11-10T09:36:30Z</time>
      </trkpt>
      <trkpt lat="42.429263300" lon="-2.441087700">
        <ele>411.10</ele>
        <time>2012-11-10T09:36:37Z</time>
      </trkpt>
      <trkpt lat="42.428931300" lon="-2.441065500">
        <ele>412.10</ele>
        <time>2012-11-10T09:36:46Z</time>
      </trkpt>
      <trkpt lat="42.428731200" lon="-2.440957000">
        <ele>412.10</ele>
        <time>2012-11-10T09:36:51Z</time>
      </trkpt>
      <trkpt lat="42.428425100" lon="-2.440766300">
        <ele>412.50</ele>
        <time>2012-11-10T09:37:00Z</time>
      </trkpt>
      <trkpt lat="42.428144400" lon="-2.440610000">
        <ele>414.50</ele>
        <time>2012-11-10T09:37:09Z</time>
      </trkpt>
      <trkpt lat="42.427964500" lon="-2.440528100">
        <ele>414.90</ele>
        <time>2012-11-10T09:37:14Z</time>
      </trkpt>
      <trkpt lat="42.427711600" lon="-2.440518100">
        <ele>415.90</ele>
        <time>2012-11-10T09:37:21Z</time>
      </trkpt>
      <trkpt lat="42.427412600" lon="-2.440440200">
        <ele>415.90</ele>
        <time>2012-11-10T09:37:28Z</time>
      </trkpt>
      <trkpt lat="42.427090400" lon="-2.440266000">
        <ele>415.90</ele>
        <time>2012-11-10T09:37:38Z</time>
      </trkpt>
      <trkpt lat="42.426933500" lon="-2.440144700">
        <ele>416.40</ele>
        <time>2012-11-10T09:37:42Z</time>
      </trkpt>
      <trkpt lat="42.426742200" lon="-2.440035000">
        <ele>416.40</ele>
        <time>2012-11-10T09:37:49Z</time>
      </trkpt>
      <trkpt lat="42.426569700" lon="-2.440054500">
        <ele>416.40</ele>
        <time>2012-11-10T09:37:54Z</time>
      </trkpt>
      <trkpt lat="42.426299700" lon="-2.440066600">
        <ele>415.90</ele>
        <time>2012-11-10T09:38:01Z</time>
      </trkpt>
      <trkpt lat="42.426093100" lon="-2.440066200">
        <ele>415.90</ele>
        <time>2012-11-10T09:38:06Z</time>
      </trkpt>
      <trkpt lat="42.425876500" lon="-2.440056800">
        <ele>416.40</ele>
        <time>2012-11-10T09:38:13Z</time>
      </trkpt>
      <trkpt lat="42.425583600" lon="-2.439938500">
        <ele>415.90</ele>
        <time>2012-11-10T09:38:20Z</time>
      </trkpt>
      <trkpt lat="42.425367100" lon="-2.439778900">
        <ele>415.90</ele>
        <time>2012-11-10T09:38:27Z</time>
      </trkpt>
      <trkpt lat="42.425189300" lon="-2.439679500">
        <ele>416.40</ele>
        <time>2012-11-10T09:38:32Z</time>
      </trkpt>
      <trkpt lat="42.424997500" lon="-2.439640300">
        <ele>416.40</ele>
        <time>2012-11-10T09:38:36Z</time>
      </trkpt>
      <trkpt lat="42.424690400" lon="-2.439504000">
        <ele>416.40</ele>
        <time>2012-11-10T09:38:44Z</time>
      </trkpt>
      <trkpt lat="42.424429400" lon="-2.439234600">
        <ele>416.90</ele>
        <time>2012-11-10T09:38:53Z</time>
      </trkpt>
      <trkpt lat="42.424288600" lon="-2.439113500">
        <ele>417.30</ele>
        <time>2012-11-10T09:38:57Z</time>
      </trkpt>
      <trkpt lat="42.424180700" lon="-2.439033600">
        <ele>417.30</ele>
        <time>2012-11-10T09:39:00Z</time>
      </trkpt>
      <trkpt lat="42.423850300" lon="-2.438906800">
        <ele>417.30</ele>
        <time>2012-11-10T09:39:07Z</time>
      </trkpt>
      <trkpt lat="42.423367600" lon="-2.438768800">
        <ele>417.80</ele>
        <time>2012-11-10T09:39:19Z</time>
      </trkpt>
      <trkpt lat="42.423052900" lon="-2.438744700">
        <ele>418.30</ele>
        <time>2012-11-10T09:39:28Z</time>
      </trkpt>
      <trkpt lat="42.422750500" lon="-2.438794700">
        <ele>419.30</ele>
        <time>2012-11-10T09:39:35Z</time>
      </trkpt>
      <trkpt lat="42.422345600" lon="-2.438902200">
        <ele>420.70</ele>
        <time>2012-11-10T09:39:47Z</time>
      </trkpt>
      <trkpt lat="42.422011200" lon="-2.439006900">
        <ele>422.20</ele>
        <time>2012-11-10T09:39:56Z</time>
      </trkpt>
      <trkpt lat="42.421570900" lon="-2.439157300">
        <ele>423.60</ele>
        <time>2012-11-10T09:40:08Z</time>
      </trkpt>
      <trkpt lat="42.421398600" lon="-2.439201900">
        <ele>423.10</ele>
        <time>2012-11-10T09:40:13Z</time>
      </trkpt>
      <trkpt lat="42.421060300" lon="-2.439270300">
        <ele>423.60</ele>
        <time>2012-11-10T09:40:22Z</time>
      </trkpt>
      <trkpt lat="42.420732800" lon="-2.439363000">
        <ele>424.10</ele>
        <time>2012-11-10T09:40:31Z</time>
      </trkpt>
      <trkpt lat="42.420375900" lon="-2.439460200">
        <ele>424.60</ele>
        <time>2012-11-10T09:40:39Z</time>
      </trkpt>
      <trkpt lat="42.420092600" lon="-2.439545500">
        <ele>425.00</ele>
        <time>2012-11-10T09:40:46Z</time>
      </trkpt>
      <trkpt lat="42.419770600" lon="-2.439629200">
        <ele>426.00</ele>
        <time>2012-11-10T09:40:55Z</time>
      </trkpt>
      <trkpt lat="42.419513900" lon="-2.439723000">
        <ele>426.00</ele>
        <time>2012-11-10T09:41:02Z</time>
      </trkpt>
      <trkpt lat="42.419261400" lon="-2.439852400">
        <ele>427.40</ele>
        <time>2012-11-10T09:41:09Z</time>
      </trkpt>
      <trkpt lat="42.419037400" lon="-2.439920900">
        <ele>429.40</ele>
        <time>2012-11-10T09:41:14Z</time>
      </trkpt>
      <trkpt lat="42.418870100" lon="-2.440088700">
        <ele>431.30</ele>
        <time>2012-11-10T09:41:19Z</time>
      </trkpt>
      <trkpt lat="42.418667200" lon="-2.440373800">
        <ele>431.80</ele>
        <time>2012-11-10T09:41:26Z</time>
      </trkpt>
      <trkpt lat="42.418420400" lon="-2.440647400">
        <ele>431.30</ele>
        <time>2012-11-10T09:41:35Z</time>
      </trkpt>
      <trkpt lat="42.418201900" lon="-2.440873500">
        <ele>431.30</ele>
        <time>2012-11-10T09:41:42Z</time>
      </trkpt>
      <trkpt lat="42.418012500" lon="-2.441056600">
        <ele>432.70</ele>
        <time>2012-11-10T09:41:47Z</time>
      </trkpt>
      <trkpt lat="42.417736800" lon="-2.441284300">
        <ele>432.70</ele>
        <time>2012-11-10T09:41:56Z</time>
      </trkpt>
      <trkpt lat="42.417504200" lon="-2.441388000">
        <ele>433.20</ele>
        <time>2012-11-10T09:42:01Z</time>
      </trkpt>
      <trkpt lat="42.417165800" lon="-2.441504600">
        <ele>433.70</ele>
        <time>2012-11-10T09:42:10Z</time>
      </trkpt>
      <trkpt lat="42.416938700" lon="-2.441562600">
        <ele>434.20</ele>
        <time>2012-11-10T09:42:17Z</time>
      </trkpt>
      <trkpt lat="42.416580200" lon="-2.441652300">
        <ele>433.70</ele>
        <time>2012-11-10T09:42:26Z</time>
      </trkpt>
      <trkpt lat="42.416264300" lon="-2.441750000">
        <ele>434.70</ele>
        <time>2012-11-10T09:42:34Z</time>
      </trkpt>
      <trkpt lat="42.416108900" lon="-2.441832300">
        <ele>435.10</ele>
        <time>2012-11-10T09:42:38Z</time>
      </trkpt>
      <trkpt lat="42.415946500" lon="-2.442011200">
        <ele>435.10</ele>
        <time>2012-11-10T09:42:43Z</time>
      </trkpt>
      <trkpt lat="42.415878300" lon="-2.442080500">
        <ele>434.70</ele>
        <time>2012-11-10T09:42:45Z</time>
      </trkpt>
      <trkpt lat="42.415800600" lon="-2.442136300">
        <ele>435.10</ele>
        <time>2012-11-10T09:42:47Z</time>
      </trkpt>
      <trkpt lat="42.415521700" lon="-2.442225700">
        <ele>435.60</ele>
        <time>2012-11-10T09:42:54Z</time>
      </trkpt>
      <trkpt lat="42.415057600" lon="-2.442248500">
        <ele>434.20</ele>
        <time>2012-11-10T09:43:04Z</time>
      </trkpt>
      <trkpt lat="42.414719900" lon="-2.442260700">
        <ele>433.70</ele>
        <time>2012-11-10T09:43:13Z</time>
      </trkpt>
      <trkpt lat="42.414553200" lon="-2.442274200">
        <ele>433.70</ele>
        <time>2012-11-10T09:43:16Z</time>
      </trkpt>
      <trkpt lat="42.414189200" lon="-2.442457000">
        <ele>434.20</ele>
        <time>2012-11-10T09:43:25Z</time>
      </trkpt>
      <trkpt lat="42.413847000" lon="-2.442695200">
        <ele>434.70</ele>
        <time>2012-11-10T09:43:35Z</time>
      </trkpt>
      <trkpt lat="42.413520000" lon="-2.442813300">
        <ele>435.60</ele>
        <time>2012-11-10T09:43:42Z</time>
      </trkpt>
      <trkpt lat="42.413146300" lon="-2.442931000">
        <ele>437.10</ele>
        <time>2012-11-10T09:43:51Z</time>
      </trkpt>
      <trkpt lat="42.412797800" lon="-2.443051600">
        <ele>437.50</ele>
        <time>2012-11-10T09:44:00Z</time>
      </trkpt>
      <trkpt lat="42.412596800" lon="-2.443111100">
        <ele>438.00</ele>
        <time>2012-11-10T09:44:05Z</time>
      </trkpt>
      <trkpt lat="42.412383300" lon="-2.443073000">
        <ele>437.50</ele>
        <time>2012-11-10T09:44:10Z</time>
      </trkpt>
      <trkpt lat="42.412303500" lon="-2.443028000">
        <ele>437.10</ele>
        <time>2012-11-10T09:44:12Z</time>
      </trkpt>
      <trkpt lat="42.412145200" lon="-2.443004500">
        <ele>437.10</ele>
        <time>2012-11-10T09:44:17Z</time>
      </trkpt>
      <trkpt lat="42.411842300" lon="-2.443194300">
        <ele>438.00</ele>
        <time>2012-11-10T09:44:24Z</time>
      </trkpt>
      <trkpt lat="42.411689000" lon="-2.443278500">
        <ele>438.50</ele>
        <time>2012-11-10T09:44:29Z</time>
      </trkpt>
      <trkpt lat="42.411524400" lon="-2.443313000">
        <ele>438.00</ele>
        <time>2012-11-10T09:44:33Z</time>
      </trkpt>
      <trkpt lat="42.411251400" lon="-2.443295700">
        <ele>436.60</ele>
        <time>2012-11-10T09:44:38Z</time>
      </trkpt>
      <trkpt lat="42.411063700" lon="-2.443199400">
        <ele>436.10</ele>
        <time>2012-11-10T09:44:43Z</time>
      </trkpt>
      <trkpt lat="42.410910300" lon="-2.443047700">
        <ele>435.60</ele>
        <time>2012-11-10T09:44:47Z</time>
      </trkpt>
      <trkpt lat="42.410695000" lon="-2.442931000">
        <ele>434.70</ele>
        <time>2012-11-10T09:44:52Z</time>
      </trkpt>
      <trkpt lat="42.410604900" lon="-2.442906300">
        <ele>434.70</ele>
        <time>2012-11-10T09:44:54Z</time>
      </trkpt>
      <trkpt lat="42.410468100" lon="-2.442893200">
        <ele>434.70</ele>
        <time>2012-11-10T09:44:57Z</time>
      </trkpt>
      <trkpt lat="42.410293900" lon="-2.442918700">
        <ele>434.70</ele>
        <time>2012-11-10T09:45:01Z</time>
      </trkpt>
      <trkpt lat="42.409872700" lon="-2.443038800">
        <ele>434.70</ele>
        <time>2012-11-10T09:45:11Z</time>
      </trkpt>
      <trkpt lat="42.409588400" lon="-2.443106200">
        <ele>435.10</ele>
        <time>2012-11-10T09:45:18Z</time>
      </trkpt>
      <trkpt lat="42.409260300" lon="-2.443280000">
        <ele>436.60</ele>
        <time>2012-11-10T09:45:27Z</time>
      </trkpt>
      <trkpt lat="42.408948100" lon="-2.443459400">
        <ele>436.60</ele>
        <time>2012-11-10T09:45:35Z</time>
      </trkpt>
      <trkpt lat="42.408784300" lon="-2.443547100">
        <ele>438.50</ele>
        <time>2012-11-10T09:45:41Z</time>
      </trkpt>
      <trkpt lat="42.408747500" lon="-2.443577600">
        <ele>439.00</ele>
        <time>2012-11-10T09:45:44Z</time>
      </trkpt>
      <trkpt lat="42.408738700" lon="-2.443581800">
        <ele>439.00</ele>
        <time>2012-11-10T09:45:53Z</time>
      </trkpt>
      <trkpt lat="42.408724900" lon="-2.443597200">
        <ele>440.40</ele>
        <time>2012-11-10T09:46:19Z</time>
      </trkpt>
      <trkpt lat="42.408711400" lon="-2.443625800">
        <ele>444.30</ele>
        <time>2012-11-10T09:46:28Z</time>
      </trkpt>
      <trkpt lat="42.408672800" lon="-2.443633000">
        <ele>443.80</ele>
        <time>2012-11-10T09:46:40Z</time>
      </trkpt>
      <trkpt lat="42.408558100" lon="-2.443701200">
        <ele>443.30</ele>
        <time>2012-11-10T09:46:47Z</time>
      </trkpt>
      <trkpt lat="42.408430300" lon="-2.443772900">
        <ele>442.30</ele>
        <time>2012-11-10T09:46:52Z</time>
      </trkpt>
      <trkpt lat="42.408361500" lon="-2.443804000">
        <ele>442.30</ele>
        <time>2012-11-10T09:46:57Z</time>
      </trkpt>
      <trkpt lat="42.408255400" lon="-2.443831600">
        <ele>442.30</ele>
        <time>2012-11-10T09:47:01Z</time>
      </trkpt>
      <trkpt lat="42.408111300" lon="-2.443911600">
        <ele>442.30</ele>
        <time>2012-11-10T09:47:08Z</time>
      </trkpt>
      <trkpt lat="42.407926300" lon="-2.444098200">
        <ele>441.90</ele>
        <time>2012-11-10T09:47:15Z</time>
      </trkpt>
      <trkpt lat="42.407732800" lon="-2.444377800">
        <ele>441.90</ele>
        <time>2012-11-10T09:47:25Z</time>
      </trkpt>
      <trkpt lat="42.407577200" lon="-2.444637500">
        <ele>444.30</ele>
        <time>2012-11-10T09:47:34Z</time>
      </trkpt>
      <trkpt lat="42.407523400" lon="-2.444800400">
        <ele>444.30</ele>
        <time>2012-11-10T09:47:39Z</time>
      </trkpt>
      <trkpt lat="42.407446500" lon="-2.445027800">
        <ele>443.80</ele>
        <time>2012-11-10T09:47:44Z</time>
      </trkpt>
      <trkpt lat="42.407341900" lon="-2.445312600">
        <ele>442.30</ele>
        <time>2012-11-10T09:47:50Z</time>
      </trkpt>
      <trkpt lat="42.407261200" lon="-2.445610100">
        <ele>441.90</ele>
        <time>2012-11-10T09:47:55Z</time>
      </trkpt>
      <trkpt lat="42.407143200" lon="-2.445947300">
        <ele>441.90</ele>
        <time>2012-11-10T09:48:02Z</time>
      </trkpt>
      <trkpt lat="42.407034500" lon="-2.446173100">
        <ele>441.40</ele>
        <time>2012-11-10T09:48:07Z</time>
      </trkpt>
      <trkpt lat="42.406893000" lon="-2.446432800">
        <ele>441.90</ele>
        <time>2012-11-10T09:48:14Z</time>
      </trkpt>
      <trkpt lat="42.406891000" lon="-2.446657800">
        <ele>442.30</ele>
        <time>2012-11-10T09:48:19Z</time>
      </trkpt>
      <trkpt lat="42.406952300" lon="-2.447056800">
        <ele>441.90</ele>
        <time>2012-11-10T09:48:26Z</time>
      </trkpt>
      <trkpt lat="42.407039700" lon="-2.447557400">
        <ele>441.40</ele>
        <time>2012-11-10T09:48:37Z</time>
      </trkpt>
      <trkpt lat="42.407159000" lon="-2.448089800">
        <ele>439.90</ele>
        <time>2012-11-10T09:48:47Z</time>
      </trkpt>
      <trkpt lat="42.407151600" lon="-2.448350700">
        <ele>440.90</ele>
        <time>2012-11-10T09:48:52Z</time>
      </trkpt>
      <trkpt lat="42.407055700" lon="-2.448501200">
        <ele>441.90</ele>
        <time>2012-11-10T09:48:56Z</time>
      </trkpt>
      <trkpt lat="42.406863700" lon="-2.448628400">
        <ele>443.80</ele>
        <time>2012-11-10T09:49:03Z</time>
      </trkpt>
      <trkpt lat="42.406653300" lon="-2.448834200">
        <ele>444.70</ele>
        <time>2012-11-10T09:49:10Z</time>
      </trkpt>
      <trkpt lat="42.406377600" lon="-2.449142200">
        <ele>446.70</ele>
        <time>2012-11-10T09:49:20Z</time>
      </trkpt>
      <trkpt lat="42.406087000" lon="-2.449372900">
        <ele>446.70</ele>
        <time>2012-11-10T09:49:29Z</time>
      </trkpt>
      <trkpt lat="42.405764500" lon="-2.449562900">
        <ele>447.20</ele>
        <time>2012-11-10T09:49:38Z</time>
      </trkpt>
      <trkpt lat="42.405505200" lon="-2.449713800">
        <ele>448.60</ele>
        <time>2012-11-10T09:49:45Z</time>
      </trkpt>
      <trkpt lat="42.405229900" lon="-2.449874200">
        <ele>449.10</ele>
        <time>2012-11-10T09:49:53Z</time>
      </trkpt>
      <trkpt lat="42.405010800" lon="-2.450037000">
        <ele>449.60</ele>
        <time>2012-11-10T09:50:00Z</time>
      </trkpt>
      <trkpt lat="42.404832400" lon="-2.450180800">
        <ele>449.60</ele>
        <time>2012-11-10T09:50:06Z</time>
      </trkpt>
      <trkpt lat="42.404718000" lon="-2.450363500">
        <ele>450.00</ele>
        <time>2012-11-10T09:50:11Z</time>
      </trkpt>
      <trkpt lat="42.404584600" lon="-2.450583900">
        <ele>450.50</ele>
        <time>2012-11-10T09:50:16Z</time>
      </trkpt>
      <trkpt lat="42.404367400" lon="-2.450887300">
        <ele>450.50</ele>
        <time>2012-11-10T09:50:25Z</time>
      </trkpt>
      <trkpt lat="42.404118700" lon="-2.451153300">
        <ele>451.50</ele>
        <time>2012-11-10T09:50:33Z</time>
      </trkpt>
      <trkpt lat="42.403817700" lon="-2.451537400">
        <ele>452.40</ele>
        <time>2012-11-10T09:50:42Z</time>
      </trkpt>
      <trkpt lat="42.403734700" lon="-2.451653200">
        <ele>452.40</ele>
        <time>2012-11-10T09:50:46Z</time>
      </trkpt>
      <trkpt lat="42.403636000" lon="-2.451750500">
        <ele>452.90</ele>
        <time>2012-11-10T09:50:49Z</time>
      </trkpt>
      <trkpt lat="42.403270800" lon="-2.452021400">
        <ele>453.90</ele>
        <time>2012-11-10T09:50:58Z</time>
      </trkpt>
      <trkpt lat="42.403017100" lon="-2.452253900">
        <ele>454.80</ele>
        <time>2012-11-10T09:51:06Z</time>
      </trkpt>
      <trkpt lat="42.402796000" lon="-2.452392300">
        <ele>455.30</ele>
        <time>2012-11-10T09:51:13Z</time>
      </trkpt>
      <trkpt lat="42.402612000" lon="-2.452598400">
        <ele>456.30</ele>
        <time>2012-11-10T09:51:20Z</time>
      </trkpt>
      <trkpt lat="42.402408800" lon="-2.452853900">
        <ele>457.20</ele>
        <time>2012-11-10T09:51:29Z</time>
      </trkpt>
      <trkpt lat="42.402207800" lon="-2.453062600">
        <ele>457.20</ele>
        <time>2012-11-10T09:51:36Z</time>
      </trkpt>
      <trkpt lat="42.402042600" lon="-2.453238600">
        <ele>458.20</ele>
        <time>2012-11-10T09:51:41Z</time>
      </trkpt>
      <trkpt lat="42.401823900" lon="-2.453428700">
        <ele>458.70</ele>
        <time>2012-11-10T09:51:48Z</time>
      </trkpt>
      <trkpt lat="42.401631300" lon="-2.453562400">
        <ele>458.70</ele>
        <time>2012-11-10T09:51:55Z</time>
      </trkpt>
      <trkpt lat="42.401459400" lon="-2.453739700">
        <ele>459.60</ele>
        <time>2012-11-10T09:52:00Z</time>
      </trkpt>
      <trkpt lat="42.401269800" lon="-2.453954600">
        <ele>459.60</ele>
        <time>2012-11-10T09:52:07Z</time>
      </trkpt>
      <trkpt lat="42.401066000" lon="-2.454171700">
        <ele>460.10</ele>
        <time>2012-11-10T09:52:14Z</time>
      </trkpt>
      <trkpt lat="42.400881300" lon="-2.454317000">
        <ele>459.60</ele>
        <time>2012-11-10T09:52:21Z</time>
      </trkpt>
      <trkpt lat="42.400652400" lon="-2.454456700">
        <ele>459.60</ele>
        <time>2012-11-10T09:52:28Z</time>
      </trkpt>
      <trkpt lat="42.400469600" lon="-2.454558200">
        <ele>459.60</ele>
        <time>2012-11-10T09:52:35Z</time>
      </trkpt>
      <trkpt lat="42.400252800" lon="-2.454688700">
        <ele>459.20</ele>
        <time>2012-11-10T09:52:42Z</time>
      </trkpt>
      <trkpt lat="42.399953000" lon="-2.454870200">
        <ele>458.70</ele>
        <time>2012-11-10T09:52:51Z</time>
      </trkpt>
      <trkpt lat="42.399814100" lon="-2.454999900">
        <ele>458.20</ele>
        <time>2012-11-10T09:52:56Z</time>
      </trkpt>
      <trkpt lat="42.399604800" lon="-2.455214900">
        <ele>458.70</ele>
        <time>2012-11-10T09:53:03Z</time>
      </trkpt>
      <trkpt lat="42.399313500" lon="-2.455424800">
        <ele>457.70</ele>
        <time>2012-11-10T09:53:12Z</time>
      </trkpt>
      <trkpt lat="42.399133500" lon="-2.455559400">
        <ele>457.20</ele>
        <time>2012-11-10T09:53:17Z</time>
      </trkpt>
      <trkpt lat="42.398895300" lon="-2.455650000">
        <ele>456.80</ele>
        <time>2012-11-10T09:53:24Z</time>
      </trkpt>
      <trkpt lat="42.398669500" lon="-2.455736500">
        <ele>457.70</ele>
        <time>2012-11-10T09:53:31Z</time>
      </trkpt>
      <trkpt lat="42.398471500" lon="-2.455849300">
        <ele>458.70</ele>
        <time>2012-11-10T09:53:38Z</time>
      </trkpt>
      <trkpt lat="42.398273100" lon="-2.455952600">
        <ele>460.60</ele>
        <time>2012-11-10T09:53:45Z</time>
      </trkpt>
      <trkpt lat="42.398049600" lon="-2.456036700">
        <ele>462.50</ele>
        <time>2012-11-10T09:53:52Z</time>
      </trkpt>
      <trkpt lat="42.397854100" lon="-2.456137200">
        <ele>463.50</ele>
        <time>2012-11-10T09:53:59Z</time>
      </trkpt>
      <trkpt lat="42.397660200" lon="-2.456332200">
        <ele>463.50</ele>
        <time>2012-11-10T09:54:06Z</time>
      </trkpt>
      <trkpt lat="42.397452800" lon="-2.456414000">
        <ele>462.50</ele>
        <time>2012-11-10T09:54:11Z</time>
      </trkpt>
      <trkpt lat="42.397156200" lon="-2.456496300">
        <ele>462.10</ele>
        <time>2012-11-10T09:54:20Z</time>
      </trkpt>
      <trkpt lat="42.396965900" lon="-2.456705200">
        <ele>462.50</ele>
        <time>2012-11-10T09:54:25Z</time>
      </trkpt>
      <trkpt lat="42.396714700" lon="-2.456918900">
        <ele>463.50</ele>
        <time>2012-11-10T09:54:32Z</time>
      </trkpt>
      <trkpt lat="42.396638400" lon="-2.456953800">
        <ele>463.50</ele>
        <time>2012-11-10T09:54:34Z</time>
      </trkpt>
      <trkpt lat="42.396522500" lon="-2.456976700">
        <ele>463.50</ele>
        <time>2012-11-10T09:54:37Z</time>
      </trkpt>
      <trkpt lat="42.396264200" lon="-2.456949000">
        <ele>462.50</ele>
        <time>2012-11-10T09:54:44Z</time>
      </trkpt>
      <trkpt lat="42.396127500" lon="-2.457035400">
        <ele>462.50</ele>
        <time>2012-11-10T09:54:48Z</time>
      </trkpt>
      <trkpt lat="42.395907500" lon="-2.457156600">
        <ele>462.50</ele>
        <time>2012-11-10T09:54:55Z</time>
      </trkpt>
      <trkpt lat="42.395771900" lon="-2.457273900">
        <ele>462.50</ele>
        <time>2012-11-10T09:54:58Z</time>
      </trkpt>
      <trkpt lat="42.395625200" lon="-2.457333600">
        <ele>463.50</ele>
        <time>2012-11-10T09:55:02Z</time>
      </trkpt>
      <trkpt lat="42.395372100" lon="-2.457420600">
        <ele>463.50</ele>
        <time>2012-11-10T09:55:10Z</time>
      </trkpt>
      <trkpt lat="42.395159000" lon="-2.457563000">
        <ele>463.00</ele>
        <time>2012-11-10T09:55:16Z</time>
      </trkpt>
      <trkpt lat="42.394955500" lon="-2.457688400">
        <ele>463.50</ele>
        <time>2012-11-10T09:55:21Z</time>
      </trkpt>
      <trkpt lat="42.394783400" lon="-2.457890200">
        <ele>464.90</ele>
        <time>2012-11-10T09:55:28Z</time>
      </trkpt>
      <trkpt lat="42.394597600" lon="-2.458091500">
        <ele>466.90</ele>
        <time>2012-11-10T09:55:33Z</time>
      </trkpt>
      <trkpt lat="42.394388600" lon="-2.458406400">
        <ele>467.30</ele>
        <time>2012-11-10T09:55:42Z</time>
      </trkpt>
      <trkpt lat="42.394177400" lon="-2.458588900">
        <ele>466.90</ele>
        <time>2012-11-10T09:55:47Z</time>
      </trkpt>
      <trkpt lat="42.393906000" lon="-2.458738600">
        <ele>466.90</ele>
        <time>2012-11-10T09:55:54Z</time>
      </trkpt>
      <trkpt lat="42.393558000" lon="-2.458900500">
        <ele>467.30</ele>
        <time>2012-11-10T09:56:04Z</time>
      </trkpt>
      <trkpt lat="42.393269800" lon="-2.458971800">
        <ele>468.30</ele>
        <time>2012-11-10T09:56:11Z</time>
      </trkpt>
      <trkpt lat="42.392900200" lon="-2.459165100">
        <ele>469.30</ele>
        <time>2012-11-10T09:56:20Z</time>
      </trkpt>
      <trkpt lat="42.392594500" lon="-2.459254600">
        <ele>469.30</ele>
        <time>2012-11-10T09:56:29Z</time>
      </trkpt>
      <trkpt lat="42.392319800" lon="-2.459346700">
        <ele>470.20</ele>
        <time>2012-11-10T09:56:36Z</time>
      </trkpt>
      <trkpt lat="42.392081600" lon="-2.459447800">
        <ele>471.20</ele>
        <time>2012-11-10T09:56:41Z</time>
      </trkpt>
      <trkpt lat="42.392004700" lon="-2.459488600">
        <ele>471.20</ele>
        <time>2012-11-10T09:56:43Z</time>
      </trkpt>
      <trkpt lat="42.391667100" lon="-2.459635500">
        <ele>472.10</ele>
        <time>2012-11-10T09:56:53Z</time>
      </trkpt>
      <trkpt lat="42.391508700" lon="-2.459698900">
        <ele>474.10</ele>
        <time>2012-11-10T09:56:57Z</time>
      </trkpt>
      <trkpt lat="42.391157400" lon="-2.459768400">
        <ele>475.50</ele>
        <time>2012-11-10T09:57:05Z</time>
      </trkpt>
      <trkpt lat="42.390916700" lon="-2.459719200">
        <ele>475.50</ele>
        <time>2012-11-10T09:57:12Z</time>
      </trkpt>
      <trkpt lat="42.390656100" lon="-2.459682600">
        <ele>475.50</ele>
        <time>2012-11-10T09:57:19Z</time>
      </trkpt>
      <trkpt lat="42.390388700" lon="-2.459767900">
        <ele>475.00</ele>
        <time>2012-11-10T09:57:26Z</time>
      </trkpt>
      <trkpt lat="42.390003500" lon="-2.459974800">
        <ele>474.50</ele>
        <time>2012-11-10T09:57:35Z</time>
      </trkpt>
      <trkpt lat="42.389937900" lon="-2.460028400">
        <ele>474.50</ele>
        <time>2012-11-10T09:57:37Z</time>
      </trkpt>
      <trkpt lat="42.389865900" lon="-2.460193400">
        <ele>473.60</ele>
        <time>2012-11-10T09:57:42Z</time>
      </trkpt>
      <trkpt lat="42.389880700" lon="-2.460297400">
        <ele>473.60</ele>
        <time>2012-11-10T09:57:44Z</time>
      </trkpt>
      <trkpt lat="42.390040800" lon="-2.460723300">
        <ele>473.10</ele>
        <time>2012-11-10T09:57:52Z</time>
      </trkpt>
      <trkpt lat="42.390155500" lon="-2.460951500">
        <ele>471.70</ele>
        <time>2012-11-10T09:57:58Z</time>
      </trkpt>
      <trkpt lat="42.390321800" lon="-2.461180700">
        <ele>471.70</ele>
        <time>2012-11-10T09:58:03Z</time>
      </trkpt>
      <trkpt lat="42.390471000" lon="-2.461430600">
        <ele>471.20</ele>
        <time>2012-11-10T09:58:10Z</time>
      </trkpt>
      <trkpt lat="42.390526400" lon="-2.461520600">
        <ele>470.70</ele>
        <time>2012-11-10T09:58:12Z</time>
      </trkpt>
      <trkpt lat="42.390717600" lon="-2.461758500">
        <ele>468.80</ele>
        <time>2012-11-10T09:58:17Z</time>
      </trkpt>
      <trkpt lat="42.390790800" lon="-2.461830300">
        <ele>467.80</ele>
        <time>2012-11-10T09:58:20Z</time>
      </trkpt>
      <trkpt lat="42.391027400" lon="-2.462058800">
        <ele>466.40</ele>
        <time>2012-11-10T09:58:27Z</time>
      </trkpt>
      <trkpt lat="42.391192200" lon="-2.462228900">
        <ele>464.00</ele>
        <time>2012-11-10T09:58:31Z</time>
      </trkpt>
      <trkpt lat="42.391275600" lon="-2.462366000">
        <ele>462.50</ele>
        <time>2012-11-10T09:58:34Z</time>
      </trkpt>
      <trkpt lat="42.391321500" lon="-2.462474500">
        <ele>462.10</ele>
        <time>2012-11-10T09:58:36Z</time>
      </trkpt>
      <trkpt lat="42.391428800" lon="-2.462767200">
        <ele>463.50</ele>
        <time>2012-11-10T09:58:43Z</time>
      </trkpt>
      <trkpt lat="42.391498900" lon="-2.462901800">
        <ele>463.00</ele>
        <time>2012-11-10T09:58:46Z</time>
      </trkpt>
      <trkpt lat="42.391609000" lon="-2.463061400">
        <ele>462.50</ele>
        <time>2012-11-10T09:58:50Z</time>
      </trkpt>
      <trkpt lat="42.391708500" lon="-2.463198700">
        <ele>462.50</ele>
        <time>2012-11-10T09:58:53Z</time>
      </trkpt>
      <trkpt lat="42.391709000" lon="-2.463370500">
        <ele>463.00</ele>
        <time>2012-11-10T09:58:57Z</time>
      </trkpt>
      <trkpt lat="42.391554200" lon="-2.463524100">
        <ele>463.50</ele>
        <time>2012-11-10T09:59:02Z</time>
      </trkpt>
      <trkpt lat="42.391312500" lon="-2.463634400">
        <ele>464.00</ele>
        <time>2012-11-10T09:59:09Z</time>
      </trkpt>
      <trkpt lat="42.391120000" lon="-2.463791600">
        <ele>465.40</ele>
        <time>2012-11-10T09:59:16Z</time>
      </trkpt>
      <trkpt lat="42.390898100" lon="-2.464016100">
        <ele>466.90</ele>
        <time>2012-11-10T09:59:23Z</time>
      </trkpt>
      <trkpt lat="42.390616600" lon="-2.464256900">
        <ele>468.80</ele>
        <time>2012-11-10T09:59:32Z</time>
      </trkpt>
      <trkpt lat="42.390439000" lon="-2.464397000">
        <ele>470.20</ele>
        <time>2012-11-10T09:59:37Z</time>
      </trkpt>
      <trkpt lat="42.390211700" lon="-2.464453300">
        <ele>471.70</ele>
        <time>2012-11-10T09:59:44Z</time>
      </trkpt>
      <trkpt lat="42.390030100" lon="-2.464523900">
        <ele>471.70</ele>
        <time>2012-11-10T09:59:51Z</time>
      </trkpt>
      <trkpt lat="42.389849000" lon="-2.464519600">
        <ele>471.70</ele>
        <time>2012-11-10T09:59:56Z</time>
      </trkpt>
      <trkpt lat="42.389759700" lon="-2.464406200">
        <ele>471.20</ele>
        <time>2012-11-10T10:00:01Z</time>
      </trkpt>
      <trkpt lat="42.389736800" lon="-2.464153500">
        <ele>470.20</ele>
        <time>2012-11-10T10:00:06Z</time>
      </trkpt>
      <trkpt lat="42.389740600" lon="-2.463825900">
        <ele>467.80</ele>
        <time>2012-11-10T10:00:15Z</time>
      </trkpt>
      <trkpt lat="42.389739900" lon="-2.463807200">
        <ele>467.80</ele>
        <time>2012-11-10T10:00:15Z</time>
      </trkpt>
      <trkpt lat="42.389687200" lon="-2.463678400">
        <ele>466.90</ele>
        <time>2012-11-10T10:00:20Z</time>
      </trkpt>
      <trkpt lat="42.389659600" lon="-2.463660300">
        <ele>466.90</ele>
        <time>2012-11-10T10:00:22Z</time>
      </trkpt>
      <trkpt lat="42.389454600" lon="-2.463510700">
        <ele>466.40</ele>
        <time>2012-11-10T10:00:29Z</time>
      </trkpt>
      <trkpt lat="42.389264700" lon="-2.463381400">
        <ele>466.40</ele>
        <time>2012-11-10T10:00:34Z</time>
      </trkpt>
      <trkpt lat="42.389146600" lon="-2.463356600">
        <ele>467.30</ele>
        <time>2012-11-10T10:00:38Z</time>
      </trkpt>
      <trkpt lat="42.389005900" lon="-2.463428100">
        <ele>468.30</ele>
        <time>2012-11-10T10:00:43Z</time>
      </trkpt>
      <trkpt lat="42.388825900" lon="-2.463530700">
        <ele>468.80</ele>
        <time>2012-11-10T10:00:50Z</time>
      </trkpt>
      <trkpt lat="42.388598000" lon="-2.463636300">
        <ele>469.30</ele>
        <time>2012-11-10T10:00:57Z</time>
      </trkpt>
      <trkpt lat="42.388520300" lon="-2.463741000">
        <ele>468.80</ele>
        <time>2012-11-10T10:00:59Z</time>
      </trkpt>
      <trkpt lat="42.388401900" lon="-2.464012800">
        <ele>469.30</ele>
        <time>2012-11-10T10:01:06Z</time>
      </trkpt>
      <trkpt lat="42.388301900" lon="-2.464117300">
        <ele>470.20</ele>
        <time>2012-11-10T10:01:11Z</time>
      </trkpt>
      <trkpt lat="42.388139600" lon="-2.464215600">
        <ele>471.20</ele>
        <time>2012-11-10T10:01:16Z</time>
      </trkpt>
      <trkpt lat="42.387902100" lon="-2.464418500">
        <ele>472.60</ele>
        <time>2012-11-10T10:01:23Z</time>
      </trkpt>
      <trkpt lat="42.387673000" lon="-2.464730900">
        <ele>473.10</ele>
        <time>2012-11-10T10:01:32Z</time>
      </trkpt>
      <trkpt lat="42.387542300" lon="-2.464764000">
        <ele>474.10</ele>
        <time>2012-11-10T10:01:37Z</time>
      </trkpt>
      <trkpt lat="42.387276800" lon="-2.464782100">
        <ele>474.50</ele>
        <time>2012-11-10T10:01:44Z</time>
      </trkpt>
      <trkpt lat="42.386961400" lon="-2.464802600">
        <ele>475.50</ele>
        <time>2012-11-10T10:01:51Z</time>
      </trkpt>
      <trkpt lat="42.386641700" lon="-2.464794300">
        <ele>476.50</ele>
        <time>2012-11-10T10:02:00Z</time>
      </trkpt>
      <trkpt lat="42.386310500" lon="-2.464773900">
        <ele>477.00</ele>
        <time>2012-11-10T10:02:07Z</time>
      </trkpt>
      <trkpt lat="42.385960900" lon="-2.464754600">
        <ele>477.40</ele>
        <time>2012-11-10T10:02:15Z</time>
      </trkpt>
      <trkpt lat="42.385875100" lon="-2.464758800">
        <ele>477.40</ele>
        <time>2012-11-10T10:02:17Z</time>
      </trkpt>
      <trkpt lat="42.385707300" lon="-2.464744900">
        <ele>477.40</ele>
        <time>2012-11-10T10:02:22Z</time>
      </trkpt>
      <trkpt lat="42.385383900" lon="-2.464645500">
        <ele>477.90</ele>
        <time>2012-11-10T10:02:29Z</time>
      </trkpt>
      <trkpt lat="42.385016600" lon="-2.464498900">
        <ele>477.90</ele>
        <time>2012-11-10T10:02:38Z</time>
      </trkpt>
      <trkpt lat="42.384652400" lon="-2.464392100">
        <ele>478.90</ele>
        <time>2012-11-10T10:02:47Z</time>
      </trkpt>
      <trkpt lat="42.384322900" lon="-2.464427000">
        <ele>478.90</ele>
        <time>2012-11-10T10:02:55Z</time>
      </trkpt>
      <trkpt lat="42.384039100" lon="-2.464541700">
        <ele>478.90</ele>
        <time>2012-11-10T10:03:02Z</time>
      </trkpt>
      <trkpt lat="42.384000000" lon="-2.464565800">
        <ele>479.40</ele>
        <time>2012-11-10T10:03:04Z</time>
      </trkpt>
      <trkpt lat="42.383707100" lon="-2.464845300">
        <ele>479.40</ele>
        <time>2012-11-10T10:03:11Z</time>
      </trkpt>
      <trkpt lat="42.383597700" lon="-2.464939200">
        <ele>479.40</ele>
        <time>2012-11-10T10:03:15Z</time>
      </trkpt>
      <trkpt lat="42.383422400" lon="-2.465194400">
        <ele>479.80</ele>
        <time>2012-11-10T10:03:20Z</time>
      </trkpt>
      <trkpt lat="42.383388200" lon="-2.465417800">
        <ele>480.30</ele>
        <time>2012-11-10T10:03:25Z</time>
      </trkpt>
      <trkpt lat="42.383310300" lon="-2.465549800">
        <ele>480.80</ele>
        <time>2012-11-10T10:03:27Z</time>
      </trkpt>
      <trkpt lat="42.383243000" lon="-2.465628600">
        <ele>481.30</ele>
        <time>2012-11-10T10:03:30Z</time>
      </trkpt>
      <trkpt lat="42.383117700" lon="-2.465777000">
        <ele>481.80</ele>
        <time>2012-11-10T10:03:34Z</time>
      </trkpt>
      <trkpt lat="42.382943800" lon="-2.465885400">
        <ele>482.20</ele>
        <time>2012-11-10T10:03:39Z</time>
      </trkpt>
      <trkpt lat="42.382552700" lon="-2.466030700">
        <ele>482.70</ele>
        <time>2012-11-10T10:03:48Z</time>
      </trkpt>
      <trkpt lat="42.382479100" lon="-2.466075800">
        <ele>482.70</ele>
        <time>2012-11-10T10:03:51Z</time>
      </trkpt>
      <trkpt lat="42.382212200" lon="-2.466352400">
        <ele>484.60</ele>
        <time>2012-11-10T10:03:58Z</time>
      </trkpt>
      <trkpt lat="42.381974900" lon="-2.466611800">
        <ele>484.60</ele>
        <time>2012-11-10T10:04:05Z</time>
      </trkpt>
      <trkpt lat="42.381820700" lon="-2.466844700">
        <ele>484.60</ele>
        <time>2012-11-10T10:04:12Z</time>
      </trkpt>
      <trkpt lat="42.381764600" lon="-2.466923800">
        <ele>485.10</ele>
        <time>2012-11-10T10:04:14Z</time>
      </trkpt>
      <trkpt lat="42.381649000" lon="-2.467020500">
        <ele>484.60</ele>
        <time>2012-11-10T10:04:17Z</time>
      </trkpt>
      <trkpt lat="42.381501400" lon="-2.467151900">
        <ele>484.20</ele>
        <time>2012-11-10T10:04:21Z</time>
      </trkpt>
      <trkpt lat="42.381253500" lon="-2.467313800">
        <ele>483.70</ele>
        <time>2012-11-10T10:04:28Z</time>
      </trkpt>
      <trkpt lat="42.380901000" lon="-2.467493200">
        <ele>483.70</ele>
        <time>2012-11-10T10:04:36Z</time>
      </trkpt>
      <trkpt lat="42.380584100" lon="-2.467621900">
        <ele>483.70</ele>
        <time>2012-11-10T10:04:45Z</time>
      </trkpt>
      <trkpt lat="42.380210100" lon="-2.467861200">
        <ele>483.70</ele>
        <time>2012-11-10T10:04:54Z</time>
      </trkpt>
      <trkpt lat="42.379817700" lon="-2.468084500">
        <ele>483.70</ele>
        <time>2012-11-10T10:05:04Z</time>
      </trkpt>
      <trkpt lat="42.379589300" lon="-2.468243300">
        <ele>483.70</ele>
        <time>2012-11-10T10:05:11Z</time>
      </trkpt>
      <trkpt lat="42.379302200" lon="-2.468606100">
        <ele>484.60</ele>
        <time>2012-11-10T10:05:20Z</time>
      </trkpt>
      <trkpt lat="42.379187900" lon="-2.468779000">
        <ele>485.10</ele>
        <time>2012-11-10T10:05:24Z</time>
      </trkpt>
      <trkpt lat="42.378876800" lon="-2.469091600">
        <ele>486.10</ele>
        <time>2012-11-10T10:05:32Z</time>
      </trkpt>
      <trkpt lat="42.378839700" lon="-2.469118000">
        <ele>486.10</ele>
        <time>2012-11-10T10:05:34Z</time>
      </trkpt>
      <trkpt lat="42.378504300" lon="-2.469299600">
        <ele>487.50</ele>
        <time>2012-11-10T10:05:41Z</time>
      </trkpt>
      <trkpt lat="42.378327700" lon="-2.469407900">
        <ele>487.50</ele>
        <time>2012-11-10T10:05:48Z</time>
      </trkpt>
      <trkpt lat="42.378188900" lon="-2.469482700">
        <ele>487.50</ele>
        <time>2012-11-10T10:05:55Z</time>
      </trkpt>
      <trkpt lat="42.378057400" lon="-2.469564800">
        <ele>488.00</ele>
        <time>2012-11-10T10:06:02Z</time>
      </trkpt>
      <trkpt lat="42.377899900" lon="-2.469631900">
        <ele>488.50</ele>
        <time>2012-11-10T10:06:09Z</time>
      </trkpt>
      <trkpt lat="42.377700100" lon="-2.469677400">
        <ele>488.50</ele>
        <time>2012-11-10T10:06:14Z</time>
      </trkpt>
      <trkpt lat="42.377457100" lon="-2.469691900">
        <ele>488.50</ele>
        <time>2012-11-10T10:06:21Z</time>
      </trkpt>
      <trkpt lat="42.377161600" lon="-2.469764300">
        <ele>489.00</ele>
        <time>2012-11-10T10:06:28Z</time>
      </trkpt>
      <trkpt lat="42.376840700" lon="-2.469884200">
        <ele>488.50</ele>
        <time>2012-11-10T10:06:37Z</time>
      </trkpt>
      <trkpt lat="42.376452100" lon="-2.470011900">
        <ele>489.90</ele>
        <time>2012-11-10T10:06:47Z</time>
      </trkpt>
      <trkpt lat="42.376216600" lon="-2.470215700">
        <ele>491.40</ele>
        <time>2012-11-10T10:06:54Z</time>
      </trkpt>
      <trkpt lat="42.376024600" lon="-2.470437200">
        <ele>492.30</ele>
        <time>2012-11-10T10:06:59Z</time>
      </trkpt>
      <trkpt lat="42.375804100" lon="-2.470686700">
        <ele>492.30</ele>
        <time>2012-11-10T10:07:06Z</time>
      </trkpt>
      <trkpt lat="42.375486200" lon="-2.471015900">
        <ele>492.80</ele>
        <time>2012-11-10T10:07:15Z</time>
      </trkpt>
      <trkpt lat="42.375182500" lon="-2.471325700">
        <ele>493.30</ele>
        <time>2012-11-10T10:07:24Z</time>
      </trkpt>
      <trkpt lat="42.374762300" lon="-2.471649200">
        <ele>495.20</ele>
        <time>2012-11-10T10:07:36Z</time>
      </trkpt>
      <trkpt lat="42.374550700" lon="-2.471816800">
        <ele>495.20</ele>
        <time>2012-11-10T10:07:41Z</time>
      </trkpt>
      <trkpt lat="42.374297400" lon="-2.472023600">
        <ele>495.20</ele>
        <time>2012-11-10T10:07:48Z</time>
      </trkpt>
      <trkpt lat="42.373897400" lon="-2.472339800">
        <ele>494.70</ele>
        <time>2012-11-10T10:08:00Z</time>
      </trkpt>
      <trkpt lat="42.373628500" lon="-2.472464800">
        <ele>494.70</ele>
        <time>2012-11-10T10:08:07Z</time>
      </trkpt>
      <trkpt lat="42.373394600" lon="-2.472580000">
        <ele>494.70</ele>
        <time>2012-11-10T10:08:12Z</time>
      </trkpt>
      <trkpt lat="42.373061700" lon="-2.472866400">
        <ele>494.70</ele>
        <time>2012-11-10T10:08:21Z</time>
      </trkpt>
      <trkpt lat="42.372784300" lon="-2.473043300">
        <ele>495.20</ele>
        <time>2012-11-10T10:08:28Z</time>
      </trkpt>
      <trkpt lat="42.372424300" lon="-2.473188600">
        <ele>495.70</ele>
        <time>2012-11-10T10:08:37Z</time>
      </trkpt>
      <trkpt lat="42.372063800" lon="-2.473299600">
        <ele>496.70</ele>
        <time>2012-11-10T10:08:47Z</time>
      </trkpt>
      <trkpt lat="42.372023000" lon="-2.473312100">
        <ele>496.70</ele>
        <time>2012-11-10T10:08:47Z</time>
      </trkpt>
      <trkpt lat="42.371624000" lon="-2.473529200">
        <ele>496.70</ele>
        <time>2012-11-10T10:08:58Z</time>
      </trkpt>
      <trkpt lat="42.371353400" lon="-2.473665800">
        <ele>496.70</ele>
        <time>2012-11-10T10:09:05Z</time>
      </trkpt>
      <trkpt lat="42.371273900" lon="-2.473696600">
        <ele>496.70</ele>
        <time>2012-11-10T10:09:06Z</time>
      </trkpt>
      <trkpt lat="42.371041100" lon="-2.473777700">
        <ele>497.10</ele>
        <time>2012-11-10T10:09:12Z</time>
      </trkpt>
      <trkpt lat="42.370671400" lon="-2.473908000">
        <ele>497.10</ele>
        <time>2012-11-10T10:09:22Z</time>
      </trkpt>
      <trkpt lat="42.370236600" lon="-2.474084300">
        <ele>498.10</ele>
        <time>2012-11-10T10:09:33Z</time>
      </trkpt>
      <trkpt lat="42.369896700" lon="-2.474223100">
        <ele>498.60</ele>
        <time>2012-11-10T10:09:41Z</time>
      </trkpt>
      <trkpt lat="42.369596000" lon="-2.474352700">
        <ele>498.60</ele>
        <time>2012-11-10T10:09:48Z</time>
      </trkpt>
      <trkpt lat="42.369278200" lon="-2.474566000">
        <ele>498.60</ele>
        <time>2012-11-10T10:09:55Z</time>
      </trkpt>
      <trkpt lat="42.369164100" lon="-2.474635600">
        <ele>498.60</ele>
        <time>2012-11-10T10:09:59Z</time>
      </trkpt>
      <trkpt lat="42.368815000" lon="-2.474731000">
        <ele>499.10</ele>
        <time>2012-11-10T10:10:06Z</time>
      </trkpt>
      <trkpt lat="42.368487800" lon="-2.474719900">
        <ele>501.50</ele>
        <time>2012-11-10T10:10:14Z</time>
      </trkpt>
      <trkpt lat="42.368200700" lon="-2.474730300">
        <ele>502.90</ele>
        <time>2012-11-10T10:10:21Z</time>
      </trkpt>
      <trkpt lat="42.367817700" lon="-2.474838700">
        <ele>503.90</ele>
        <time>2012-11-10T10:10:30Z</time>
      </trkpt>
      <trkpt lat="42.367496600" lon="-2.475034000">
        <ele>502.40</ele>
        <time>2012-11-10T10:10:37Z</time>
      </trkpt>
      <trkpt lat="42.367172900" lon="-2.475271500">
        <ele>502.90</ele>
        <time>2012-11-10T10:10:46Z</time>
      </trkpt>
      <trkpt lat="42.366931400" lon="-2.475625200">
        <ele>503.40</ele>
        <time>2012-11-10T10:10:53Z</time>
      </trkpt>
      <trkpt lat="42.366649000" lon="-2.476002200">
        <ele>505.80</ele>
        <time>2012-11-10T10:11:03Z</time>
      </trkpt>
      <trkpt lat="42.366357600" lon="-2.476385900">
        <ele>505.30</ele>
        <time>2012-11-10T10:11:12Z</time>
      </trkpt>
      <trkpt lat="42.366220800" lon="-2.476731300">
        <ele>505.30</ele>
        <time>2012-11-10T10:11:17Z</time>
      </trkpt>
      <trkpt lat="42.366186600" lon="-2.476852200">
        <ele>505.30</ele>
        <time>2012-11-10T10:11:19Z</time>
      </trkpt>
      <trkpt lat="42.366073900" lon="-2.477111000">
        <ele>506.30</ele>
        <time>2012-11-10T10:11:24Z</time>
      </trkpt>
      <trkpt lat="42.365976100" lon="-2.477174400">
        <ele>505.80</ele>
        <time>2012-11-10T10:11:26Z</time>
      </trkpt>
      <trkpt lat="42.365556500" lon="-2.477373800">
        <ele>504.30</ele>
        <time>2012-11-10T10:11:36Z</time>
      </trkpt>
      <trkpt lat="42.365207200" lon="-2.477504700">
        <ele>504.30</ele>
        <time>2012-11-10T10:11:43Z</time>
      </trkpt>
      <trkpt lat="42.364861900" lon="-2.477647600">
        <ele>504.80</ele>
        <time>2012-11-10T10:11:52Z</time>
      </trkpt>
      <trkpt lat="42.364595100" lon="-2.477733000">
        <ele>504.80</ele>
        <time>2012-11-10T10:11:57Z</time>
      </trkpt>
      <trkpt lat="42.364356000" lon="-2.477769300">
        <ele>505.80</ele>
        <time>2012-11-10T10:12:04Z</time>
      </trkpt>
      <trkpt lat="42.364113400" lon="-2.477853500">
        <ele>506.30</ele>
        <time>2012-11-10T10:12:09Z</time>
      </trkpt>
      <trkpt lat="42.363845900" lon="-2.478054800">
        <ele>506.30</ele>
        <time>2012-11-10T10:12:16Z</time>
      </trkpt>
      <trkpt lat="42.363544800" lon="-2.478302400">
        <ele>505.80</ele>
        <time>2012-11-10T10:12:25Z</time>
      </trkpt>
      <trkpt lat="42.363340300" lon="-2.478473400">
        <ele>506.30</ele>
        <time>2012-11-10T10:12:30Z</time>
      </trkpt>
      <trkpt lat="42.363259200" lon="-2.478590900">
        <ele>506.80</ele>
        <time>2012-11-10T10:12:34Z</time>
      </trkpt>
      <trkpt lat="42.363236900" lon="-2.478678600">
        <ele>507.20</ele>
        <time>2012-11-10T10:12:39Z</time>
      </trkpt>
      <trkpt lat="42.363228600" lon="-2.478690500">
        <ele>506.80</ele>
        <time>2012-11-10T10:12:46Z</time>
      </trkpt>
      <trkpt lat="42.363214400" lon="-2.478728900">
        <ele>506.80</ele>
        <time>2012-11-10T10:12:56Z</time>
      </trkpt>
      <trkpt lat="42.363090600" lon="-2.478780500">
        <ele>506.80</ele>
        <time>2012-11-10T10:13:02Z</time>
      </trkpt>
      <trkpt lat="42.362902600" lon="-2.478787700">
        <ele>505.80</ele>
        <time>2012-11-10T10:13:07Z</time>
      </trkpt>
      <trkpt lat="42.362633600" lon="-2.478849800">
        <ele>505.30</ele>
        <time>2012-11-10T10:13:12Z</time>
      </trkpt>
      <trkpt lat="42.362285600" lon="-2.478933200">
        <ele>503.90</ele>
        <time>2012-11-10T10:13:19Z</time>
      </trkpt>
      <trkpt lat="42.362255400" lon="-2.478939600">
        <ele>503.90</ele>
        <time>2012-11-10T10:13:21Z</time>
      </trkpt>
      <trkpt lat="42.362173300" lon="-2.478946900">
        <ele>503.90</ele>
        <time>2012-11-10T10:13:24Z</time>
      </trkpt>
      <trkpt lat="42.361967000" lon="-2.478967600">
        <ele>503.40</ele>
        <time>2012-11-10T10:13:31Z</time>
      </trkpt>
      <trkpt lat="42.361836900" lon="-2.478983800">
        <ele>503.40</ele>
        <time>2012-11-10T10:13:35Z</time>
      </trkpt>
      <trkpt lat="42.361694500" lon="-2.478993500">
        <ele>503.40</ele>
        <time>2012-11-10T10:13:40Z</time>
      </trkpt>
      <trkpt lat="42.361674700" lon="-2.478999600">
        <ele>502.40</ele>
        <time>2012-11-10T10:13:47Z</time>
      </trkpt>
      <trkpt lat="42.361666400" lon="-2.479023100">
        <ele>504.80</ele>
        <time>2012-11-10T10:14:04Z</time>
      </trkpt>
      <trkpt lat="42.361666200" lon="-2.479028300">
        <ele>505.80</ele>
        <time>2012-11-10T10:14:10Z</time>
      </trkpt>
      <trkpt lat="42.361666100" lon="-2.479028900">
        <ele>505.80</ele>
        <time>2012-11-10T10:14:11Z</time>
      </trkpt>
      <trkpt lat="42.361646000" lon="-2.479021700">
        <ele>506.80</ele>
        <time>2012-11-10T10:14:32Z</time>
      </trkpt>
      <trkpt lat="42.361643100" lon="-2.479019300">
        <ele>507.20</ele>
        <time>2012-11-10T10:14:36Z</time>
      </trkpt>
      <trkpt lat="42.361635300" lon="-2.479014800">
        <ele>500.50</ele>
        <time>2012-11-10T10:15:00Z</time>
      </trkpt>
      <trkpt lat="42.361626500" lon="-2.478998600">
        <ele>505.30</ele>
        <time>2012-11-10T10:15:16Z</time>
      </trkpt>
      <trkpt lat="42.361624400" lon="-2.478996700">
        <ele>505.30</ele>
        <time>2012-11-10T10:15:19Z</time>
      </trkpt>
      <trkpt lat="42.361622800" lon="-2.478995400">
        <ele>504.80</ele>
        <time>2012-11-10T10:15:31Z</time>
      </trkpt>
      <trkpt lat="42.361622000" lon="-2.478994700">
        <ele>504.80</ele>
        <time>2012-11-10T10:15:42Z</time>
      </trkpt>
      <trkpt lat="42.361622400" lon="-2.478995000">
        <ele>504.30</ele>
        <time>2012-11-10T10:15:45Z</time>
      </trkpt>
      <trkpt lat="42.361618300" lon="-2.478995400">
        <ele>503.90</ele>
        <time>2012-11-10T10:15:59Z</time>
      </trkpt>
      <trkpt lat="42.361614000" lon="-2.478994700">
        <ele>504.30</ele>
        <time>2012-11-10T10:16:15Z</time>
      </trkpt>
      <trkpt lat="42.361611800" lon="-2.478994900">
        <ele>504.80</ele>
        <time>2012-11-10T10:16:17Z</time>
      </trkpt>
      <trkpt lat="42.361610400" lon="-2.478998000">
        <ele>505.80</ele>
        <time>2012-11-10T10:16:45Z</time>
      </trkpt>
      <trkpt lat="42.361630700" lon="-2.479053800">
        <ele>503.40</ele>
        <time>2012-11-10T10:16:52Z</time>
      </trkpt>
      <trkpt lat="42.361614000" lon="-2.479108300">
        <ele>502.40</ele>
        <time>2012-11-10T10:16:57Z</time>
      </trkpt>
      <trkpt lat="42.361548500" lon="-2.479196900">
        <ele>503.40</ele>
        <time>2012-11-10T10:17:04Z</time>
      </trkpt>
      <trkpt lat="42.361481500" lon="-2.479277600">
        <ele>504.30</ele>
        <time>2012-11-10T10:17:07Z</time>
      </trkpt>
      <trkpt lat="42.361364900" lon="-2.479393900">
        <ele>506.30</ele>
        <time>2012-11-10T10:17:12Z</time>
      </trkpt>
      <trkpt lat="42.361287900" lon="-2.479460600">
        <ele>506.80</ele>
        <time>2012-11-10T10:17:16Z</time>
      </trkpt>
      <trkpt lat="42.361223300" lon="-2.479526700">
        <ele>507.20</ele>
        <time>2012-11-10T10:17:18Z</time>
      </trkpt>
      <trkpt lat="42.361160300" lon="-2.479595800">
        <ele>507.20</ele>
        <time>2012-11-10T10:17:21Z</time>
      </trkpt>
      <trkpt lat="42.360941500" lon="-2.479795800">
        <ele>508.20</ele>
        <time>2012-11-10T10:17:30Z</time>
      </trkpt>
      <trkpt lat="42.360737300" lon="-2.479959400">
        <ele>509.60</ele>
        <time>2012-11-10T10:17:39Z</time>
      </trkpt>
      <trkpt lat="42.360533300" lon="-2.480122300">
        <ele>511.10</ele>
        <time>2012-11-10T10:17:47Z</time>
      </trkpt>
      <trkpt lat="42.360276600" lon="-2.480286700">
        <ele>512.00</ele>
        <time>2012-11-10T10:17:56Z</time>
      </trkpt>
      <trkpt lat="42.360112300" lon="-2.480395200">
        <ele>512.50</ele>
        <time>2012-11-10T10:18:01Z</time>
      </trkpt>
      <trkpt lat="42.359774200" lon="-2.480528600">
        <ele>513.00</ele>
        <time>2012-11-10T10:18:10Z</time>
      </trkpt>
      <trkpt lat="42.359495100" lon="-2.480668600">
        <ele>513.00</ele>
        <time>2012-11-10T10:18:17Z</time>
      </trkpt>
      <trkpt lat="42.359368700" lon="-2.480772200">
        <ele>513.50</ele>
        <time>2012-11-10T10:18:22Z</time>
      </trkpt>
      <trkpt lat="42.359244800" lon="-2.480903500">
        <ele>514.00</ele>
        <time>2012-11-10T10:18:27Z</time>
      </trkpt>
      <trkpt lat="42.359017300" lon="-2.481068200">
        <ele>514.40</ele>
        <time>2012-11-10T10:18:34Z</time>
      </trkpt>
      <trkpt lat="42.358642300" lon="-2.481236400">
        <ele>515.40</ele>
        <time>2012-11-10T10:18:43Z</time>
      </trkpt>
      <trkpt lat="42.358415000" lon="-2.481418300">
        <ele>515.40</ele>
        <time>2012-11-10T10:18:50Z</time>
      </trkpt>
      <trkpt lat="42.358078700" lon="-2.481653400">
        <ele>515.90</ele>
        <time>2012-11-10T10:18:59Z</time>
      </trkpt>
      <trkpt lat="42.358006900" lon="-2.481701100">
        <ele>515.90</ele>
        <time>2012-11-10T10:19:00Z</time>
      </trkpt>
      <trkpt lat="42.357850800" lon="-2.481743000">
        <ele>516.80</ele>
        <time>2012-11-10T10:19:04Z</time>
      </trkpt>
      <trkpt lat="42.357483700" lon="-2.481705800">
        <ele>517.30</ele>
        <time>2012-11-10T10:19:13Z</time>
      </trkpt>
      <trkpt lat="42.357104500" lon="-2.481734900">
        <ele>517.80</ele>
        <time>2012-11-10T10:19:23Z</time>
      </trkpt>
      <trkpt lat="42.356762200" lon="-2.481785400">
        <ele>517.80</ele>
        <time>2012-11-10T10:19:30Z</time>
      </trkpt>
      <trkpt lat="42.356322200" lon="-2.481887700">
        <ele>518.80</ele>
        <time>2012-11-10T10:19:39Z</time>
      </trkpt>
      <trkpt lat="42.356019200" lon="-2.481957400">
        <ele>518.30</ele>
        <time>2012-11-10T10:19:44Z</time>
      </trkpt>
      <trkpt lat="42.355659800" lon="-2.482061700">
        <ele>518.80</ele>
        <time>2012-11-10T10:19:51Z</time>
      </trkpt>
      <trkpt lat="42.355369500" lon="-2.482235100">
        <ele>518.80</ele>
        <time>2012-11-10T10:19:58Z</time>
      </trkpt>
      <trkpt lat="42.355088800" lon="-2.482435400">
        <ele>517.30</ele>
        <time>2012-11-10T10:20:05Z</time>
      </trkpt>
      <trkpt lat="42.354923100" lon="-2.482575000">
        <ele>516.40</ele>
        <time>2012-11-10T10:20:10Z</time>
      </trkpt>
      <trkpt lat="42.354553400" lon="-2.482789300">
        <ele>516.40</ele>
        <time>2012-11-10T10:20:17Z</time>
      </trkpt>
      <trkpt lat="42.354508000" lon="-2.482810600">
        <ele>516.40</ele>
        <time>2012-11-10T10:20:19Z</time>
      </trkpt>
      <trkpt lat="42.354177500" lon="-2.483078300">
        <ele>518.30</ele>
        <time>2012-11-10T10:20:26Z</time>
      </trkpt>
      <trkpt lat="42.353882600" lon="-2.483313700">
        <ele>518.80</ele>
        <time>2012-11-10T10:20:33Z</time>
      </trkpt>
      <trkpt lat="42.353839600" lon="-2.483343100">
        <ele>518.80</ele>
        <time>2012-11-10T10:20:35Z</time>
      </trkpt>
      <trkpt lat="42.353558000" lon="-2.483425100">
        <ele>519.70</ele>
        <time>2012-11-10T10:20:40Z</time>
      </trkpt>
      <trkpt lat="42.353374000" lon="-2.483472600">
        <ele>520.20</ele>
        <time>2012-11-10T10:20:45Z</time>
      </trkpt>
      <trkpt lat="42.353279500" lon="-2.483517700">
        <ele>520.20</ele>
        <time>2012-11-10T10:20:47Z</time>
      </trkpt>
      <trkpt lat="42.352910900" lon="-2.483828400">
        <ele>520.70</ele>
        <time>2012-11-10T10:20:55Z</time>
      </trkpt>
      <trkpt lat="42.352521000" lon="-2.484206100">
        <ele>521.20</ele>
        <time>2012-11-10T10:21:06Z</time>
      </trkpt>
      <trkpt lat="42.352308400" lon="-2.484328300">
        <ele>521.70</ele>
        <time>2012-11-10T10:21:11Z</time>
      </trkpt>
      <trkpt lat="42.352002900" lon="-2.484408700">
        <ele>522.60</ele>
        <time>2012-11-10T10:21:18Z</time>
      </trkpt>
      <trkpt lat="42.351772500" lon="-2.484503700">
        <ele>523.60</ele>
        <time>2012-11-10T10:21:23Z</time>
      </trkpt>
      <trkpt lat="42.351544200" lon="-2.484700600">
        <ele>524.50</ele>
        <time>2012-11-10T10:21:30Z</time>
      </trkpt>
      <trkpt lat="42.351334100" lon="-2.484883500">
        <ele>525.50</ele>
        <time>2012-11-10T10:21:37Z</time>
      </trkpt>
      <trkpt lat="42.351178600" lon="-2.484964100">
        <ele>525.50</ele>
        <time>2012-11-10T10:21:42Z</time>
      </trkpt>
      <trkpt lat="42.350976500" lon="-2.485079100">
        <ele>525.50</ele>
        <time>2012-11-10T10:21:48Z</time>
      </trkpt>
      <trkpt lat="42.350694300" lon="-2.485260800">
        <ele>525.50</ele>
        <time>2012-11-10T10:21:56Z</time>
      </trkpt>
      <trkpt lat="42.350438900" lon="-2.485388400">
        <ele>524.50</ele>
        <time>2012-11-10T10:22:03Z</time>
      </trkpt>
      <trkpt lat="42.350129000" lon="-2.485464400">
        <ele>524.50</ele>
        <time>2012-11-10T10:22:12Z</time>
      </trkpt>
      <trkpt lat="42.349812800" lon="-2.485549300">
        <ele>525.00</ele>
        <time>2012-11-10T10:22:19Z</time>
      </trkpt>
      <trkpt lat="42.349520100" lon="-2.485698900">
        <ele>525.50</ele>
        <time>2012-11-10T10:22:28Z</time>
      </trkpt>
      <trkpt lat="42.349305400" lon="-2.485900600">
        <ele>527.40</ele>
        <time>2012-11-10T10:22:35Z</time>
      </trkpt>
      <trkpt lat="42.349043800" lon="-2.486127700">
        <ele>526.90</ele>
        <time>2012-11-10T10:22:42Z</time>
      </trkpt>
      <trkpt lat="42.348787300" lon="-2.486261200">
        <ele>527.40</ele>
        <time>2012-11-10T10:22:49Z</time>
      </trkpt>
      <trkpt lat="42.348455900" lon="-2.486393700">
        <ele>527.40</ele>
        <time>2012-11-10T10:22:59Z</time>
      </trkpt>
      <trkpt lat="42.348335900" lon="-2.486448400">
        <ele>527.40</ele>
        <time>2012-11-10T10:23:04Z</time>
      </trkpt>
      <trkpt lat="42.348172800" lon="-2.486529800">
        <ele>527.40</ele>
        <time>2012-11-10T10:23:11Z</time>
      </trkpt>
      <trkpt lat="42.348046200" lon="-2.486745800">
        <ele>527.90</ele>
        <time>2012-11-10T10:23:17Z</time>
      </trkpt>
      <trkpt lat="42.347901100" lon="-2.486976300">
        <ele>528.90</ele>
        <time>2012-11-10T10:23:22Z</time>
      </trkpt>
      <trkpt lat="42.347684100" lon="-2.487291500">
        <ele>529.30</ele>
        <time>2012-11-10T10:23:30Z</time>
      </trkpt>
      <trkpt lat="42.347413900" lon="-2.487690700">
        <ele>530.30</ele>
        <time>2012-11-10T10:23:41Z</time>
      </trkpt>
      <trkpt lat="42.347168200" lon="-2.487973800">
        <ele>531.70</ele>
        <time>2012-11-10T10:23:48Z</time>
      </trkpt>
      <trkpt lat="42.346868400" lon="-2.488211600">
        <ele>531.70</ele>
        <time>2012-11-10T10:23:57Z</time>
      </trkpt>
      <trkpt lat="42.346655600" lon="-2.488445800">
        <ele>532.70</ele>
        <time>2012-11-10T10:24:04Z</time>
      </trkpt>
      <trkpt lat="42.346381000" lon="-2.488695700">
        <ele>532.70</ele>
        <time>2012-11-10T10:24:12Z</time>
      </trkpt>
      <trkpt lat="42.346067400" lon="-2.488926800">
        <ele>532.70</ele>
        <time>2012-11-10T10:24:21Z</time>
      </trkpt>
      <trkpt lat="42.345763100" lon="-2.489148400">
        <ele>532.70</ele>
        <time>2012-11-10T10:24:30Z</time>
      </trkpt>
      <trkpt lat="42.345496800" lon="-2.489342200">
        <ele>533.20</ele>
        <time>2012-11-10T10:24:37Z</time>
      </trkpt>
      <trkpt lat="42.345320800" lon="-2.489562700">
        <ele>533.20</ele>
        <time>2012-11-10T10:24:44Z</time>
      </trkpt>
      <trkpt lat="42.345220200" lon="-2.489696800">
        <ele>533.70</ele>
        <time>2012-11-10T10:24:47Z</time>
      </trkpt>
      <trkpt lat="42.344786000" lon="-2.489996400">
        <ele>533.70</ele>
        <time>2012-11-10T10:25:01Z</time>
      </trkpt>
      <trkpt lat="42.344525400" lon="-2.490185400">
        <ele>533.70</ele>
        <time>2012-11-10T10:25:08Z</time>
      </trkpt>
      <trkpt lat="42.344226700" lon="-2.490346500">
        <ele>533.70</ele>
        <time>2012-11-10T10:25:17Z</time>
      </trkpt>
      <trkpt lat="42.343934100" lon="-2.490530300">
        <ele>534.10</ele>
        <time>2012-11-10T10:25:27Z</time>
      </trkpt>
      <trkpt lat="42.343704400" lon="-2.490758900">
        <ele>535.60</ele>
        <time>2012-11-10T10:25:34Z</time>
      </trkpt>
      <trkpt lat="42.343487800" lon="-2.491067200">
        <ele>536.60</ele>
        <time>2012-11-10T10:25:43Z</time>
      </trkpt>
      <trkpt lat="42.343240800" lon="-2.491364400">
        <ele>537.00</ele>
        <time>2012-11-10T10:25:53Z</time>
      </trkpt>
      <trkpt lat="42.343011600" lon="-2.491658000">
        <ele>538.50</ele>
        <time>2012-11-10T10:26:02Z</time>
      </trkpt>
      <trkpt lat="42.342862700" lon="-2.491838700">
        <ele>539.00</ele>
        <time>2012-11-10T10:26:07Z</time>
      </trkpt>
      <trkpt lat="42.342617400" lon="-2.492121000">
        <ele>539.00</ele>
        <time>2012-11-10T10:26:16Z</time>
      </trkpt>
      <trkpt lat="42.342457900" lon="-2.492366000">
        <ele>539.00</ele>
        <time>2012-11-10T10:26:23Z</time>
      </trkpt>
      <trkpt lat="42.342257400" lon="-2.492814600">
        <ele>539.90</ele>
        <time>2012-11-10T10:26:35Z</time>
      </trkpt>
      <trkpt lat="42.342112600" lon="-2.493105900">
        <ele>541.40</ele>
        <time>2012-11-10T10:26:42Z</time>
      </trkpt>
      <trkpt lat="42.341964500" lon="-2.493399700">
        <ele>541.80</ele>
        <time>2012-11-10T10:26:51Z</time>
      </trkpt>
      <trkpt lat="42.341930700" lon="-2.493611400">
        <ele>542.80</ele>
        <time>2012-11-10T10:26:56Z</time>
      </trkpt>
      <trkpt lat="42.341787800" lon="-2.493890600">
        <ele>542.80</ele>
        <time>2012-11-10T10:27:03Z</time>
      </trkpt>
      <trkpt lat="42.341605300" lon="-2.494208800">
        <ele>543.30</ele>
        <time>2012-11-10T10:27:12Z</time>
      </trkpt>
      <trkpt lat="42.341379900" lon="-2.494474000">
        <ele>542.80</ele>
        <time>2012-11-10T10:27:19Z</time>
      </trkpt>
      <trkpt lat="42.341159200" lon="-2.494741200">
        <ele>542.80</ele>
        <time>2012-11-10T10:27:27Z</time>
      </trkpt>
      <trkpt lat="42.341024500" lon="-2.494984100">
        <ele>542.80</ele>
        <time>2012-11-10T10:27:34Z</time>
      </trkpt>
      <trkpt lat="42.340891300" lon="-2.495288500">
        <ele>543.30</ele>
        <time>2012-11-10T10:27:41Z</time>
      </trkpt>
      <trkpt lat="42.340710100" lon="-2.495600000">
        <ele>543.80</ele>
        <time>2012-11-10T10:27:48Z</time>
      </trkpt>
      <trkpt lat="42.340513800" lon="-2.495942600">
        <ele>544.70</ele>
        <time>2012-11-10T10:27:57Z</time>
      </trkpt>
      <trkpt lat="42.340300900" lon="-2.496235200">
        <ele>545.20</ele>
        <time>2012-11-10T10:28:06Z</time>
      </trkpt>
      <trkpt lat="42.340118300" lon="-2.496536500">
        <ele>546.20</ele>
        <time>2012-11-10T10:28:13Z</time>
      </trkpt>
      <trkpt lat="42.340015500" lon="-2.496795100">
        <ele>546.60</ele>
        <time>2012-11-10T10:28:21Z</time>
      </trkpt>
      <trkpt lat="42.339986800" lon="-2.496927000">
        <ele>547.60</ele>
        <time>2012-11-10T10:28:25Z</time>
      </trkpt>
      <trkpt lat="42.339918200" lon="-2.497147200">
        <ele>546.60</ele>
        <time>2012-11-10T10:28:32Z</time>
      </trkpt>
      <trkpt lat="42.339848100" lon="-2.497470400">
        <ele>545.70</ele>
        <time>2012-11-10T10:28:39Z</time>
      </trkpt>
      <trkpt lat="42.339808100" lon="-2.497666500">
        <ele>545.70</ele>
        <time>2012-11-10T10:28:44Z</time>
      </trkpt>
      <trkpt lat="42.339719400" lon="-2.497922300">
        <ele>545.70</ele>
        <time>2012-11-10T10:28:51Z</time>
      </trkpt>
      <trkpt lat="42.339592300" lon="-2.498123300">
        <ele>545.20</ele>
        <time>2012-11-10T10:28:56Z</time>
      </trkpt>
      <trkpt lat="42.339397100" lon="-2.498393800">
        <ele>545.20</ele>
        <time>2012-11-10T10:29:03Z</time>
      </trkpt>
      <trkpt lat="42.339301700" lon="-2.498633400">
        <ele>545.70</ele>
        <time>2012-11-10T10:29:10Z</time>
      </trkpt>
      <trkpt lat="42.339265500" lon="-2.498784300">
        <ele>545.70</ele>
        <time>2012-11-10T10:29:14Z</time>
      </trkpt>
      <trkpt lat="42.339217400" lon="-2.498983500">
        <ele>544.20</ele>
        <time>2012-11-10T10:29:22Z</time>
      </trkpt>
      <trkpt lat="42.339119600" lon="-2.499101700">
        <ele>545.70</ele>
        <time>2012-11-10T10:29:26Z</time>
      </trkpt>
      <trkpt lat="42.339093300" lon="-2.499104600">
        <ele>545.70</ele>
        <time>2012-11-10T10:29:28Z</time>
      </trkpt>
      <trkpt lat="42.338989600" lon="-2.499235300">
        <ele>546.60</ele>
        <time>2012-11-10T10:29:33Z</time>
      </trkpt>
      <trkpt lat="42.338929000" lon="-2.499486000">
        <ele>548.60</ele>
        <time>2012-11-10T10:29:40Z</time>
      </trkpt>
      <trkpt lat="42.338875400" lon="-2.499699300">
        <ele>549.50</ele>
        <time>2012-11-10T10:29:45Z</time>
      </trkpt>
      <trkpt lat="42.338747200" lon="-2.499979700">
        <ele>550.50</ele>
        <time>2012-11-10T10:29:52Z</time>
      </trkpt>
      <trkpt lat="42.338606500" lon="-2.500160400">
        <ele>550.50</ele>
        <time>2012-11-10T10:29:59Z</time>
      </trkpt>
      <trkpt lat="42.338452600" lon="-2.500381200">
        <ele>550.00</ele>
        <time>2012-11-10T10:30:06Z</time>
      </trkpt>
      <trkpt lat="42.338334100" lon="-2.500580900">
        <ele>551.50</ele>
        <time>2012-11-10T10:30:13Z</time>
      </trkpt>
      <trkpt lat="42.338239000" lon="-2.500801200">
        <ele>551.50</ele>
        <time>2012-11-10T10:30:20Z</time>
      </trkpt>
      <trkpt lat="42.338216500" lon="-2.500866600">
        <ele>551.90</ele>
        <time>2012-11-10T10:30:22Z</time>
      </trkpt>
      <trkpt lat="42.338126100" lon="-2.500921100">
        <ele>551.90</ele>
        <time>2012-11-10T10:30:25Z</time>
      </trkpt>
      <trkpt lat="42.337887500" lon="-2.500962000">
        <ele>551.90</ele>
        <time>2012-11-10T10:30:32Z</time>
      </trkpt>
      <trkpt lat="42.337655200" lon="-2.501089600">
        <ele>551.90</ele>
        <time>2012-11-10T10:30:39Z</time>
      </trkpt>
      <trkpt lat="42.337482300" lon="-2.501198400">
        <ele>551.90</ele>
        <time>2012-11-10T10:30:46Z</time>
      </trkpt>
      <trkpt lat="42.337232100" lon="-2.501382600">
        <ele>552.40</ele>
        <time>2012-11-10T10:30:55Z</time>
      </trkpt>
      <trkpt lat="42.337055000" lon="-2.501540800">
        <ele>552.40</ele>
        <time>2012-11-10T10:31:02Z</time>
      </trkpt>
      <trkpt lat="42.336869500" lon="-2.501619500">
        <ele>552.40</ele>
        <time>2012-11-10T10:31:07Z</time>
      </trkpt>
      <trkpt lat="42.336598200" lon="-2.501762600">
        <ele>552.40</ele>
        <time>2012-11-10T10:31:16Z</time>
      </trkpt>
      <trkpt lat="42.336492900" lon="-2.501829500">
        <ele>552.40</ele>
        <time>2012-11-10T10:31:19Z</time>
      </trkpt>
      <trkpt lat="42.336333300" lon="-2.501888300">
        <ele>552.40</ele>
        <time>2012-11-10T10:31:24Z</time>
      </trkpt>
      <trkpt lat="42.336137300" lon="-2.501967600">
        <ele>552.90</ele>
        <time>2012-11-10T10:31:29Z</time>
      </trkpt>
      <trkpt lat="42.335964300" lon="-2.502158000">
        <ele>552.40</ele>
        <time>2012-11-10T10:31:35Z</time>
      </trkpt>
      <trkpt lat="42.335786200" lon="-2.502429900">
        <ele>552.40</ele>
        <time>2012-11-10T10:31:40Z</time>
      </trkpt>
      <trkpt lat="42.335536200" lon="-2.502712700">
        <ele>551.90</ele>
        <time>2012-11-10T10:31:47Z</time>
      </trkpt>
      <trkpt lat="42.335293900" lon="-2.502957500">
        <ele>552.40</ele>
        <time>2012-11-10T10:31:54Z</time>
      </trkpt>
      <trkpt lat="42.335215000" lon="-2.503019100">
        <ele>552.40</ele>
        <time>2012-11-10T10:31:57Z</time>
      </trkpt>
      <trkpt lat="42.334931400" lon="-2.503114200">
        <ele>551.90</ele>
        <time>2012-11-10T10:32:04Z</time>
      </trkpt>
      <trkpt lat="42.334710700" lon="-2.503225500">
        <ele>552.40</ele>
        <time>2012-11-10T10:32:10Z</time>
      </trkpt>
      <trkpt lat="42.334393400" lon="-2.503525500">
        <ele>552.90</ele>
        <time>2012-11-10T10:32:20Z</time>
      </trkpt>
      <trkpt lat="42.334151700" lon="-2.503644700">
        <ele>552.90</ele>
        <time>2012-11-10T10:32:27Z</time>
      </trkpt>
      <trkpt lat="42.333873400" lon="-2.503764000">
        <ele>553.90</ele>
        <time>2012-11-10T10:32:34Z</time>
      </trkpt>
      <trkpt lat="42.333584500" lon="-2.503948100">
        <ele>555.80</ele>
        <time>2012-11-10T10:32:43Z</time>
      </trkpt>
      <trkpt lat="42.333314500" lon="-2.504050600">
        <ele>556.30</ele>
        <time>2012-11-10T10:32:50Z</time>
      </trkpt>
      <trkpt lat="42.333037200" lon="-2.504230300">
        <ele>555.80</ele>
        <time>2012-11-10T10:32:58Z</time>
      </trkpt>
      <trkpt lat="42.332891700" lon="-2.504452600">
        <ele>556.30</ele>
        <time>2012-11-10T10:33:05Z</time>
      </trkpt>
      <trkpt lat="42.332717500" lon="-2.504877200">
        <ele>556.70</ele>
        <time>2012-11-10T10:33:14Z</time>
      </trkpt>
      <trkpt lat="42.332622900" lon="-2.505164900">
        <ele>557.20</ele>
        <time>2012-11-10T10:33:21Z</time>
      </trkpt>
      <trkpt lat="42.332536200" lon="-2.505427900">
        <ele>557.70</ele>
        <time>2012-11-10T10:33:26Z</time>
      </trkpt>
      <trkpt lat="42.332423600" lon="-2.505736600">
        <ele>558.20</ele>
        <time>2012-11-10T10:33:33Z</time>
      </trkpt>
      <trkpt lat="42.332295300" lon="-2.506009900">
        <ele>558.70</ele>
        <time>2012-11-10T10:33:40Z</time>
      </trkpt>
      <trkpt lat="42.332122600" lon="-2.506312600">
        <ele>558.70</ele>
        <time>2012-11-10T10:33:49Z</time>
      </trkpt>
      <trkpt lat="42.332008200" lon="-2.506501400">
        <ele>559.60</ele>
        <time>2012-11-10T10:33:56Z</time>
      </trkpt>
      <trkpt lat="42.331904600" lon="-2.506661800">
        <ele>562.50</ele>
        <time>2012-11-10T10:34:01Z</time>
      </trkpt>
      <trkpt lat="42.331816600" lon="-2.506737800">
        <ele>562.50</ele>
        <time>2012-11-10T10:34:03Z</time>
      </trkpt>
      <trkpt lat="42.331753300" lon="-2.506757500">
        <ele>562.50</ele>
        <time>2012-11-10T10:34:06Z</time>
      </trkpt>
      <trkpt lat="42.331519700" lon="-2.506828700">
        <ele>562.00</ele>
        <time>2012-11-10T10:34:13Z</time>
      </trkpt>
      <trkpt lat="42.331283400" lon="-2.506910400">
        <ele>561.50</ele>
        <time>2012-11-10T10:34:20Z</time>
      </trkpt>
      <trkpt lat="42.330956100" lon="-2.507071800">
        <ele>561.10</ele>
        <time>2012-11-10T10:34:29Z</time>
      </trkpt>
      <trkpt lat="42.330747400" lon="-2.507166300">
        <ele>561.10</ele>
        <time>2012-11-10T10:34:34Z</time>
      </trkpt>
      <trkpt lat="42.330455000" lon="-2.507334000">
        <ele>559.60</ele>
        <time>2012-11-10T10:34:43Z</time>
      </trkpt>
      <trkpt lat="42.330283100" lon="-2.507562400">
        <ele>559.10</ele>
        <time>2012-11-10T10:34:48Z</time>
      </trkpt>
      <trkpt lat="42.330085900" lon="-2.507784900">
        <ele>559.10</ele>
        <time>2012-11-10T10:34:55Z</time>
      </trkpt>
      <trkpt lat="42.329904600" lon="-2.508001300">
        <ele>558.70</ele>
        <time>2012-11-10T10:35:00Z</time>
      </trkpt>
      <trkpt lat="42.329767600" lon="-2.508183200">
        <ele>559.10</ele>
        <time>2012-11-10T10:35:07Z</time>
      </trkpt>
      <trkpt lat="42.329644800" lon="-2.508389800">
        <ele>559.10</ele>
        <time>2012-11-10T10:35:12Z</time>
      </trkpt>
      <trkpt lat="42.329533700" lon="-2.508571200">
        <ele>559.60</ele>
        <time>2012-11-10T10:35:18Z</time>
      </trkpt>
      <trkpt lat="42.329359400" lon="-2.508844000">
        <ele>559.10</ele>
        <time>2012-11-10T10:35:25Z</time>
      </trkpt>
      <trkpt lat="42.329207600" lon="-2.509072800">
        <ele>558.20</ele>
        <time>2012-11-10T10:35:30Z</time>
      </trkpt>
      <trkpt lat="42.329011100" lon="-2.509558700">
        <ele>556.30</ele>
        <time>2012-11-10T10:35:37Z</time>
      </trkpt>
      <trkpt lat="42.328836600" lon="-2.509972800">
        <ele>556.70</ele>
        <time>2012-11-10T10:35:46Z</time>
      </trkpt>
      <trkpt lat="42.328794100" lon="-2.510050000">
        <ele>557.20</ele>
        <time>2012-11-10T10:35:47Z</time>
      </trkpt>
      <trkpt lat="42.328597700" lon="-2.510375300">
        <ele>557.70</ele>
        <time>2012-11-10T10:35:56Z</time>
      </trkpt>
      <trkpt lat="42.328502000" lon="-2.510617300">
        <ele>558.20</ele>
        <time>2012-11-10T10:36:01Z</time>
      </trkpt>
      <trkpt lat="42.328444500" lon="-2.510746700">
        <ele>559.10</ele>
        <time>2012-11-10T10:36:05Z</time>
      </trkpt>
      <trkpt lat="42.328402600" lon="-2.510823300">
        <ele>559.60</ele>
        <time>2012-11-10T10:36:08Z</time>
      </trkpt>
      <trkpt lat="42.328350700" lon="-2.510895900">
        <ele>560.60</ele>
        <time>2012-11-10T10:36:12Z</time>
      </trkpt>
      <trkpt lat="42.328279800" lon="-2.510973400">
        <ele>560.60</ele>
        <time>2012-11-10T10:36:15Z</time>
      </trkpt>
      <trkpt lat="42.328252900" lon="-2.510999100">
        <ele>561.10</ele>
        <time>2012-11-10T10:36:15Z</time>
      </trkpt>
      <trkpt lat="42.328175600" lon="-2.511058200">
        <ele>561.10</ele>
        <time>2012-11-10T10:36:19Z</time>
      </trkpt>
      <trkpt lat="42.328059700" lon="-2.511140600">
        <ele>562.00</ele>
        <time>2012-11-10T10:36:22Z</time>
      </trkpt>
      <trkpt lat="42.327890600" lon="-2.511246800">
        <ele>562.50</ele>
        <time>2012-11-10T10:36:29Z</time>
      </trkpt>
      <trkpt lat="42.327756400" lon="-2.511263600">
        <ele>561.50</ele>
        <time>2012-11-10T10:36:34Z</time>
      </trkpt>
      <trkpt lat="42.327619200" lon="-2.511325500">
        <ele>560.10</ele>
        <time>2012-11-10T10:36:38Z</time>
      </trkpt>
      <trkpt lat="42.327513400" lon="-2.511507200">
        <ele>558.20</ele>
        <time>2012-11-10T10:36:41Z</time>
      </trkpt>
      <trkpt lat="42.327395800" lon="-2.511967500">
        <ele>558.20</ele>
        <time>2012-11-10T10:36:48Z</time>
      </trkpt>
      <trkpt lat="42.327376100" lon="-2.512028100">
        <ele>558.20</ele>
        <time>2012-11-10T10:36:48Z</time>
      </trkpt>
      <trkpt lat="42.327197800" lon="-2.512408100">
        <ele>559.10</ele>
        <time>2012-11-10T10:36:57Z</time>
      </trkpt>
      <trkpt lat="42.327105200" lon="-2.512592800">
        <ele>559.60</ele>
        <time>2012-11-10T10:37:00Z</time>
      </trkpt>
      <trkpt lat="42.326979900" lon="-2.512834300">
        <ele>560.10</ele>
        <time>2012-11-10T10:37:06Z</time>
      </trkpt>
      <trkpt lat="42.326831400" lon="-2.512924100">
        <ele>560.60</ele>
        <time>2012-11-10T10:37:11Z</time>
      </trkpt>
      <trkpt lat="42.326636700" lon="-2.512987100">
        <ele>561.10</ele>
        <time>2012-11-10T10:37:18Z</time>
      </trkpt>
      <trkpt lat="42.326539700" lon="-2.513094900">
        <ele>562.00</ele>
        <time>2012-11-10T10:37:23Z</time>
      </trkpt>
      <trkpt lat="42.326474000" lon="-2.513143400">
        <ele>562.00</ele>
        <time>2012-11-10T10:37:27Z</time>
      </trkpt>
      <trkpt lat="42.326313800" lon="-2.513229000">
        <ele>562.50</ele>
        <time>2012-11-10T10:37:32Z</time>
      </trkpt>
      <trkpt lat="42.326164900" lon="-2.513216700">
        <ele>563.50</ele>
        <time>2012-11-10T10:37:37Z</time>
      </trkpt>
      <trkpt lat="42.326027000" lon="-2.513073800">
        <ele>564.40</ele>
        <time>2012-11-10T10:37:42Z</time>
      </trkpt>
      <trkpt lat="42.325855000" lon="-2.512908600">
        <ele>564.40</ele>
        <time>2012-11-10T10:37:48Z</time>
      </trkpt>
      <trkpt lat="42.325743100" lon="-2.512777400">
        <ele>564.40</ele>
        <time>2012-11-10T10:37:51Z</time>
      </trkpt>
      <trkpt lat="42.325677300" lon="-2.512725700">
        <ele>564.90</ele>
        <time>2012-11-10T10:37:53Z</time>
      </trkpt>
      <trkpt lat="42.325508500" lon="-2.512627100">
        <ele>564.90</ele>
        <time>2012-11-10T10:37:58Z</time>
      </trkpt>
      <trkpt lat="42.325339600" lon="-2.512662500">
        <ele>564.40</ele>
        <time>2012-11-10T10:38:03Z</time>
      </trkpt>
      <trkpt lat="42.325304000" lon="-2.512671100">
        <ele>564.40</ele>
        <time>2012-11-10T10:38:03Z</time>
      </trkpt>
      <trkpt lat="42.325232400" lon="-2.512584700">
        <ele>565.40</ele>
        <time>2012-11-10T10:38:07Z</time>
      </trkpt>
      <trkpt lat="42.325225300" lon="-2.512555300">
        <ele>565.40</ele>
        <time>2012-11-10T10:38:08Z</time>
      </trkpt>
      <trkpt lat="42.325220600" lon="-2.512503000">
        <ele>565.90</ele>
        <time>2012-11-10T10:38:12Z</time>
      </trkpt>
      <trkpt lat="42.325181600" lon="-2.512329600">
        <ele>566.80</ele>
        <time>2012-11-10T10:38:17Z</time>
      </trkpt>
      <trkpt lat="42.325162500" lon="-2.512241100">
        <ele>567.30</ele>
        <time>2012-11-10T10:38:19Z</time>
      </trkpt>
      <trkpt lat="42.325076500" lon="-2.512040600">
        <ele>567.80</ele>
        <time>2012-11-10T10:38:24Z</time>
      </trkpt>
      <trkpt lat="42.325024200" lon="-2.511991200">
        <ele>567.30</ele>
        <time>2012-11-10T10:38:26Z</time>
      </trkpt>
      <trkpt lat="42.324915000" lon="-2.512055100">
        <ele>565.90</ele>
        <time>2012-11-10T10:38:31Z</time>
      </trkpt>
      <trkpt lat="42.324860400" lon="-2.512187600">
        <ele>564.40</ele>
        <time>2012-11-10T10:38:36Z</time>
      </trkpt>
      <trkpt lat="42.324760600" lon="-2.512343600">
        <ele>564.90</ele>
        <time>2012-11-10T10:38:42Z</time>
      </trkpt>
      <trkpt lat="42.324668300" lon="-2.512514300">
        <ele>564.40</ele>
        <time>2012-11-10T10:38:47Z</time>
      </trkpt>
      <trkpt lat="42.324555700" lon="-2.512683200">
        <ele>564.40</ele>
        <time>2012-11-10T10:38:52Z</time>
      </trkpt>
      <trkpt lat="42.324390000" lon="-2.512866100">
        <ele>563.00</ele>
        <time>2012-11-10T10:38:57Z</time>
      </trkpt>
      <trkpt lat="42.324241300" lon="-2.513066900">
        <ele>562.50</ele>
        <time>2012-11-10T10:39:04Z</time>
      </trkpt>
      <trkpt lat="42.324062900" lon="-2.513296000">
        <ele>561.50</ele>
        <time>2012-11-10T10:39:11Z</time>
      </trkpt>
      <trkpt lat="42.323804300" lon="-2.513633600">
        <ele>561.10</ele>
        <time>2012-11-10T10:39:20Z</time>
      </trkpt>
      <trkpt lat="42.323630700" lon="-2.513830500">
        <ele>561.50</ele>
        <time>2012-11-10T10:39:27Z</time>
      </trkpt>
      <trkpt lat="42.323392800" lon="-2.514078100">
        <ele>562.00</ele>
        <time>2012-11-10T10:39:37Z</time>
      </trkpt>
      <trkpt lat="42.323234600" lon="-2.514278900">
        <ele>563.00</ele>
        <time>2012-11-10T10:39:42Z</time>
      </trkpt>
      <trkpt lat="42.323013500" lon="-2.514525700">
        <ele>564.90</ele>
        <time>2012-11-10T10:39:51Z</time>
      </trkpt>
      <trkpt lat="42.322905500" lon="-2.514404500">
        <ele>566.80</ele>
        <time>2012-11-10T10:39:55Z</time>
      </trkpt>
      <trkpt lat="42.322816100" lon="-2.514192000">
        <ele>567.30</ele>
        <time>2012-11-10T10:40:02Z</time>
      </trkpt>
      <trkpt lat="42.322808100" lon="-2.514156200">
        <ele>566.80</ele>
        <time>2012-11-10T10:40:02Z</time>
      </trkpt>
      <trkpt lat="42.322882600" lon="-2.514015500">
        <ele>565.90</ele>
        <time>2012-11-10T10:40:07Z</time>
      </trkpt>
      <trkpt lat="42.323093000" lon="-2.513787300">
        <ele>565.40</ele>
        <time>2012-11-10T10:40:14Z</time>
      </trkpt>
      <trkpt lat="42.323136400" lon="-2.513613500">
        <ele>565.40</ele>
        <time>2012-11-10T10:40:17Z</time>
      </trkpt>
      <trkpt lat="42.323078900" lon="-2.513324700">
        <ele>566.80</ele>
        <time>2012-11-10T10:40:23Z</time>
      </trkpt>
      <trkpt lat="42.322991000" lon="-2.512991200">
        <ele>568.80</ele>
        <time>2012-11-10T10:40:28Z</time>
      </trkpt>
      <trkpt lat="42.322981800" lon="-2.512938500">
        <ele>568.80</ele>
        <time>2012-11-10T10:40:29Z</time>
      </trkpt>
      <trkpt lat="42.322921700" lon="-2.512750600">
        <ele>568.30</ele>
        <time>2012-11-10T10:40:33Z</time>
      </trkpt>
      <trkpt lat="42.322853600" lon="-2.512604500">
        <ele>567.30</ele>
        <time>2012-11-10T10:40:36Z</time>
      </trkpt>
      <trkpt lat="42.322812700" lon="-2.512349800">
        <ele>567.30</ele>
        <time>2012-11-10T10:40:42Z</time>
      </trkpt>
      <trkpt lat="42.322830900" lon="-2.512229200">
        <ele>567.30</ele>
        <time>2012-11-10T10:40:43Z</time>
      </trkpt>
      <trkpt lat="42.322794900" lon="-2.511939200">
        <ele>567.30</ele>
        <time>2012-11-10T10:40:49Z</time>
      </trkpt>
      <trkpt lat="42.322607800" lon="-2.511616900">
        <ele>565.90</ele>
        <time>2012-11-10T10:40:56Z</time>
      </trkpt>
      <trkpt lat="42.322377900" lon="-2.511289900">
        <ele>564.90</ele>
        <time>2012-11-10T10:41:04Z</time>
      </trkpt>
      <trkpt lat="42.322126100" lon="-2.510992800">
        <ele>565.40</ele>
        <time>2012-11-10T10:41:13Z</time>
      </trkpt>
      <trkpt lat="42.321935900" lon="-2.510838400">
        <ele>566.40</ele>
        <time>2012-11-10T10:41:20Z</time>
      </trkpt>
      <trkpt lat="42.321847900" lon="-2.510797400">
        <ele>566.80</ele>
        <time>2012-11-10T10:41:25Z</time>
      </trkpt>
      <trkpt lat="42.321794300" lon="-2.510880300">
        <ele>567.80</ele>
        <time>2012-11-10T10:41:29Z</time>
      </trkpt>
      <trkpt lat="42.321761900" lon="-2.511058300">
        <ele>569.70</ele>
        <time>2012-11-10T10:41:36Z</time>
      </trkpt>
      <trkpt lat="42.321661200" lon="-2.511267500">
        <ele>570.70</ele>
        <time>2012-11-10T10:41:41Z</time>
      </trkpt>
      <trkpt lat="42.321521300" lon="-2.511459600">
        <ele>570.70</ele>
        <time>2012-11-10T10:41:48Z</time>
      </trkpt>
      <trkpt lat="42.321381000" lon="-2.511649900">
        <ele>571.60</ele>
        <time>2012-11-10T10:41:53Z</time>
      </trkpt>
      <trkpt lat="42.321254700" lon="-2.511811000">
        <ele>572.60</ele>
        <time>2012-11-10T10:42:00Z</time>
      </trkpt>
      <trkpt lat="42.321136400" lon="-2.511980400">
        <ele>572.60</ele>
        <time>2012-11-10T10:42:05Z</time>
      </trkpt>
      <trkpt lat="42.320968700" lon="-2.512201500">
        <ele>571.60</ele>
        <time>2012-11-10T10:42:14Z</time>
      </trkpt>
      <trkpt lat="42.320847500" lon="-2.512394800">
        <ele>570.70</ele>
        <time>2012-11-10T10:42:19Z</time>
      </trkpt>
      <trkpt lat="42.320688600" lon="-2.512621600">
        <ele>569.70</ele>
        <time>2012-11-10T10:42:26Z</time>
      </trkpt>
      <trkpt lat="42.320564200" lon="-2.512838600">
        <ele>570.20</ele>
        <time>2012-11-10T10:42:33Z</time>
      </trkpt>
      <trkpt lat="42.320420800" lon="-2.513130100">
        <ele>570.20</ele>
        <time>2012-11-10T10:42:40Z</time>
      </trkpt>
      <trkpt lat="42.320265900" lon="-2.513449300">
        <ele>569.70</ele>
        <time>2012-11-10T10:42:47Z</time>
      </trkpt>
      <trkpt lat="42.320164300" lon="-2.513702000">
        <ele>569.70</ele>
        <time>2012-11-10T10:42:54Z</time>
      </trkpt>
      <trkpt lat="42.320059600" lon="-2.514016400">
        <ele>570.20</ele>
        <time>2012-11-10T10:43:01Z</time>
      </trkpt>
      <trkpt lat="42.319981300" lon="-2.514296700">
        <ele>571.60</ele>
        <time>2012-11-10T10:43:08Z</time>
      </trkpt>
      <trkpt lat="42.319868200" lon="-2.514713000">
        <ele>572.10</ele>
        <time>2012-11-10T10:43:17Z</time>
      </trkpt>
      <trkpt lat="42.319754700" lon="-2.515109000">
        <ele>571.20</ele>
        <time>2012-11-10T10:43:25Z</time>
      </trkpt>
      <trkpt lat="42.319621300" lon="-2.515585000">
        <ele>572.10</ele>
        <time>2012-11-10T10:43:34Z</time>
      </trkpt>
      <trkpt lat="42.319558600" lon="-2.515835100">
        <ele>573.10</ele>
        <time>2012-11-10T10:43:39Z</time>
      </trkpt>
      <trkpt lat="42.319437100" lon="-2.516231000">
        <ele>573.60</ele>
        <time>2012-11-10T10:43:48Z</time>
      </trkpt>
      <trkpt lat="42.319362500" lon="-2.516489100">
        <ele>575.00</ele>
        <time>2012-11-10T10:43:53Z</time>
      </trkpt>
      <trkpt lat="42.319269600" lon="-2.516856200">
        <ele>576.00</ele>
        <time>2012-11-10T10:44:02Z</time>
      </trkpt>
      <trkpt lat="42.319160600" lon="-2.517267000">
        <ele>577.40</ele>
        <time>2012-11-10T10:44:11Z</time>
      </trkpt>
      <trkpt lat="42.319072300" lon="-2.517606500">
        <ele>578.90</ele>
        <time>2012-11-10T10:44:18Z</time>
      </trkpt>
      <trkpt lat="42.318960600" lon="-2.517957900">
        <ele>579.30</ele>
        <time>2012-11-10T10:44:26Z</time>
      </trkpt>
      <trkpt lat="42.318868800" lon="-2.518277800">
        <ele>578.90</ele>
        <time>2012-11-10T10:44:32Z</time>
      </trkpt>
      <trkpt lat="42.318791000" lon="-2.518833700">
        <ele>578.40</ele>
        <time>2012-11-10T10:44:40Z</time>
      </trkpt>
      <trkpt lat="42.318734500" lon="-2.519329200">
        <ele>579.80</ele>
        <time>2012-11-10T10:44:47Z</time>
      </trkpt>
      <trkpt lat="42.318709600" lon="-2.519510200">
        <ele>579.30</ele>
        <time>2012-11-10T10:44:51Z</time>
      </trkpt>
      <trkpt lat="42.318677500" lon="-2.519915800">
        <ele>580.80</ele>
        <time>2012-11-10T10:44:58Z</time>
      </trkpt>
      <trkpt lat="42.318645400" lon="-2.520183200">
        <ele>581.30</ele>
        <time>2012-11-10T10:45:03Z</time>
      </trkpt>
      <trkpt lat="42.318610000" lon="-2.520525200">
        <ele>580.80</ele>
        <time>2012-11-10T10:45:10Z</time>
      </trkpt>
      <trkpt lat="42.318581200" lon="-2.520770400">
        <ele>580.30</ele>
        <time>2012-11-10T10:45:15Z</time>
      </trkpt>
      <trkpt lat="42.318540700" lon="-2.521125600">
        <ele>581.30</ele>
        <time>2012-11-10T10:45:22Z</time>
      </trkpt>
      <trkpt lat="42.318476300" lon="-2.521503100">
        <ele>579.80</ele>
        <time>2012-11-10T10:45:29Z</time>
      </trkpt>
      <trkpt lat="42.318423900" lon="-2.521888300">
        <ele>579.80</ele>
        <time>2012-11-10T10:45:36Z</time>
      </trkpt>
      <trkpt lat="42.318372500" lon="-2.522307500">
        <ele>580.80</ele>
        <time>2012-11-10T10:45:43Z</time>
      </trkpt>
      <trkpt lat="42.318336300" lon="-2.522614000">
        <ele>580.80</ele>
        <time>2012-11-10T10:45:50Z</time>
      </trkpt>
      <trkpt lat="42.318303900" lon="-2.522968600">
        <ele>582.20</ele>
        <time>2012-11-10T10:45:57Z</time>
      </trkpt>
      <trkpt lat="42.318281800" lon="-2.523171100">
        <ele>584.10</ele>
        <time>2012-11-10T10:46:02Z</time>
      </trkpt>
      <trkpt lat="42.318223600" lon="-2.523503500">
        <ele>583.70</ele>
        <time>2012-11-10T10:46:11Z</time>
      </trkpt>
      <trkpt lat="42.318169900" lon="-2.523869600">
        <ele>583.70</ele>
        <time>2012-11-10T10:46:18Z</time>
      </trkpt>
      <trkpt lat="42.318098400" lon="-2.524202700">
        <ele>584.60</ele>
        <time>2012-11-10T10:46:25Z</time>
      </trkpt>
      <trkpt lat="42.317936500" lon="-2.524444900">
        <ele>587.00</ele>
        <time>2012-11-10T10:46:32Z</time>
      </trkpt>
      <trkpt lat="42.317735700" lon="-2.524553500">
        <ele>586.10</ele>
        <time>2012-11-10T10:46:39Z</time>
      </trkpt>
      <trkpt lat="42.317514300" lon="-2.524644900">
        <ele>586.50</ele>
        <time>2012-11-10T10:46:46Z</time>
      </trkpt>
      <trkpt lat="42.317283400" lon="-2.524736000">
        <ele>592.80</ele>
        <time>2012-11-10T10:46:53Z</time>
      </trkpt>
      <trkpt lat="42.317159600" lon="-2.524812500">
        <ele>596.20</ele>
        <time>2012-11-10T10:46:58Z</time>
      </trkpt>
      <trkpt lat="42.317060700" lon="-2.524917900">
        <ele>596.60</ele>
        <time>2012-11-10T10:47:03Z</time>
      </trkpt>
      <trkpt lat="42.316917500" lon="-2.525066900">
        <ele>599.50</ele>
        <time>2012-11-10T10:47:10Z</time>
      </trkpt>
      <trkpt lat="42.316824300" lon="-2.525191200">
        <ele>601.00</ele>
        <time>2012-11-10T10:47:15Z</time>
      </trkpt>
      <trkpt lat="42.316675600" lon="-2.525450600">
        <ele>601.90</ele>
        <time>2012-11-10T10:47:22Z</time>
      </trkpt>
      <trkpt lat="42.316468000" lon="-2.525722200">
        <ele>605.80</ele>
        <time>2012-11-10T10:47:31Z</time>
      </trkpt>
      <trkpt lat="42.316284000" lon="-2.525814600">
        <ele>605.30</ele>
        <time>2012-11-10T10:47:36Z</time>
      </trkpt>
      <trkpt lat="42.316072000" lon="-2.525896000">
        <ele>602.40</ele>
        <time>2012-11-10T10:47:43Z</time>
      </trkpt>
      <trkpt lat="42.315826200" lon="-2.525974500">
        <ele>590.90</ele>
        <time>2012-11-10T10:47:50Z</time>
      </trkpt>
      <trkpt lat="42.315649500" lon="-2.526163900">
        <ele>591.80</ele>
        <time>2012-11-10T10:47:55Z</time>
      </trkpt>
      <trkpt lat="42.315486900" lon="-2.526357200">
        <ele>594.70</ele>
        <time>2012-11-10T10:48:01Z</time>
      </trkpt>
      <trkpt lat="42.315304200" lon="-2.526581900">
        <ele>595.20</ele>
        <time>2012-11-10T10:48:09Z</time>
      </trkpt>
      <trkpt lat="42.315167800" lon="-2.526738100">
        <ele>593.80</ele>
        <time>2012-11-10T10:48:13Z</time>
      </trkpt>
      <trkpt lat="42.314979100" lon="-2.526922500">
        <ele>589.40</ele>
        <time>2012-11-10T10:48:20Z</time>
      </trkpt>
      <trkpt lat="42.314868200" lon="-2.527057700">
        <ele>589.40</ele>
        <time>2012-11-10T10:48:27Z</time>
      </trkpt>
      <trkpt lat="42.314777000" lon="-2.527169900">
        <ele>588.90</ele>
        <time>2012-11-10T10:48:32Z</time>
      </trkpt>
      <trkpt lat="42.314648400" lon="-2.527322300">
        <ele>588.00</ele>
        <time>2012-11-10T10:48:37Z</time>
      </trkpt>
      <trkpt lat="42.314479300" lon="-2.527462800">
        <ele>588.90</ele>
        <time>2012-11-10T10:48:42Z</time>
      </trkpt>
      <trkpt lat="42.314399500" lon="-2.527485500">
        <ele>589.40</ele>
        <time>2012-11-10T10:48:46Z</time>
      </trkpt>
      <trkpt lat="42.314357800" lon="-2.527532600">
        <ele>586.50</ele>
        <time>2012-11-10T10:48:51Z</time>
      </trkpt>
      <trkpt lat="42.314219000" lon="-2.527531000">
        <ele>590.90</ele>
        <time>2012-11-10T10:48:55Z</time>
      </trkpt>
      <trkpt lat="42.314010500" lon="-2.527414000">
        <ele>594.70</ele>
        <time>2012-11-10T10:49:00Z</time>
      </trkpt>
      <trkpt lat="42.313973700" lon="-2.527321000">
        <ele>592.30</ele>
        <time>2012-11-10T10:49:02Z</time>
      </trkpt>
      <trkpt lat="42.313952500" lon="-2.527224900">
        <ele>590.90</ele>
        <time>2012-11-10T10:49:03Z</time>
      </trkpt>
      <trkpt lat="42.313894600" lon="-2.527081500">
        <ele>592.30</ele>
        <time>2012-11-10T10:49:07Z</time>
      </trkpt>
      <trkpt lat="42.313847900" lon="-2.527043500">
        <ele>590.40</ele>
        <time>2012-11-10T10:49:10Z</time>
      </trkpt>
      <trkpt lat="42.313829900" lon="-2.527040100">
        <ele>589.40</ele>
        <time>2012-11-10T10:49:12Z</time>
      </trkpt>
      <trkpt lat="42.313749900" lon="-2.527005200">
        <ele>589.40</ele>
        <time>2012-11-10T10:49:17Z</time>
      </trkpt>
      <trkpt lat="42.313702300" lon="-2.527012600">
        <ele>607.70</ele>
        <time>2012-11-10T10:49:54Z</time>
      </trkpt>
      <trkpt lat="42.313703300" lon="-2.527012600">
        <ele>607.70</ele>
        <time>2012-11-10T10:49:54Z</time>
      </trkpt>
      <trkpt lat="42.313743700" lon="-2.527018100">
        <ele>610.10</ele>
        <time>2012-11-10T10:50:27Z</time>
      </trkpt>
      <trkpt lat="42.313763400" lon="-2.527028700">
        <ele>612.50</ele>
        <time>2012-11-10T10:50:34Z</time>
      </trkpt>
      <trkpt lat="42.313806900" lon="-2.527043200">
        <ele>615.40</ele>
        <time>2012-11-10T10:50:48Z</time>
      </trkpt>
      <trkpt lat="42.313809400" lon="-2.527043600">
        <ele>615.40</ele>
        <time>2012-11-10T10:50:48Z</time>
      </trkpt>
      <trkpt lat="42.313816700" lon="-2.527046300">
        <ele>616.80</ele>
        <time>2012-11-10T10:51:00Z</time>
      </trkpt>
      <trkpt lat="42.313814100" lon="-2.527043100">
        <ele>619.20</ele>
        <time>2012-11-10T10:51:14Z</time>
      </trkpt>
      <trkpt lat="42.313814800" lon="-2.527042400">
        <ele>619.70</ele>
        <time>2012-11-10T10:51:16Z</time>
      </trkpt>
      <trkpt lat="42.313776300" lon="-2.527041100">
        <ele>624.50</ele>
        <time>2012-11-10T10:51:26Z</time>
      </trkpt>
      <trkpt lat="42.313771400" lon="-2.527041000">
        <ele>624.50</ele>
        <time>2012-11-10T10:51:26Z</time>
      </trkpt>
      <trkpt lat="42.313713700" lon="-2.527033900">
        <ele>624.00</ele>
        <time>2012-11-10T10:51:42Z</time>
      </trkpt>
      <trkpt lat="42.313702000" lon="-2.527031800">
        <ele>624.00</ele>
        <time>2012-11-10T10:51:47Z</time>
      </trkpt>
      <trkpt lat="42.313700100" lon="-2.527031500">
        <ele>623.60</ele>
        <time>2012-11-10T10:51:49Z</time>
      </trkpt>
      <trkpt lat="42.313693600" lon="-2.527030100">
        <ele>623.60</ele>
        <time>2012-11-10T10:51:52Z</time>
      </trkpt>
      <trkpt lat="42.313663400" lon="-2.527039000">
        <ele>624.00</ele>
        <time>2012-11-10T10:52:15Z</time>
      </trkpt>
      <trkpt lat="42.313643700" lon="-2.527056600">
        <ele>623.60</ele>
        <time>2012-11-10T10:52:18Z</time>
      </trkpt>
      <trkpt lat="42.313635900" lon="-2.527063600">
        <ele>619.70</ele>
        <time>2012-11-10T10:52:25Z</time>
      </trkpt>
      <trkpt lat="42.313615400" lon="-2.527063400">
        <ele>614.90</ele>
        <time>2012-11-10T10:52:31Z</time>
      </trkpt>
      <trkpt lat="42.313581800" lon="-2.527078300">
        <ele>609.10</ele>
        <time>2012-11-10T10:52:50Z</time>
      </trkpt>
      <trkpt lat="42.313556500" lon="-2.527062900">
        <ele>607.20</ele>
        <time>2012-11-10T10:52:53Z</time>
      </trkpt>
      <trkpt lat="42.313499300" lon="-2.527043400">
        <ele>603.40</ele>
        <time>2012-11-10T10:53:00Z</time>
      </trkpt>
      <trkpt lat="42.313486300" lon="-2.527041100">
        <ele>602.90</ele>
        <time>2012-11-10T10:53:00Z</time>
      </trkpt>
      <trkpt lat="42.313355900" lon="-2.527049400">
        <ele>598.10</ele>
        <time>2012-11-10T10:53:07Z</time>
      </trkpt>
      <trkpt lat="42.313254800" lon="-2.527072200">
        <ele>595.20</ele>
        <time>2012-11-10T10:53:14Z</time>
      </trkpt>
      <trkpt lat="42.313144400" lon="-2.527124300">
        <ele>595.70</ele>
        <time>2012-11-10T10:53:21Z</time>
      </trkpt>
      <trkpt lat="42.313074400" lon="-2.527155500">
        <ele>595.20</ele>
        <time>2012-11-10T10:53:25Z</time>
      </trkpt>
      <trkpt lat="42.313029000" lon="-2.527169600">
        <ele>595.70</ele>
        <time>2012-11-10T10:53:28Z</time>
      </trkpt>
      <trkpt lat="42.312912400" lon="-2.527188800">
        <ele>596.20</ele>
        <time>2012-11-10T10:53:35Z</time>
      </trkpt>
      <trkpt lat="42.312784600" lon="-2.527213000">
        <ele>596.20</ele>
        <time>2012-11-10T10:53:42Z</time>
      </trkpt>
      <trkpt lat="42.312670100" lon="-2.527234800">
        <ele>594.70</ele>
        <time>2012-11-10T10:53:49Z</time>
      </trkpt>
      <trkpt lat="42.312502200" lon="-2.527253800">
        <ele>596.20</ele>
        <time>2012-11-10T10:53:58Z</time>
      </trkpt>
      <trkpt lat="42.312364900" lon="-2.527257600">
        <ele>598.60</ele>
        <time>2012-11-10T10:54:08Z</time>
      </trkpt>
      <trkpt lat="42.312235700" lon="-2.527278700">
        <ele>613.50</ele>
        <time>2012-11-10T10:54:17Z</time>
      </trkpt>
      <trkpt lat="42.312180400" lon="-2.527274600">
        <ele>623.60</ele>
        <time>2012-11-10T10:54:22Z</time>
      </trkpt>
      <trkpt lat="42.312152800" lon="-2.527232800">
        <ele>639.90</ele>
        <time>2012-11-10T10:54:29Z</time>
      </trkpt>
      <trkpt lat="42.312113000" lon="-2.527210500">
        <ele>644.70</ele>
        <time>2012-11-10T10:54:31Z</time>
      </trkpt>
      <trkpt lat="42.312022500" lon="-2.527249400">
        <ele>645.70</ele>
        <time>2012-11-10T10:54:38Z</time>
      </trkpt>
      <trkpt lat="42.311903400" lon="-2.527254700">
        <ele>634.60</ele>
        <time>2012-11-10T10:54:45Z</time>
      </trkpt>
      <trkpt lat="42.311773700" lon="-2.527321800">
        <ele>627.90</ele>
        <time>2012-11-10T10:54:52Z</time>
      </trkpt>
      <trkpt lat="42.311649500" lon="-2.527391800">
        <ele>624.50</ele>
        <time>2012-11-10T10:54:59Z</time>
      </trkpt>
      <trkpt lat="42.311488900" lon="-2.527423900">
        <ele>618.70</ele>
        <time>2012-11-10T10:55:06Z</time>
      </trkpt>
      <trkpt lat="42.311359300" lon="-2.527440500">
        <ele>615.90</ele>
        <time>2012-11-10T10:55:13Z</time>
      </trkpt>
      <trkpt lat="42.311257800" lon="-2.527494800">
        <ele>617.80</ele>
        <time>2012-11-10T10:55:21Z</time>
      </trkpt>
      <trkpt lat="42.311185500" lon="-2.527577200">
        <ele>618.70</ele>
        <time>2012-11-10T10:55:27Z</time>
      </trkpt>
      <trkpt lat="42.311075100" lon="-2.527670900">
        <ele>620.20</ele>
        <time>2012-11-10T10:55:35Z</time>
      </trkpt>
      <trkpt lat="42.310933900" lon="-2.527718500">
        <ele>622.60</ele>
        <time>2012-11-10T10:55:42Z</time>
      </trkpt>
      <trkpt lat="42.310844400" lon="-2.527737500">
        <ele>628.40</ele>
        <time>2012-11-10T10:55:49Z</time>
      </trkpt>
      <trkpt lat="42.310739600" lon="-2.527790600">
        <ele>631.70</ele>
        <time>2012-11-10T10:55:56Z</time>
      </trkpt>
      <trkpt lat="42.310609800" lon="-2.527827400">
        <ele>630.30</ele>
        <time>2012-11-10T10:56:03Z</time>
      </trkpt>
      <trkpt lat="42.310504200" lon="-2.527838100">
        <ele>631.70</ele>
        <time>2012-11-10T10:56:10Z</time>
      </trkpt>
      <trkpt lat="42.310395900" lon="-2.527872400">
        <ele>635.60</ele>
        <time>2012-11-10T10:56:15Z</time>
      </trkpt>
      <trkpt lat="42.310306600" lon="-2.527875100">
        <ele>640.90</ele>
        <time>2012-11-10T10:56:21Z</time>
      </trkpt>
      <trkpt lat="42.310189700" lon="-2.527986300">
        <ele>642.30</ele>
        <time>2012-11-10T10:56:29Z</time>
      </trkpt>
      <trkpt lat="42.310110200" lon="-2.528106900">
        <ele>651.40</ele>
        <time>2012-11-10T10:56:36Z</time>
      </trkpt>
      <trkpt lat="42.309999800" lon="-2.528277400">
        <ele>665.90</ele>
        <time>2012-11-10T10:56:47Z</time>
      </trkpt>
      <trkpt lat="42.309872700" lon="-2.528418400">
        <ele>675.00</ele>
        <time>2012-11-10T10:56:57Z</time>
      </trkpt>
      <trkpt lat="42.309750700" lon="-2.528554100">
        <ele>690.80</ele>
        <time>2012-11-10T10:57:06Z</time>
      </trkpt>
      <trkpt lat="42.309645900" lon="-2.528691000">
        <ele>705.70</ele>
        <time>2012-11-10T10:57:16Z</time>
      </trkpt>
      <trkpt lat="42.309521700" lon="-2.528832200">
        <ele>707.20</ele>
        <time>2012-11-10T10:57:23Z</time>
      </trkpt>
      <trkpt lat="42.309401000" lon="-2.528963500">
        <ele>709.10</ele>
        <time>2012-11-10T10:57:32Z</time>
      </trkpt>
      <trkpt lat="42.309291800" lon="-2.529047100">
        <ele>705.30</ele>
        <time>2012-11-10T10:57:39Z</time>
      </trkpt>
      <trkpt lat="42.309144900" lon="-2.529164900">
        <ele>696.60</ele>
        <time>2012-11-10T10:57:48Z</time>
      </trkpt>
      <trkpt lat="42.309031900" lon="-2.529312800">
        <ele>692.30</ele>
        <time>2012-11-10T10:57:56Z</time>
      </trkpt>
      <trkpt lat="42.309012900" lon="-2.529344200">
        <ele>694.70</ele>
        <time>2012-11-10T10:57:58Z</time>
      </trkpt>
      <trkpt lat="42.308949100" lon="-2.529408300">
        <ele>689.40</ele>
        <time>2012-11-10T10:58:02Z</time>
      </trkpt>
      <trkpt lat="42.308808900" lon="-2.529559200">
        <ele>684.10</ele>
        <time>2012-11-10T10:58:10Z</time>
      </trkpt>
      <trkpt lat="42.308628900" lon="-2.529662600">
        <ele>679.80</ele>
        <time>2012-11-10T10:58:17Z</time>
      </trkpt>
      <trkpt lat="42.308513100" lon="-2.529655800">
        <ele>674.50</ele>
        <time>2012-11-10T10:58:23Z</time>
      </trkpt>
      <trkpt lat="42.308406000" lon="-2.529641200">
        <ele>669.70</ele>
        <time>2012-11-10T10:58:28Z</time>
      </trkpt>
      <trkpt lat="42.308301200" lon="-2.529658800">
        <ele>669.20</ele>
        <time>2012-11-10T10:58:31Z</time>
      </trkpt>
      <trkpt lat="42.308235200" lon="-2.529731000">
        <ele>667.80</ele>
        <time>2012-11-10T10:58:35Z</time>
      </trkpt>
      <trkpt lat="42.308074900" lon="-2.529870800">
        <ele>663.40</ele>
        <time>2012-11-10T10:58:42Z</time>
      </trkpt>
      <trkpt lat="42.308014800" lon="-2.530106700">
        <ele>651.90</ele>
        <time>2012-11-10T10:58:50Z</time>
      </trkpt>
      <trkpt lat="42.308039500" lon="-2.530233200">
        <ele>647.60</ele>
        <time>2012-11-10T10:58:56Z</time>
      </trkpt>
      <trkpt lat="42.308074200" lon="-2.530449900">
        <ele>643.30</ele>
        <time>2012-11-10T10:59:04Z</time>
      </trkpt>
      <trkpt lat="42.308107000" lon="-2.530639500">
        <ele>644.20</ele>
        <time>2012-11-10T10:59:13Z</time>
      </trkpt>
      <trkpt lat="42.308116400" lon="-2.530741000">
        <ele>646.10</ele>
        <time>2012-11-10T10:59:18Z</time>
      </trkpt>
      <trkpt lat="42.308130800" lon="-2.530871500">
        <ele>645.70</ele>
        <time>2012-11-10T10:59:25Z</time>
      </trkpt>
      <trkpt lat="42.308141900" lon="-2.531004600">
        <ele>645.70</ele>
        <time>2012-11-10T10:59:32Z</time>
      </trkpt>
      <trkpt lat="42.308152800" lon="-2.531191800">
        <ele>645.70</ele>
        <time>2012-11-10T10:59:43Z</time>
      </trkpt>
      <trkpt lat="42.308161800" lon="-2.531323400">
        <ele>644.70</ele>
        <time>2012-11-10T10:59:50Z</time>
      </trkpt>
      <trkpt lat="42.308173500" lon="-2.531448800">
        <ele>643.30</ele>
        <time>2012-11-10T10:59:58Z</time>
      </trkpt>
      <trkpt lat="42.308153000" lon="-2.531526500">
        <ele>643.70</ele>
        <time>2012-11-10T11:00:04Z</time>
      </trkpt>
      <trkpt lat="42.308151400" lon="-2.531672000">
        <ele>645.70</ele>
        <time>2012-11-10T11:00:12Z</time>
      </trkpt>
      <trkpt lat="42.308157000" lon="-2.531812400">
        <ele>647.60</ele>
        <time>2012-11-10T11:00:21Z</time>
      </trkpt>
      <trkpt lat="42.308140500" lon="-2.531976400">
        <ele>650.00</ele>
        <time>2012-11-10T11:00:31Z</time>
      </trkpt>
      <trkpt lat="42.308137100" lon="-2.532051000">
        <ele>651.90</ele>
        <time>2012-11-10T11:00:37Z</time>
      </trkpt>
      <trkpt lat="42.308128200" lon="-2.532098300">
        <ele>654.30</ele>
        <time>2012-11-10T11:00:40Z</time>
      </trkpt>
      <trkpt lat="42.308134100" lon="-2.532199000">
        <ele>658.20</ele>
        <time>2012-11-10T11:00:47Z</time>
      </trkpt>
      <trkpt lat="42.308132600" lon="-2.532312100">
        <ele>663.40</ele>
        <time>2012-11-10T11:00:56Z</time>
      </trkpt>
      <trkpt lat="42.308151500" lon="-2.532430600">
        <ele>668.30</ele>
        <time>2012-11-10T11:01:03Z</time>
      </trkpt>
      <trkpt lat="42.308170100" lon="-2.532536400">
        <ele>673.50</ele>
        <time>2012-11-10T11:01:10Z</time>
      </trkpt>
      <trkpt lat="42.308178300" lon="-2.532548400">
        <ele>674.00</ele>
        <time>2012-11-10T11:01:12Z</time>
      </trkpt>
      <trkpt lat="42.308180400" lon="-2.532598600">
        <ele>675.50</ele>
        <time>2012-11-10T11:01:15Z</time>
      </trkpt>
      <trkpt lat="42.308192800" lon="-2.532650500">
        <ele>676.90</ele>
        <time>2012-11-10T11:01:18Z</time>
      </trkpt>
      <trkpt lat="42.308231700" lon="-2.532626700">
        <ele>679.80</ele>
        <time>2012-11-10T11:01:24Z</time>
      </trkpt>
      <trkpt lat="42.308251200" lon="-2.532574600">
        <ele>682.20</ele>
        <time>2012-11-10T11:01:29Z</time>
      </trkpt>
      <trkpt lat="42.308330500" lon="-2.532494500">
        <ele>685.60</ele>
        <time>2012-11-10T11:01:36Z</time>
      </trkpt>
      <trkpt lat="42.308372100" lon="-2.532485300">
        <ele>683.20</ele>
        <time>2012-11-10T11:01:39Z</time>
      </trkpt>
      <trkpt lat="42.308388300" lon="-2.532565100">
        <ele>681.20</ele>
        <time>2012-11-10T11:01:45Z</time>
      </trkpt>
      <trkpt lat="42.308367900" lon="-2.532648800">
        <ele>684.10</ele>
        <time>2012-11-10T11:01:52Z</time>
      </trkpt>
      <trkpt lat="42.308318300" lon="-2.532672600">
        <ele>694.20</ele>
        <time>2012-11-10T11:01:59Z</time>
      </trkpt>
      <trkpt lat="42.308278900" lon="-2.532698900">
        <ele>696.10</ele>
        <time>2012-11-10T11:02:02Z</time>
      </trkpt>
      <trkpt lat="42.308270600" lon="-2.532715200">
        <ele>696.60</ele>
        <time>2012-11-10T11:02:04Z</time>
      </trkpt>
      <trkpt lat="42.308253400" lon="-2.532861400">
        <ele>700.00</ele>
        <time>2012-11-10T11:02:11Z</time>
      </trkpt>
      <trkpt lat="42.308268200" lon="-2.532914400">
        <ele>700.00</ele>
        <time>2012-11-10T11:02:14Z</time>
      </trkpt>
      <trkpt lat="42.308222900" lon="-2.533043700">
        <ele>697.60</ele>
        <time>2012-11-10T11:02:18Z</time>
      </trkpt>
      <trkpt lat="42.308184400" lon="-2.533169600">
        <ele>692.80</ele>
        <time>2012-11-10T11:02:21Z</time>
      </trkpt>
      <trkpt lat="42.308189100" lon="-2.533212000">
        <ele>691.80</ele>
        <time>2012-11-10T11:02:23Z</time>
      </trkpt>
      <trkpt lat="42.308195400" lon="-2.533279700">
        <ele>693.20</ele>
        <time>2012-11-10T11:02:28Z</time>
      </trkpt>
      <trkpt lat="42.308224000" lon="-2.533442500">
        <ele>683.60</ele>
        <time>2012-11-10T11:02:33Z</time>
      </trkpt>
      <trkpt lat="42.308188800" lon="-2.533624900">
        <ele>679.30</ele>
        <time>2012-11-10T11:02:40Z</time>
      </trkpt>
      <trkpt lat="42.308201800" lon="-2.533709600">
        <ele>680.80</ele>
        <time>2012-11-10T11:02:44Z</time>
      </trkpt>
      <trkpt lat="42.308266600" lon="-2.533687100">
        <ele>688.90</ele>
        <time>2012-11-10T11:02:49Z</time>
      </trkpt>
      <trkpt lat="42.308245500" lon="-2.533718700">
        <ele>695.20</ele>
        <time>2012-11-10T11:02:54Z</time>
      </trkpt>
      <trkpt lat="42.308247800" lon="-2.533750000">
        <ele>700.90</ele>
        <time>2012-11-10T11:03:01Z</time>
      </trkpt>
      <trkpt lat="42.308233100" lon="-2.533746300">
        <ele>703.80</ele>
        <time>2012-11-10T11:03:12Z</time>
      </trkpt>
      <trkpt lat="42.308212700" lon="-2.533724900">
        <ele>707.70</ele>
        <time>2012-11-10T11:03:29Z</time>
      </trkpt>
      <trkpt lat="42.308208100" lon="-2.533716500">
        <ele>708.10</ele>
        <time>2012-11-10T11:03:34Z</time>
      </trkpt>
      <trkpt lat="42.308213800" lon="-2.533717400">
        <ele>704.80</ele>
        <time>2012-11-10T11:03:41Z</time>
      </trkpt>
      <trkpt lat="42.308200300" lon="-2.533715400">
        <ele>705.70</ele>
        <time>2012-11-10T11:03:47Z</time>
      </trkpt>
      <trkpt lat="42.308201800" lon="-2.533716800">
        <ele>703.80</ele>
        <time>2012-11-10T11:03:55Z</time>
      </trkpt>
      <trkpt lat="42.308202700" lon="-2.533718600">
        <ele>702.90</ele>
        <time>2012-11-10T11:04:02Z</time>
      </trkpt>
      <trkpt lat="42.308222700" lon="-2.533719400">
        <ele>699.50</ele>
        <time>2012-11-10T11:04:23Z</time>
      </trkpt>
      <trkpt lat="42.308210400" lon="-2.533718700">
        <ele>702.40</ele>
        <time>2012-11-10T11:04:35Z</time>
      </trkpt>
      <trkpt lat="42.308201700" lon="-2.533713700">
        <ele>706.20</ele>
        <time>2012-11-10T11:04:58Z</time>
      </trkpt>
      <trkpt lat="42.308194100" lon="-2.533722000">
        <ele>713.40</ele>
        <time>2012-11-10T11:05:26Z</time>
      </trkpt>
      <trkpt lat="42.308184200" lon="-2.533720500">
        <ele>722.60</ele>
        <time>2012-11-10T11:06:08Z</time>
      </trkpt>
      <trkpt lat="42.308184300" lon="-2.533687500">
        <ele>722.60</ele>
        <time>2012-11-10T11:06:30Z</time>
      </trkpt>
      <trkpt lat="42.308203800" lon="-2.533688900">
        <ele>709.10</ele>
        <time>2012-11-10T11:08:25Z</time>
      </trkpt>
      <trkpt lat="42.308218200" lon="-2.533801500">
        <ele>697.10</ele>
        <time>2012-11-10T11:10:03Z</time>
      </trkpt>
      <trkpt lat="42.308212300" lon="-2.533770400">
        <ele>705.70</ele>
        <time>2012-11-10T11:10:57Z</time>
      </trkpt>
      <trkpt lat="42.308212200" lon="-2.533769100">
        <ele>705.70</ele>
        <time>2012-11-10T11:10:59Z</time>
      </trkpt>
      <trkpt lat="42.308220500" lon="-2.533722700">
        <ele>702.90</ele>
        <time>2012-11-10T11:12:55Z</time>
      </trkpt>
      <trkpt lat="42.308222800" lon="-2.533736000">
        <ele>702.90</ele>
        <time>2012-11-10T11:13:18Z</time>
      </trkpt>
      <trkpt lat="42.308222400" lon="-2.533735200">
        <ele>703.30</ele>
        <time>2012-11-10T11:13:20Z</time>
      </trkpt>
      <trkpt lat="42.308211800" lon="-2.533773800">
        <ele>698.50</ele>
        <time>2012-11-10T11:13:42Z</time>
      </trkpt>
      <trkpt lat="42.308199100" lon="-2.533798100">
        <ele>699.00</ele>
        <time>2012-11-10T11:13:49Z</time>
      </trkpt>
      <trkpt lat="42.308208700" lon="-2.533768900">
        <ele>702.40</ele>
        <time>2012-11-10T11:14:03Z</time>
      </trkpt>
      <trkpt lat="42.308179800" lon="-2.533785800">
        <ele>708.60</ele>
        <time>2012-11-10T11:14:31Z</time>
      </trkpt>
      <trkpt lat="42.308203900" lon="-2.533740900">
        <ele>707.20</ele>
        <time>2012-11-10T11:14:55Z</time>
      </trkpt>
      <trkpt lat="42.308193400" lon="-2.533754200">
        <ele>707.20</ele>
        <time>2012-11-10T11:15:08Z</time>
      </trkpt>
      <trkpt lat="42.308158400" lon="-2.533801200">
        <ele>708.60</ele>
        <time>2012-11-10T11:15:16Z</time>
      </trkpt>
      <trkpt lat="42.308168200" lon="-2.533790600">
        <ele>708.10</ele>
        <time>2012-11-10T11:15:29Z</time>
      </trkpt>
      <trkpt lat="42.308142900" lon="-2.533830000">
        <ele>711.50</ele>
        <time>2012-11-10T11:15:41Z</time>
      </trkpt>
      <trkpt lat="42.308145800" lon="-2.533825400">
        <ele>712.00</ele>
        <time>2012-11-10T11:15:42Z</time>
      </trkpt>
      <trkpt lat="42.308157400" lon="-2.533808200">
        <ele>712.00</ele>
        <time>2012-11-10T11:15:53Z</time>
      </trkpt>
      <trkpt lat="42.308173800" lon="-2.533779800">
        <ele>710.10</ele>
        <time>2012-11-10T11:16:14Z</time>
      </trkpt>
      <trkpt lat="42.308174800" lon="-2.533776400">
        <ele>709.10</ele>
        <time>2012-11-10T11:16:19Z</time>
      </trkpt>
      <trkpt lat="42.308179200" lon="-2.533767800">
        <ele>708.10</ele>
        <time>2012-11-10T11:16:24Z</time>
      </trkpt>
      <trkpt lat="42.308185500" lon="-2.533757200">
        <ele>706.70</ele>
        <time>2012-11-10T11:16:31Z</time>
      </trkpt>
      <trkpt lat="42.308197300" lon="-2.533738800">
        <ele>704.80</ele>
        <time>2012-11-10T11:16:45Z</time>
      </trkpt>
      <trkpt lat="42.308201400" lon="-2.533733900">
        <ele>704.30</ele>
        <time>2012-11-10T11:16:47Z</time>
      </trkpt>
      <trkpt lat="42.308204900" lon="-2.533729500">
        <ele>704.30</ele>
        <time>2012-11-10T11:16:49Z</time>
      </trkpt>
      <trkpt lat="42.308208300" lon="-2.533725200">
        <ele>703.80</ele>
        <time>2012-11-10T11:16:52Z</time>
      </trkpt>
      <trkpt lat="42.308212500" lon="-2.533720100">
        <ele>702.90</ele>
        <time>2012-11-10T11:16:59Z</time>
      </trkpt>
      <trkpt lat="42.308216100" lon="-2.533715300">
        <ele>702.40</ele>
        <time>2012-11-10T11:17:03Z</time>
      </trkpt>
      <trkpt lat="42.308220300" lon="-2.533709900">
        <ele>701.90</ele>
        <time>2012-11-10T11:17:08Z</time>
      </trkpt>
      <trkpt lat="42.308219600" lon="-2.533716900">
        <ele>702.90</ele>
        <time>2012-11-10T11:17:17Z</time>
      </trkpt>
      <trkpt lat="42.308218900" lon="-2.533720200">
        <ele>702.90</ele>
        <time>2012-11-10T11:17:18Z</time>
      </trkpt>
      <trkpt lat="42.308143200" lon="-2.533824200">
        <ele>707.20</ele>
        <time>2012-11-10T11:17:25Z</time>
      </trkpt>
      <trkpt lat="42.308080400" lon="-2.533817000">
        <ele>704.80</ele>
        <time>2012-11-10T11:17:32Z</time>
      </trkpt>
      <trkpt lat="42.308081300" lon="-2.533833000">
        <ele>703.80</ele>
        <time>2012-11-10T11:17:34Z</time>
      </trkpt>
      <trkpt lat="42.308052500" lon="-2.533794000">
        <ele>703.30</ele>
        <time>2012-11-10T11:17:41Z</time>
      </trkpt>
      <trkpt lat="42.308026000" lon="-2.533760000">
        <ele>702.90</ele>
        <time>2012-11-10T11:17:46Z</time>
      </trkpt>
      <trkpt lat="42.307955600" lon="-2.533742700">
        <ele>694.20</ele>
        <time>2012-11-10T11:17:50Z</time>
      </trkpt>
      <trkpt lat="42.307930400" lon="-2.533734700">
        <ele>693.70</ele>
        <time>2012-11-10T11:17:53Z</time>
      </trkpt>
      <trkpt lat="42.307818500" lon="-2.533710400">
        <ele>691.80</ele>
        <time>2012-11-10T11:18:00Z</time>
      </trkpt>
      <trkpt lat="42.307690900" lon="-2.533695600">
        <ele>688.90</ele>
        <time>2012-11-10T11:18:02Z</time>
      </trkpt>
      <trkpt lat="42.307544300" lon="-2.533588400">
        <ele>686.00</ele>
        <time>2012-11-10T11:18:05Z</time>
      </trkpt>
      <trkpt lat="42.307425200" lon="-2.533496900">
        <ele>682.20</ele>
        <time>2012-11-10T11:18:09Z</time>
      </trkpt>
      <trkpt lat="42.307055400" lon="-2.533439200">
        <ele>677.40</ele>
        <time>2012-11-10T11:18:14Z</time>
      </trkpt>
      <trkpt lat="42.306681100" lon="-2.533444300">
        <ele>674.00</ele>
        <time>2012-11-10T11:18:19Z</time>
      </trkpt>
      <trkpt lat="42.306221500" lon="-2.533412900">
        <ele>672.60</ele>
        <time>2012-11-10T11:18:23Z</time>
      </trkpt>
      <trkpt lat="42.306071400" lon="-2.533391600">
        <ele>671.10</ele>
        <time>2012-11-10T11:18:26Z</time>
      </trkpt>
      <trkpt lat="42.305585300" lon="-2.533180900">
        <ele>666.80</ele>
        <time>2012-11-10T11:18:31Z</time>
      </trkpt>
      <trkpt lat="42.304977100" lon="-2.532919800">
        <ele>664.40</ele>
        <time>2012-11-10T11:18:40Z</time>
      </trkpt>
      <trkpt lat="42.304826500" lon="-2.532842500">
        <ele>663.40</ele>
        <time>2012-11-10T11:18:42Z</time>
      </trkpt>
      <trkpt lat="42.304258800" lon="-2.532669600">
        <ele>661.00</ele>
        <time>2012-11-10T11:18:49Z</time>
      </trkpt>
      <trkpt lat="42.304020600" lon="-2.532590300">
        <ele>661.00</ele>
        <time>2012-11-10T11:18:52Z</time>
      </trkpt>
      <trkpt lat="42.303887700" lon="-2.532567000">
        <ele>663.00</ele>
        <time>2012-11-10T11:18:58Z</time>
      </trkpt>
      <trkpt lat="42.303858900" lon="-2.532553000">
        <ele>663.90</ele>
        <time>2012-11-10T11:18:59Z</time>
      </trkpt>
      <trkpt lat="42.303812000" lon="-2.532546600">
        <ele>665.90</ele>
        <time>2012-11-10T11:19:03Z</time>
      </trkpt>
      <trkpt lat="42.303776100" lon="-2.532547400">
        <ele>666.80</ele>
        <time>2012-11-10T11:19:05Z</time>
      </trkpt>
      <trkpt lat="42.303736700" lon="-2.532553900">
        <ele>669.70</ele>
        <time>2012-11-10T11:19:08Z</time>
      </trkpt>
      <trkpt lat="42.303668500" lon="-2.532581700">
        <ele>674.00</ele>
        <time>2012-11-10T11:19:12Z</time>
      </trkpt>
      <trkpt lat="42.303620100" lon="-2.532595600">
        <ele>677.40</ele>
        <time>2012-11-10T11:19:15Z</time>
      </trkpt>
      <trkpt lat="42.303544900" lon="-2.532620700">
        <ele>680.80</ele>
        <time>2012-11-10T11:19:18Z</time>
      </trkpt>
      <trkpt lat="42.303457300" lon="-2.532653400">
        <ele>683.20</ele>
        <time>2012-11-10T11:19:24Z</time>
      </trkpt>
      <trkpt lat="42.303387500" lon="-2.532658100">
        <ele>681.20</ele>
        <time>2012-11-10T11:19:27Z</time>
      </trkpt>
      <trkpt lat="42.303262500" lon="-2.532662300">
        <ele>680.30</ele>
        <time>2012-11-10T11:19:34Z</time>
      </trkpt>
      <trkpt lat="42.303114200" lon="-2.532648700">
        <ele>676.90</ele>
        <time>2012-11-10T11:19:43Z</time>
      </trkpt>
      <trkpt lat="42.303006900" lon="-2.532626500">
        <ele>676.40</ele>
        <time>2012-11-10T11:19:52Z</time>
      </trkpt>
      <trkpt lat="42.302920900" lon="-2.532610600">
        <ele>675.50</ele>
        <time>2012-11-10T11:19:57Z</time>
      </trkpt>
      <trkpt lat="42.302781600" lon="-2.532608000">
        <ele>675.50</ele>
        <time>2012-11-10T11:20:07Z</time>
      </trkpt>
      <trkpt lat="42.302617100" lon="-2.532589900">
        <ele>675.50</ele>
        <time>2012-11-10T11:20:18Z</time>
      </trkpt>
      <trkpt lat="42.302496700" lon="-2.532576500">
        <ele>676.40</ele>
        <time>2012-11-10T11:20:26Z</time>
      </trkpt>
      <trkpt lat="42.302347200" lon="-2.532550900">
        <ele>677.40</ele>
        <time>2012-11-10T11:20:35Z</time>
      </trkpt>
      <trkpt lat="42.302199400" lon="-2.532507400">
        <ele>678.30</ele>
        <time>2012-11-10T11:20:44Z</time>
      </trkpt>
      <trkpt lat="42.302067800" lon="-2.532439200">
        <ele>679.80</ele>
        <time>2012-11-10T11:20:54Z</time>
      </trkpt>
      <trkpt lat="42.301901400" lon="-2.532318000">
        <ele>682.20</ele>
        <time>2012-11-10T11:21:05Z</time>
      </trkpt>
      <trkpt lat="42.301768400" lon="-2.532227600">
        <ele>684.60</ele>
        <time>2012-11-10T11:21:15Z</time>
      </trkpt>
      <trkpt lat="42.301661200" lon="-2.532164000">
        <ele>686.50</ele>
        <time>2012-11-10T11:21:24Z</time>
      </trkpt>
      <trkpt lat="42.301547000" lon="-2.532120600">
        <ele>688.00</ele>
        <time>2012-11-10T11:21:31Z</time>
      </trkpt>
      <trkpt lat="42.301430000" lon="-2.532088400">
        <ele>688.00</ele>
        <time>2012-11-10T11:21:38Z</time>
      </trkpt>
      <trkpt lat="42.301286000" lon="-2.532025000">
        <ele>689.90</ele>
        <time>2012-11-10T11:21:48Z</time>
      </trkpt>
      <trkpt lat="42.301181500" lon="-2.531983400">
        <ele>690.80</ele>
        <time>2012-11-10T11:21:55Z</time>
      </trkpt>
      <trkpt lat="42.301019900" lon="-2.531930200">
        <ele>693.70</ele>
        <time>2012-11-10T11:22:06Z</time>
      </trkpt>
      <trkpt lat="42.300824900" lon="-2.531859500">
        <ele>696.10</ele>
        <time>2012-11-10T11:22:18Z</time>
      </trkpt>
      <trkpt lat="42.300647300" lon="-2.531789600">
        <ele>697.10</ele>
        <time>2012-11-10T11:22:30Z</time>
      </trkpt>
      <trkpt lat="42.300497900" lon="-2.531756300">
        <ele>698.50</ele>
        <time>2012-11-10T11:22:37Z</time>
      </trkpt>
      <trkpt lat="42.300369800" lon="-2.531712000">
        <ele>699.50</ele>
        <time>2012-11-10T11:22:46Z</time>
      </trkpt>
      <trkpt lat="42.300256700" lon="-2.531672700">
        <ele>700.50</ele>
        <time>2012-11-10T11:22:53Z</time>
      </trkpt>
      <trkpt lat="42.300102100" lon="-2.531615000">
        <ele>701.90</ele>
        <time>2012-11-10T11:23:03Z</time>
      </trkpt>
      <trkpt lat="42.299955500" lon="-2.531556200">
        <ele>703.80</ele>
        <time>2012-11-10T11:23:12Z</time>
      </trkpt>
      <trkpt lat="42.299818500" lon="-2.531490300">
        <ele>705.70</ele>
        <time>2012-11-10T11:23:19Z</time>
      </trkpt>
      <trkpt lat="42.299660100" lon="-2.531384900">
        <ele>707.70</ele>
        <time>2012-11-10T11:23:29Z</time>
      </trkpt>
      <trkpt lat="42.299524400" lon="-2.531243500">
        <ele>708.60</ele>
        <time>2012-11-10T11:23:36Z</time>
      </trkpt>
      <trkpt lat="42.299371100" lon="-2.531047000">
        <ele>711.50</ele>
        <time>2012-11-10T11:23:47Z</time>
      </trkpt>
      <trkpt lat="42.299234700" lon="-2.530891600">
        <ele>714.40</ele>
        <time>2012-11-10T11:23:55Z</time>
      </trkpt>
      <trkpt lat="42.299071400" lon="-2.530761500">
        <ele>715.40</ele>
        <time>2012-11-10T11:24:04Z</time>
      </trkpt>
      <trkpt lat="42.298868900" lon="-2.530654200">
        <ele>714.40</ele>
        <time>2012-11-10T11:24:13Z</time>
      </trkpt>
      <trkpt lat="42.298680600" lon="-2.530562200">
        <ele>715.40</ele>
        <time>2012-11-10T11:24:22Z</time>
      </trkpt>
      <trkpt lat="42.298446300" lon="-2.530486800">
        <ele>713.40</ele>
        <time>2012-11-10T11:24:30Z</time>
      </trkpt>
      <trkpt lat="42.298204000" lon="-2.530413200">
        <ele>712.00</ele>
        <time>2012-11-10T11:24:37Z</time>
      </trkpt>
      <trkpt lat="42.297980800" lon="-2.530352200">
        <ele>712.50</ele>
        <time>2012-11-10T11:24:46Z</time>
      </trkpt>
      <trkpt lat="42.297767800" lon="-2.530251600">
        <ele>715.40</ele>
        <time>2012-11-10T11:24:55Z</time>
      </trkpt>
      <trkpt lat="42.297577000" lon="-2.530126200">
        <ele>718.70</ele>
        <time>2012-11-10T11:25:05Z</time>
      </trkpt>
      <trkpt lat="42.297396800" lon="-2.529957000">
        <ele>720.60</ele>
        <time>2012-11-10T11:25:12Z</time>
      </trkpt>
      <trkpt lat="42.297188200" lon="-2.529798300">
        <ele>720.20</ele>
        <time>2012-11-10T11:25:21Z</time>
      </trkpt>
      <trkpt lat="42.297037300" lon="-2.529686300">
        <ele>719.70</ele>
        <time>2012-11-10T11:25:26Z</time>
      </trkpt>
      <trkpt lat="42.296827100" lon="-2.529511300">
        <ele>719.20</ele>
        <time>2012-11-10T11:25:35Z</time>
      </trkpt>
      <trkpt lat="42.296667600" lon="-2.529329200">
        <ele>720.20</ele>
        <time>2012-11-10T11:25:40Z</time>
      </trkpt>
      <trkpt lat="42.296474900" lon="-2.529114700">
        <ele>723.00</ele>
        <time>2012-11-10T11:25:49Z</time>
      </trkpt>
      <trkpt lat="42.296325300" lon="-2.528951400">
        <ele>724.50</ele>
        <time>2012-11-10T11:25:56Z</time>
      </trkpt>
      <trkpt lat="42.296101500" lon="-2.528714800">
        <ele>725.90</ele>
        <time>2012-11-10T11:26:06Z</time>
      </trkpt>
      <trkpt lat="42.295941400" lon="-2.528548300">
        <ele>726.40</ele>
        <time>2012-11-10T11:26:15Z</time>
      </trkpt>
      <trkpt lat="42.295733100" lon="-2.528379100">
        <ele>726.40</ele>
        <time>2012-11-10T11:26:23Z</time>
      </trkpt>
      <trkpt lat="42.295578300" lon="-2.528279500">
        <ele>728.30</ele>
        <time>2012-11-10T11:26:30Z</time>
      </trkpt>
      <trkpt lat="42.295422900" lon="-2.528243800">
        <ele>729.80</ele>
        <time>2012-11-10T11:26:37Z</time>
      </trkpt>
      <trkpt lat="42.295173500" lon="-2.528254700">
        <ele>728.30</ele>
        <time>2012-11-10T11:26:46Z</time>
      </trkpt>
      <trkpt lat="42.294966100" lon="-2.528229600">
        <ele>728.80</ele>
        <time>2012-11-10T11:26:55Z</time>
      </trkpt>
      <trkpt lat="42.294779500" lon="-2.528190900">
        <ele>729.80</ele>
        <time>2012-11-10T11:27:02Z</time>
      </trkpt>
      <trkpt lat="42.294544100" lon="-2.528132600">
        <ele>729.30</ele>
        <time>2012-11-10T11:27:12Z</time>
      </trkpt>
      <trkpt lat="42.294315900" lon="-2.528134200">
        <ele>730.30</ele>
        <time>2012-11-10T11:27:21Z</time>
      </trkpt>
      <trkpt lat="42.294150600" lon="-2.528185200">
        <ele>729.30</ele>
        <time>2012-11-10T11:27:28Z</time>
      </trkpt>
      <trkpt lat="42.293982900" lon="-2.528228900">
        <ele>729.30</ele>
        <time>2012-11-10T11:27:35Z</time>
      </trkpt>
      <trkpt lat="42.293849500" lon="-2.528245700">
        <ele>730.70</ele>
        <time>2012-11-10T11:27:42Z</time>
      </trkpt>
      <trkpt lat="42.293626900" lon="-2.528294100">
        <ele>731.70</ele>
        <time>2012-11-10T11:27:52Z</time>
      </trkpt>
      <trkpt lat="42.293463200" lon="-2.528327600">
        <ele>733.10</ele>
        <time>2012-11-10T11:28:01Z</time>
      </trkpt>
      <trkpt lat="42.293291400" lon="-2.528352700">
        <ele>735.10</ele>
        <time>2012-11-10T11:28:10Z</time>
      </trkpt>
      <trkpt lat="42.293186900" lon="-2.528359700">
        <ele>737.00</ele>
        <time>2012-11-10T11:28:17Z</time>
      </trkpt>
      <trkpt lat="42.293040100" lon="-2.528343900">
        <ele>738.90</ele>
        <time>2012-11-10T11:28:24Z</time>
      </trkpt>
      <trkpt lat="42.292874400" lon="-2.528318800">
        <ele>741.30</ele>
        <time>2012-11-10T11:28:34Z</time>
      </trkpt>
      <trkpt lat="42.292734800" lon="-2.528268200">
        <ele>744.20</ele>
        <time>2012-11-10T11:28:43Z</time>
      </trkpt>
      <trkpt lat="42.292576500" lon="-2.528226000">
        <ele>746.10</ele>
        <time>2012-11-10T11:28:52Z</time>
      </trkpt>
      <trkpt lat="42.292402300" lon="-2.528172200">
        <ele>747.60</ele>
        <time>2012-11-10T11:29:00Z</time>
      </trkpt>
      <trkpt lat="42.292216400" lon="-2.528121700">
        <ele>748.50</ele>
        <time>2012-11-10T11:29:11Z</time>
      </trkpt>
      <trkpt lat="42.292061900" lon="-2.528030900">
        <ele>750.00</ele>
        <time>2012-11-10T11:29:19Z</time>
      </trkpt>
      <trkpt lat="42.291972400" lon="-2.528042800">
        <ele>749.50</ele>
        <time>2012-11-10T11:29:23Z</time>
      </trkpt>
      <trkpt lat="42.291862300" lon="-2.527952000">
        <ele>750.90</ele>
        <time>2012-11-10T11:29:30Z</time>
      </trkpt>
      <trkpt lat="42.291725300" lon="-2.527759300">
        <ele>753.30</ele>
        <time>2012-11-10T11:29:42Z</time>
      </trkpt>
      <trkpt lat="42.291648700" lon="-2.527660700">
        <ele>753.80</ele>
        <time>2012-11-10T11:29:47Z</time>
      </trkpt>
      <trkpt lat="42.291563600" lon="-2.527532700">
        <ele>753.30</ele>
        <time>2012-11-10T11:29:54Z</time>
      </trkpt>
      <trkpt lat="42.291488300" lon="-2.527423100">
        <ele>752.80</ele>
        <time>2012-11-10T11:30:01Z</time>
      </trkpt>
      <trkpt lat="42.291406700" lon="-2.527317500">
        <ele>752.40</ele>
        <time>2012-11-10T11:30:06Z</time>
      </trkpt>
      <trkpt lat="42.291301800" lon="-2.527212400">
        <ele>752.80</ele>
        <time>2012-11-10T11:30:13Z</time>
      </trkpt>
      <trkpt lat="42.291160800" lon="-2.527099100">
        <ele>754.30</ele>
        <time>2012-11-10T11:30:22Z</time>
      </trkpt>
      <trkpt lat="42.291027300" lon="-2.526994300">
        <ele>756.20</ele>
        <time>2012-11-10T11:30:31Z</time>
      </trkpt>
      <trkpt lat="42.290808100" lon="-2.526881500">
        <ele>756.20</ele>
        <time>2012-11-10T11:30:41Z</time>
      </trkpt>
      <trkpt lat="42.290670700" lon="-2.526852000">
        <ele>757.20</ele>
        <time>2012-11-10T11:30:48Z</time>
      </trkpt>
      <trkpt lat="42.290481600" lon="-2.526843600">
        <ele>758.10</ele>
        <time>2012-11-10T11:30:57Z</time>
      </trkpt>
      <trkpt lat="42.290247500" lon="-2.526830000">
        <ele>758.60</ele>
        <time>2012-11-10T11:31:06Z</time>
      </trkpt>
      <trkpt lat="42.290071300" lon="-2.526809100">
        <ele>759.10</ele>
        <time>2012-11-10T11:31:13Z</time>
      </trkpt>
      <trkpt lat="42.289877800" lon="-2.526764900">
        <ele>759.10</ele>
        <time>2012-11-10T11:31:21Z</time>
      </trkpt>
      <trkpt lat="42.289694900" lon="-2.526705000">
        <ele>760.10</ele>
        <time>2012-11-10T11:31:28Z</time>
      </trkpt>
      <trkpt lat="42.289553200" lon="-2.526642600">
        <ele>760.50</ele>
        <time>2012-11-10T11:31:35Z</time>
      </trkpt>
      <trkpt lat="42.289373200" lon="-2.526559600">
        <ele>760.10</ele>
        <time>2012-11-10T11:31:42Z</time>
      </trkpt>
      <trkpt lat="42.289193300" lon="-2.526514800">
        <ele>760.10</ele>
        <time>2012-11-10T11:31:48Z</time>
      </trkpt>
      <trkpt lat="42.289022400" lon="-2.526533400">
        <ele>760.50</ele>
        <time>2012-11-10T11:31:53Z</time>
      </trkpt>
      <trkpt lat="42.288805300" lon="-2.526647700">
        <ele>760.50</ele>
        <time>2012-11-10T11:32:00Z</time>
      </trkpt>
      <trkpt lat="42.288592000" lon="-2.526801400">
        <ele>762.00</ele>
        <time>2012-11-10T11:32:08Z</time>
      </trkpt>
      <trkpt lat="42.288322500" lon="-2.527008800">
        <ele>763.90</ele>
        <time>2012-11-10T11:32:19Z</time>
      </trkpt>
      <trkpt lat="42.288179900" lon="-2.527112000">
        <ele>764.40</ele>
        <time>2012-11-10T11:32:26Z</time>
      </trkpt>
      <trkpt lat="42.288006500" lon="-2.527240500">
        <ele>765.30</ele>
        <time>2012-11-10T11:32:33Z</time>
      </trkpt>
      <trkpt lat="42.287862400" lon="-2.527349400">
        <ele>767.80</ele>
        <time>2012-11-10T11:32:40Z</time>
      </trkpt>
      <trkpt lat="42.287770300" lon="-2.527398900">
        <ele>769.20</ele>
        <time>2012-11-10T11:32:47Z</time>
      </trkpt>
      <trkpt lat="42.287758200" lon="-2.527404700">
        <ele>769.20</ele>
        <time>2012-11-10T11:32:47Z</time>
      </trkpt>
      <trkpt lat="42.287743100" lon="-2.527405500">
        <ele>768.20</ele>
        <time>2012-11-10T11:33:01Z</time>
      </trkpt>
      <trkpt lat="42.287703300" lon="-2.527394500">
        <ele>767.80</ele>
        <time>2012-11-10T11:33:09Z</time>
      </trkpt>
      <trkpt lat="42.287682000" lon="-2.527401900">
        <ele>768.20</ele>
        <time>2012-11-10T11:33:15Z</time>
      </trkpt>
      <trkpt lat="42.287680200" lon="-2.527428200">
        <ele>770.20</ele>
        <time>2012-11-10T11:33:30Z</time>
      </trkpt>
      <trkpt lat="42.287679500" lon="-2.527431400">
        <ele>770.20</ele>
        <time>2012-11-10T11:33:32Z</time>
      </trkpt>
      <trkpt lat="42.287664400" lon="-2.527475800">
        <ele>771.60</ele>
        <time>2012-11-10T11:33:39Z</time>
      </trkpt>
      <trkpt lat="42.287665300" lon="-2.527479000">
        <ele>773.00</ele>
        <time>2012-11-10T11:33:46Z</time>
      </trkpt>
      <trkpt lat="42.287675700" lon="-2.527479300">
        <ele>775.00</ele>
        <time>2012-11-10T11:33:55Z</time>
      </trkpt>
      <trkpt lat="42.287698800" lon="-2.527490300">
        <ele>778.80</ele>
        <time>2012-11-10T11:34:12Z</time>
      </trkpt>
      <trkpt lat="42.287706800" lon="-2.527498000">
        <ele>778.80</ele>
        <time>2012-11-10T11:34:17Z</time>
      </trkpt>
      <trkpt lat="42.287700500" lon="-2.527496900">
        <ele>777.40</ele>
        <time>2012-11-10T11:34:35Z</time>
      </trkpt>
      <trkpt lat="42.287674300" lon="-2.527491800">
        <ele>773.00</ele>
        <time>2012-11-10T11:34:57Z</time>
      </trkpt>
      <trkpt lat="42.287651700" lon="-2.527488700">
        <ele>768.70</ele>
        <time>2012-11-10T11:35:13Z</time>
      </trkpt>
      <trkpt lat="42.287647600" lon="-2.527488900">
        <ele>768.20</ele>
        <time>2012-11-10T11:35:17Z</time>
      </trkpt>
      <trkpt lat="42.287641200" lon="-2.527492500">
        <ele>767.80</ele>
        <time>2012-11-10T11:35:22Z</time>
      </trkpt>
      <trkpt lat="42.287621100" lon="-2.527486800">
        <ele>765.80</ele>
        <time>2012-11-10T11:35:37Z</time>
      </trkpt>
      <trkpt lat="42.287618100" lon="-2.527485500">
        <ele>767.30</ele>
        <time>2012-11-10T11:35:46Z</time>
      </trkpt>
      <trkpt lat="42.287613600" lon="-2.527510100">
        <ele>764.90</ele>
        <time>2012-11-10T11:35:50Z</time>
      </trkpt>
      <trkpt lat="42.287610600" lon="-2.527509300">
        <ele>764.90</ele>
        <time>2012-11-10T11:36:00Z</time>
      </trkpt>
      <trkpt lat="42.287609100" lon="-2.527514900">
        <ele>764.90</ele>
        <time>2012-11-10T11:36:09Z</time>
      </trkpt>
      <trkpt lat="42.287604600" lon="-2.527515800">
        <ele>765.30</ele>
        <time>2012-11-10T11:36:17Z</time>
      </trkpt>
      <trkpt lat="42.287614400" lon="-2.527500600">
        <ele>764.90</ele>
        <time>2012-11-10T11:36:35Z</time>
      </trkpt>
      <trkpt lat="42.287615500" lon="-2.527501800">
        <ele>764.90</ele>
        <time>2012-11-10T11:36:37Z</time>
      </trkpt>
      <trkpt lat="42.287613400" lon="-2.527509800">
        <ele>763.90</ele>
        <time>2012-11-10T11:36:40Z</time>
      </trkpt>
      <trkpt lat="42.287611800" lon="-2.527509500">
        <ele>763.90</ele>
        <time>2012-11-10T11:36:42Z</time>
      </trkpt>
      <trkpt lat="42.287564300" lon="-2.527557800">
        <ele>765.80</ele>
        <time>2012-11-10T11:37:11Z</time>
      </trkpt>
      <trkpt lat="42.287593400" lon="-2.527529100">
        <ele>765.30</ele>
        <time>2012-11-10T11:37:15Z</time>
      </trkpt>
      <trkpt lat="42.287604300" lon="-2.527525900">
        <ele>765.30</ele>
        <time>2012-11-10T11:37:17Z</time>
      </trkpt>
      <trkpt lat="42.287660300" lon="-2.527508500">
        <ele>764.90</ele>
        <time>2012-11-10T11:37:22Z</time>
      </trkpt>
      <trkpt lat="42.287670000" lon="-2.527498400">
        <ele>764.40</ele>
        <time>2012-11-10T11:37:24Z</time>
      </trkpt>
      <trkpt lat="42.287774800" lon="-2.527436800">
        <ele>763.90</ele>
        <time>2012-11-10T11:37:29Z</time>
      </trkpt>
      <trkpt lat="42.287836800" lon="-2.527399900">
        <ele>763.90</ele>
        <time>2012-11-10T11:37:31Z</time>
      </trkpt>
      <trkpt lat="42.287915100" lon="-2.527325100">
        <ele>762.90</ele>
        <time>2012-11-10T11:37:36Z</time>
      </trkpt>
      <trkpt lat="42.287940000" lon="-2.527305100">
        <ele>762.90</ele>
        <time>2012-11-10T11:37:36Z</time>
      </trkpt>
      <trkpt lat="42.288171100" lon="-2.527128800">
        <ele>762.50</ele>
        <time>2012-11-10T11:37:45Z</time>
      </trkpt>
      <trkpt lat="42.288429300" lon="-2.526927700">
        <ele>760.10</ele>
        <time>2012-11-10T11:37:52Z</time>
      </trkpt>
      <trkpt lat="42.288720900" lon="-2.526693900">
        <ele>759.60</ele>
        <time>2012-11-10T11:38:00Z</time>
      </trkpt>
      <trkpt lat="42.288797900" lon="-2.526635100">
        <ele>759.60</ele>
        <time>2012-11-10T11:38:02Z</time>
      </trkpt>
      <trkpt lat="42.289006500" lon="-2.526542600">
        <ele>760.50</ele>
        <time>2012-11-10T11:38:07Z</time>
      </trkpt>
      <trkpt lat="42.289193300" lon="-2.526534000">
        <ele>762.00</ele>
        <time>2012-11-10T11:38:11Z</time>
      </trkpt>
      <trkpt lat="42.289308000" lon="-2.526564100">
        <ele>763.40</ele>
        <time>2012-11-10T11:38:14Z</time>
      </trkpt>
      <trkpt lat="42.289436800" lon="-2.526642200">
        <ele>762.50</ele>
        <time>2012-11-10T11:38:18Z</time>
      </trkpt>
      <trkpt lat="42.289776300" lon="-2.526788900">
        <ele>758.10</ele>
        <time>2012-11-10T11:38:28Z</time>
      </trkpt>
      <trkpt lat="42.290021800" lon="-2.526838800">
        <ele>756.20</ele>
        <time>2012-11-10T11:38:33Z</time>
      </trkpt>
      <trkpt lat="42.290391900" lon="-2.526863600">
        <ele>754.80</ele>
        <time>2012-11-10T11:38:39Z</time>
      </trkpt>
      <trkpt lat="42.290645200" lon="-2.526878500">
        <ele>753.80</ele>
        <time>2012-11-10T11:38:42Z</time>
      </trkpt>
      <trkpt lat="42.290897500" lon="-2.526960600">
        <ele>753.30</ele>
        <time>2012-11-10T11:38:47Z</time>
      </trkpt>
      <trkpt lat="42.291148800" lon="-2.527132200">
        <ele>751.90</ele>
        <time>2012-11-10T11:38:51Z</time>
      </trkpt>
      <trkpt lat="42.291466800" lon="-2.527422100">
        <ele>750.00</ele>
        <time>2012-11-10T11:38:56Z</time>
      </trkpt>
      <trkpt lat="42.291728000" lon="-2.527876000">
        <ele>746.10</ele>
        <time>2012-11-10T11:39:01Z</time>
      </trkpt>
      <trkpt lat="42.291882000" lon="-2.528021600">
        <ele>743.70</ele>
        <time>2012-11-10T11:39:03Z</time>
      </trkpt>
      <trkpt lat="42.292058000" lon="-2.528146300">
        <ele>741.30</ele>
        <time>2012-11-10T11:39:05Z</time>
      </trkpt>
      <trkpt lat="42.292586100" lon="-2.528311100">
        <ele>737.50</ele>
        <time>2012-11-10T11:39:10Z</time>
      </trkpt>
      <trkpt lat="42.292922800" lon="-2.528401900">
        <ele>733.60</ele>
        <time>2012-11-10T11:39:12Z</time>
      </trkpt>
      <trkpt lat="42.293501400" lon="-2.528373100">
        <ele>727.90</ele>
        <time>2012-11-10T11:39:17Z</time>
      </trkpt>
      <trkpt lat="42.294103500" lon="-2.528253200">
        <ele>725.00</ele>
        <time>2012-11-10T11:39:22Z</time>
      </trkpt>
      <trkpt lat="42.294305400" lon="-2.528190400">
        <ele>724.00</ele>
        <time>2012-11-10T11:39:24Z</time>
      </trkpt>
      <trkpt lat="42.294656800" lon="-2.528209700">
        <ele>722.10</ele>
        <time>2012-11-10T11:39:29Z</time>
      </trkpt>
      <trkpt lat="42.295076800" lon="-2.528298600">
        <ele>720.20</ele>
        <time>2012-11-10T11:39:34Z</time>
      </trkpt>
      <trkpt lat="42.295444200" lon="-2.528305600">
        <ele>719.20</ele>
        <time>2012-11-10T11:39:38Z</time>
      </trkpt>
      <trkpt lat="42.295704100" lon="-2.528424100">
        <ele>717.80</ele>
        <time>2012-11-10T11:39:43Z</time>
      </trkpt>
      <trkpt lat="42.296112400" lon="-2.528781600">
        <ele>716.80</ele>
        <time>2012-11-10T11:39:50Z</time>
      </trkpt>
      <trkpt lat="42.296503700" lon="-2.529197000">
        <ele>715.80</ele>
        <time>2012-11-10T11:39:57Z</time>
      </trkpt>
      <trkpt lat="42.296859800" lon="-2.529596200">
        <ele>716.80</ele>
        <time>2012-11-10T11:40:04Z</time>
      </trkpt>
      <trkpt lat="42.297188500" lon="-2.529847600">
        <ele>717.30</ele>
        <time>2012-11-10T11:40:11Z</time>
      </trkpt>
      <trkpt lat="42.297287100" lon="-2.529920500">
        <ele>717.30</ele>
        <time>2012-11-10T11:40:13Z</time>
      </trkpt>
      <trkpt lat="42.297681300" lon="-2.530252000">
        <ele>713.90</ele>
        <time>2012-11-10T11:40:21Z</time>
      </trkpt>
      <trkpt lat="42.297986800" lon="-2.530409900">
        <ele>711.00</ele>
        <time>2012-11-10T11:40:25Z</time>
      </trkpt>
      <trkpt lat="42.298523200" lon="-2.530578400">
        <ele>708.10</ele>
        <time>2012-11-10T11:40:34Z</time>
      </trkpt>
      <trkpt lat="42.298927700" lon="-2.530773800">
        <ele>706.70</ele>
        <time>2012-11-10T11:40:41Z</time>
      </trkpt>
      <trkpt lat="42.299254000" lon="-2.531015900">
        <ele>705.30</ele>
        <time>2012-11-10T11:40:46Z</time>
      </trkpt>
      <trkpt lat="42.299541500" lon="-2.531361100">
        <ele>703.80</ele>
        <time>2012-11-10T11:40:51Z</time>
      </trkpt>
      <trkpt lat="42.299664500" lon="-2.531479600">
        <ele>703.30</ele>
        <time>2012-11-10T11:40:53Z</time>
      </trkpt>
      <trkpt lat="42.300102700" lon="-2.531705000">
        <ele>699.50</ele>
        <time>2012-11-10T11:41:00Z</time>
      </trkpt>
      <trkpt lat="42.300599300" lon="-2.531871500">
        <ele>694.20</ele>
        <time>2012-11-10T11:41:05Z</time>
      </trkpt>
      <trkpt lat="42.301275800" lon="-2.532095800">
        <ele>689.40</ele>
        <time>2012-11-10T11:41:12Z</time>
      </trkpt>
      <trkpt lat="42.301879600" lon="-2.532379100">
        <ele>683.20</ele>
        <time>2012-11-10T11:41:19Z</time>
      </trkpt>
      <trkpt lat="42.302305000" lon="-2.532599100">
        <ele>678.30</ele>
        <time>2012-11-10T11:41:22Z</time>
      </trkpt>
      <trkpt lat="42.302955600" lon="-2.532670800">
        <ele>672.60</ele>
        <time>2012-11-10T11:41:29Z</time>
      </trkpt>
      <trkpt lat="42.303141900" lon="-2.532673100">
        <ele>670.20</ele>
        <time>2012-11-10T11:41:31Z</time>
      </trkpt>
      <trkpt lat="42.303396900" lon="-2.532649200">
        <ele>666.80</ele>
        <time>2012-11-10T11:41:36Z</time>
      </trkpt>
      <trkpt lat="42.303632000" lon="-2.532613700">
        <ele>662.50</ele>
        <time>2012-11-10T11:41:42Z</time>
      </trkpt>
      <trkpt lat="42.303931500" lon="-2.532646800">
        <ele>658.60</ele>
        <time>2012-11-10T11:41:45Z</time>
      </trkpt>
      <trkpt lat="42.304367200" lon="-2.532789800">
        <ele>653.80</ele>
        <time>2012-11-10T11:41:50Z</time>
      </trkpt>
      <trkpt lat="42.304772500" lon="-2.532891600">
        <ele>651.40</ele>
        <time>2012-11-10T11:41:54Z</time>
      </trkpt>
      <trkpt lat="42.304856900" lon="-2.532920900">
        <ele>650.90</ele>
        <time>2012-11-10T11:41:54Z</time>
      </trkpt>
      <trkpt lat="42.305163000" lon="-2.533079700">
        <ele>652.40</ele>
        <time>2012-11-10T11:41:59Z</time>
      </trkpt>
      <trkpt lat="42.305513500" lon="-2.533229900">
        <ele>651.40</ele>
        <time>2012-11-10T11:42:06Z</time>
      </trkpt>
      <trkpt lat="42.305864600" lon="-2.533388000">
        <ele>653.40</ele>
        <time>2012-11-10T11:42:13Z</time>
      </trkpt>
      <trkpt lat="42.305999100" lon="-2.533446000">
        <ele>654.30</ele>
        <time>2012-11-10T11:42:16Z</time>
      </trkpt>
      <trkpt lat="42.306161900" lon="-2.533454900">
        <ele>657.20</ele>
        <time>2012-11-10T11:42:20Z</time>
      </trkpt>
      <trkpt lat="42.306276800" lon="-2.533454700">
        <ele>659.60</ele>
        <time>2012-11-10T11:42:23Z</time>
      </trkpt>
      <trkpt lat="42.306314200" lon="-2.533453200">
        <ele>660.10</ele>
        <time>2012-11-10T11:42:23Z</time>
      </trkpt>
      <trkpt lat="42.306424100" lon="-2.533462000">
        <ele>660.10</ele>
        <time>2012-11-10T11:42:27Z</time>
      </trkpt>
      <trkpt lat="42.306569000" lon="-2.533467100">
        <ele>661.50</ele>
        <time>2012-11-10T11:42:30Z</time>
      </trkpt>
      <trkpt lat="42.306812000" lon="-2.533475000">
        <ele>661.50</ele>
        <time>2012-11-10T11:42:37Z</time>
      </trkpt>
      <trkpt lat="42.307080800" lon="-2.533436800">
        <ele>665.90</ele>
        <time>2012-11-10T11:42:46Z</time>
      </trkpt>
      <trkpt lat="42.307218600" lon="-2.533417100">
        <ele>671.10</ele>
        <time>2012-11-10T11:42:53Z</time>
      </trkpt>
      <trkpt lat="42.307319300" lon="-2.533430100">
        <ele>676.40</ele>
        <time>2012-11-10T11:42:58Z</time>
      </trkpt>
      <trkpt lat="42.307446700" lon="-2.533443900">
        <ele>685.60</ele>
        <time>2012-11-10T11:43:05Z</time>
      </trkpt>
      <trkpt lat="42.307545100" lon="-2.533488600">
        <ele>691.30</ele>
        <time>2012-11-10T11:43:10Z</time>
      </trkpt>
      <trkpt lat="42.307626300" lon="-2.533526800">
        <ele>695.70</ele>
        <time>2012-11-10T11:43:17Z</time>
      </trkpt>
      <trkpt lat="42.307699300" lon="-2.533586300">
        <ele>699.00</ele>
        <time>2012-11-10T11:43:23Z</time>
      </trkpt>
      <trkpt lat="42.307796200" lon="-2.533669700">
        <ele>696.10</ele>
        <time>2012-11-10T11:43:30Z</time>
      </trkpt>
      <trkpt lat="42.307817900" lon="-2.533705400">
        <ele>695.70</ele>
        <time>2012-11-10T11:43:33Z</time>
      </trkpt>
      <trkpt lat="42.307856900" lon="-2.533731800">
        <ele>699.00</ele>
        <time>2012-11-10T11:43:38Z</time>
      </trkpt>
      <trkpt lat="42.307919000" lon="-2.533785900">
        <ele>689.40</ele>
        <time>2012-11-10T11:43:42Z</time>
      </trkpt>
      <trkpt lat="42.308064600" lon="-2.533817100">
        <ele>683.60</ele>
        <time>2012-11-10T11:43:47Z</time>
      </trkpt>
      <trkpt lat="42.308093900" lon="-2.533826400">
        <ele>683.60</ele>
        <time>2012-11-10T11:43:49Z</time>
      </trkpt>
      <trkpt lat="42.308130000" lon="-2.533829500">
        <ele>685.10</ele>
        <time>2012-11-10T11:43:54Z</time>
      </trkpt>
      <trkpt lat="42.308147000" lon="-2.533801400">
        <ele>693.20</ele>
        <time>2012-11-10T11:44:11Z</time>
      </trkpt>
      <trkpt lat="42.308149800" lon="-2.533792500">
        <ele>695.70</ele>
        <time>2012-11-10T11:44:17Z</time>
      </trkpt>
      <trkpt lat="42.308165100" lon="-2.533756200">
        <ele>698.10</ele>
        <time>2012-11-10T11:44:25Z</time>
      </trkpt>
      <trkpt lat="42.308169300" lon="-2.533736600">
        <ele>700.50</ele>
        <time>2012-11-10T11:44:34Z</time>
      </trkpt>
      <trkpt lat="42.308175000" lon="-2.533716500">
        <ele>701.90</ele>
        <time>2012-11-10T11:44:43Z</time>
      </trkpt>
      <trkpt lat="42.308177900" lon="-2.533707600">
        <ele>702.90</ele>
        <time>2012-11-10T11:44:48Z</time>
      </trkpt>
      <trkpt lat="42.308177900" lon="-2.533706000">
        <ele>703.30</ele>
        <time>2012-11-10T11:44:50Z</time>
      </trkpt>
      <trkpt lat="42.308177300" lon="-2.533703400">
        <ele>703.80</ele>
        <time>2012-11-10T11:44:58Z</time>
      </trkpt>
      <trkpt lat="42.308176700" lon="-2.533702800">
        <ele>704.30</ele>
        <time>2012-11-10T11:45:04Z</time>
      </trkpt>
      <trkpt lat="42.308176600" lon="-2.533699500">
        <ele>704.80</ele>
        <time>2012-11-10T11:45:05Z</time>
      </trkpt>
      <trkpt lat="42.308176000" lon="-2.533696100">
        <ele>705.70</ele>
        <time>2012-11-10T11:45:09Z</time>
      </trkpt>
      <trkpt lat="42.308164300" lon="-2.533652400">
        <ele>715.80</ele>
        <time>2012-11-10T11:45:30Z</time>
      </trkpt>
      <trkpt lat="42.308152600" lon="-2.533695100">
        <ele>715.80</ele>
        <time>2012-11-10T11:45:59Z</time>
      </trkpt>
      <trkpt lat="42.308154300" lon="-2.533698900">
        <ele>714.40</ele>
        <time>2012-11-10T11:46:06Z</time>
      </trkpt>
      <trkpt lat="42.308163800" lon="-2.533734600">
        <ele>710.10</ele>
        <time>2012-11-10T11:46:25Z</time>
      </trkpt>
      <trkpt lat="42.308142400" lon="-2.533714200">
        <ele>707.70</ele>
        <time>2012-11-10T11:46:27Z</time>
      </trkpt>
      <trkpt lat="42.308105800" lon="-2.533571000">
        <ele>703.80</ele>
        <time>2012-11-10T11:46:31Z</time>
      </trkpt>
      <trkpt lat="42.308121000" lon="-2.533183400">
        <ele>699.00</ele>
        <time>2012-11-10T11:46:36Z</time>
      </trkpt>
      <trkpt lat="42.308122600" lon="-2.533046200">
        <ele>696.10</ele>
        <time>2012-11-10T11:46:39Z</time>
      </trkpt>
      <trkpt lat="42.308126500" lon="-2.532848400">
        <ele>693.20</ele>
        <time>2012-11-10T11:46:41Z</time>
      </trkpt>
      <trkpt lat="42.308183400" lon="-2.532586600">
        <ele>688.00</ele>
        <time>2012-11-10T11:46:46Z</time>
      </trkpt>
      <trkpt lat="42.308112200" lon="-2.532074400">
        <ele>674.00</ele>
        <time>2012-11-10T11:46:52Z</time>
      </trkpt>
      <trkpt lat="42.308102000" lon="-2.531665800">
        <ele>665.90</ele>
        <time>2012-11-10T11:46:55Z</time>
      </trkpt>
      <trkpt lat="42.308113800" lon="-2.531100000">
        <ele>657.70</ele>
        <time>2012-11-10T11:47:00Z</time>
      </trkpt>
      <trkpt lat="42.308077500" lon="-2.530618100">
        <ele>650.90</ele>
        <time>2012-11-10T11:47:04Z</time>
      </trkpt>
      <trkpt lat="42.307975800" lon="-2.530175500">
        <ele>646.10</ele>
        <time>2012-11-10T11:47:09Z</time>
      </trkpt>
      <trkpt lat="42.308014400" lon="-2.529828700">
        <ele>643.70</ele>
        <time>2012-11-10T11:47:12Z</time>
      </trkpt>
      <trkpt lat="42.308039600" lon="-2.529693600">
        <ele>646.60</ele>
        <time>2012-11-10T11:47:14Z</time>
      </trkpt>
      <trkpt lat="42.308288800" lon="-2.529613800">
        <ele>638.50</ele>
        <time>2012-11-10T11:47:18Z</time>
      </trkpt>
      <trkpt lat="42.308496500" lon="-2.529624400">
        <ele>633.20</ele>
        <time>2012-11-10T11:47:23Z</time>
      </trkpt>
      <trkpt lat="42.308745800" lon="-2.529466400">
        <ele>633.60</ele>
        <time>2012-11-10T11:47:28Z</time>
      </trkpt>
      <trkpt lat="42.308788800" lon="-2.529414400">
        <ele>633.20</ele>
        <time>2012-11-10T11:47:30Z</time>
      </trkpt>
      <trkpt lat="42.308975700" lon="-2.529196300">
        <ele>633.20</ele>
        <time>2012-11-10T11:47:33Z</time>
      </trkpt>
      <trkpt lat="42.309295600" lon="-2.528955100">
        <ele>631.20</ele>
        <time>2012-11-10T11:47:39Z</time>
      </trkpt>
      <trkpt lat="42.309617900" lon="-2.528661800">
        <ele>629.30</ele>
        <time>2012-11-10T11:47:44Z</time>
      </trkpt>
      <trkpt lat="42.309866500" lon="-2.528425000">
        <ele>627.40</ele>
        <time>2012-11-10T11:47:47Z</time>
      </trkpt>
      <trkpt lat="42.310180500" lon="-2.528066600">
        <ele>626.40</ele>
        <time>2012-11-10T11:47:53Z</time>
      </trkpt>
      <trkpt lat="42.310473100" lon="-2.527910500">
        <ele>622.10</ele>
        <time>2012-11-10T11:47:58Z</time>
      </trkpt>
      <trkpt lat="42.310581600" lon="-2.527863500">
        <ele>621.60</ele>
        <time>2012-11-10T11:47:59Z</time>
      </trkpt>
      <trkpt lat="42.310969800" lon="-2.527707700">
        <ele>618.30</ele>
        <time>2012-11-10T11:48:05Z</time>
      </trkpt>
      <trkpt lat="42.311161700" lon="-2.527616600">
        <ele>615.90</ele>
        <time>2012-11-10T11:48:08Z</time>
      </trkpt>
      <trkpt lat="42.311284200" lon="-2.527482700">
        <ele>613.90</ele>
        <time>2012-11-10T11:48:12Z</time>
      </trkpt>
      <trkpt lat="42.311457400" lon="-2.527427000">
        <ele>613.00</ele>
        <time>2012-11-10T11:48:15Z</time>
      </trkpt>
      <trkpt lat="42.311698300" lon="-2.527372900">
        <ele>610.60</ele>
        <time>2012-11-10T11:48:19Z</time>
      </trkpt>
      <trkpt lat="42.311974700" lon="-2.527249400">
        <ele>606.70</ele>
        <time>2012-11-10T11:48:22Z</time>
      </trkpt>
      <trkpt lat="42.312052700" lon="-2.527241400">
        <ele>606.20</ele>
        <time>2012-11-10T11:48:24Z</time>
      </trkpt>
      <trkpt lat="42.312594000" lon="-2.527195900">
        <ele>600.50</ele>
        <time>2012-11-10T11:48:29Z</time>
      </trkpt>
      <trkpt lat="42.312980400" lon="-2.527152700">
        <ele>596.60</ele>
        <time>2012-11-10T11:48:34Z</time>
      </trkpt>
      <trkpt lat="42.313220300" lon="-2.527079100">
        <ele>594.20</ele>
        <time>2012-11-10T11:48:36Z</time>
      </trkpt>
      <trkpt lat="42.313295700" lon="-2.527050800">
        <ele>594.20</ele>
        <time>2012-11-10T11:48:38Z</time>
      </trkpt>
      <trkpt lat="42.313706000" lon="-2.527078900">
        <ele>587.50</ele>
        <time>2012-11-10T11:48:43Z</time>
      </trkpt>
      <trkpt lat="42.313831900" lon="-2.527062700">
        <ele>586.50</ele>
        <time>2012-11-10T11:48:45Z</time>
      </trkpt>
      <trkpt lat="42.313992800" lon="-2.527144600">
        <ele>583.70</ele>
        <time>2012-11-10T11:48:48Z</time>
      </trkpt>
      <trkpt lat="42.314016100" lon="-2.527201100">
        <ele>584.60</ele>
        <time>2012-11-10T11:48:50Z</time>
      </trkpt>
      <trkpt lat="42.314116900" lon="-2.527575400">
        <ele>581.30</ele>
        <time>2012-11-10T11:48:55Z</time>
      </trkpt>
      <trkpt lat="42.314129100" lon="-2.527628300">
        <ele>580.30</ele>
        <time>2012-11-10T11:48:55Z</time>
      </trkpt>
      <trkpt lat="42.314234000" lon="-2.527852800">
        <ele>578.40</ele>
        <time>2012-11-10T11:49:00Z</time>
      </trkpt>
      <trkpt lat="42.314398700" lon="-2.527909500">
        <ele>596.60</ele>
        <time>2012-11-10T11:49:04Z</time>
      </trkpt>
      <trkpt lat="42.314629600" lon="-2.527750100">
        <ele>609.10</ele>
        <time>2012-11-10T11:49:09Z</time>
      </trkpt>
      <trkpt lat="42.314651900" lon="-2.527684900">
        <ele>609.10</ele>
        <time>2012-11-10T11:49:09Z</time>
      </trkpt>
      <trkpt lat="42.314814300" lon="-2.527276500">
        <ele>592.80</ele>
        <time>2012-11-10T11:49:16Z</time>
      </trkpt>
      <trkpt lat="42.314999500" lon="-2.527014400">
        <ele>587.50</ele>
        <time>2012-11-10T11:49:21Z</time>
      </trkpt>
      <trkpt lat="42.315156600" lon="-2.526775400">
        <ele>581.70</ele>
        <time>2012-11-10T11:49:28Z</time>
      </trkpt>
      <trkpt lat="42.315284000" lon="-2.526591900">
        <ele>581.30</ele>
        <time>2012-11-10T11:49:35Z</time>
      </trkpt>
      <trkpt lat="42.315387900" lon="-2.526485600">
        <ele>586.10</ele>
        <time>2012-11-10T11:49:39Z</time>
      </trkpt>
      <trkpt lat="42.315503900" lon="-2.526380200">
        <ele>596.60</ele>
        <time>2012-11-10T11:49:44Z</time>
      </trkpt>
      <trkpt lat="42.315642900" lon="-2.526241100">
        <ele>594.70</ele>
        <time>2012-11-10T11:49:49Z</time>
      </trkpt>
      <trkpt lat="42.315828700" lon="-2.526116500">
        <ele>590.90</ele>
        <time>2012-11-10T11:49:56Z</time>
      </trkpt>
      <trkpt lat="42.316001800" lon="-2.526022600">
        <ele>588.50</ele>
        <time>2012-11-10T11:50:00Z</time>
      </trkpt>
      <trkpt lat="42.316329600" lon="-2.525778900">
        <ele>582.20</ele>
        <time>2012-11-10T11:50:05Z</time>
      </trkpt>
      <trkpt lat="42.316453100" lon="-2.525652200">
        <ele>582.70</ele>
        <time>2012-11-10T11:50:10Z</time>
      </trkpt>
      <trkpt lat="42.316686000" lon="-2.525293900">
        <ele>577.90</ele>
        <time>2012-11-10T11:50:17Z</time>
      </trkpt>
      <trkpt lat="42.316904200" lon="-2.525033700">
        <ele>576.90</ele>
        <time>2012-11-10T11:50:24Z</time>
      </trkpt>
      <trkpt lat="42.316939400" lon="-2.524995600">
        <ele>576.90</ele>
        <time>2012-11-10T11:50:24Z</time>
      </trkpt>
      <trkpt lat="42.317147100" lon="-2.524818100">
        <ele>576.90</ele>
        <time>2012-11-10T11:50:29Z</time>
      </trkpt>
      <trkpt lat="42.317457000" lon="-2.524706900">
        <ele>576.40</ele>
        <time>2012-11-10T11:50:36Z</time>
      </trkpt>
      <trkpt lat="42.317735700" lon="-2.524587600">
        <ele>574.00</ele>
        <time>2012-11-10T11:50:42Z</time>
      </trkpt>
      <trkpt lat="42.317820800" lon="-2.524551400">
        <ele>571.60</ele>
        <time>2012-11-10T11:50:43Z</time>
      </trkpt>
      <trkpt lat="42.317987600" lon="-2.524368300">
        <ele>564.40</ele>
        <time>2012-11-10T11:50:48Z</time>
      </trkpt>
      <trkpt lat="42.318136100" lon="-2.523920000">
        <ele>560.60</ele>
        <time>2012-11-10T11:50:54Z</time>
      </trkpt>
      <trkpt lat="42.318235400" lon="-2.523419500">
        <ele>564.40</ele>
        <time>2012-11-10T11:51:01Z</time>
      </trkpt>
      <trkpt lat="42.318288200" lon="-2.523149200">
        <ele>569.20</ele>
        <time>2012-11-10T11:51:06Z</time>
      </trkpt>
      <trkpt lat="42.318359700" lon="-2.522658000">
        <ele>571.60</ele>
        <time>2012-11-10T11:51:11Z</time>
      </trkpt>
      <trkpt lat="42.318429600" lon="-2.522104600">
        <ele>573.60</ele>
        <time>2012-11-10T11:51:18Z</time>
      </trkpt>
      <trkpt lat="42.318501900" lon="-2.521565000">
        <ele>572.60</ele>
        <time>2012-11-10T11:51:23Z</time>
      </trkpt>
      <trkpt lat="42.318554500" lon="-2.521054700">
        <ele>573.10</ele>
        <time>2012-11-10T11:51:30Z</time>
      </trkpt>
      <trkpt lat="42.318580600" lon="-2.520840500">
        <ele>574.00</ele>
        <time>2012-11-10T11:51:34Z</time>
      </trkpt>
      <trkpt lat="42.318646900" lon="-2.520041200">
        <ele>575.00</ele>
        <time>2012-11-10T11:51:44Z</time>
      </trkpt>
      <trkpt lat="42.318709400" lon="-2.519447500">
        <ele>575.50</ele>
        <time>2012-11-10T11:51:53Z</time>
      </trkpt>
      <trkpt lat="42.318796800" lon="-2.518787200">
        <ele>577.90</ele>
        <time>2012-11-10T11:52:02Z</time>
      </trkpt>
      <trkpt lat="42.318843500" lon="-2.518423500">
        <ele>578.90</ele>
        <time>2012-11-10T11:52:07Z</time>
      </trkpt>
      <trkpt lat="42.318898500" lon="-2.518107600">
        <ele>578.40</ele>
        <time>2012-11-10T11:52:12Z</time>
      </trkpt>
      <trkpt lat="42.319054600" lon="-2.517706000">
        <ele>579.30</ele>
        <time>2012-11-10T11:52:19Z</time>
      </trkpt>
      <trkpt lat="42.319207000" lon="-2.517252900">
        <ele>576.40</ele>
        <time>2012-11-10T11:52:24Z</time>
      </trkpt>
      <trkpt lat="42.319368500" lon="-2.516610800">
        <ele>572.60</ele>
        <time>2012-11-10T11:52:33Z</time>
      </trkpt>
      <trkpt lat="42.319496300" lon="-2.516129400">
        <ele>569.70</ele>
        <time>2012-11-10T11:52:38Z</time>
      </trkpt>
      <trkpt lat="42.319596600" lon="-2.515776500">
        <ele>569.70</ele>
        <time>2012-11-10T11:52:43Z</time>
      </trkpt>
      <trkpt lat="42.319757200" lon="-2.515303800">
        <ele>570.20</ele>
        <time>2012-11-10T11:52:50Z</time>
      </trkpt>
      <trkpt lat="42.319876600" lon="-2.514895000">
        <ele>570.70</ele>
        <time>2012-11-10T11:52:57Z</time>
      </trkpt>
      <trkpt lat="42.320035900" lon="-2.514321000">
        <ele>570.70</ele>
        <time>2012-11-10T11:53:06Z</time>
      </trkpt>
      <trkpt lat="42.320164800" lon="-2.513813700">
        <ele>571.20</ele>
        <time>2012-11-10T11:53:13Z</time>
      </trkpt>
      <trkpt lat="42.320237900" lon="-2.513594900">
        <ele>570.20</ele>
        <time>2012-11-10T11:53:17Z</time>
      </trkpt>
      <trkpt lat="42.320356300" lon="-2.513350700">
        <ele>569.20</ele>
        <time>2012-11-10T11:53:20Z</time>
      </trkpt>
      <trkpt lat="42.320609200" lon="-2.512843300">
        <ele>569.70</ele>
        <time>2012-11-10T11:53:29Z</time>
      </trkpt>
      <trkpt lat="42.320950700" lon="-2.512326200">
        <ele>569.70</ele>
        <time>2012-11-10T11:53:36Z</time>
      </trkpt>
      <trkpt lat="42.321297200" lon="-2.511858000">
        <ele>570.20</ele>
        <time>2012-11-10T11:53:44Z</time>
      </trkpt>
      <trkpt lat="42.321542700" lon="-2.511503200">
        <ele>570.20</ele>
        <time>2012-11-10T11:53:51Z</time>
      </trkpt>
      <trkpt lat="42.321793500" lon="-2.511052000">
        <ele>569.20</ele>
        <time>2012-11-10T11:54:00Z</time>
      </trkpt>
      <trkpt lat="42.321980300" lon="-2.510700700">
        <ele>569.20</ele>
        <time>2012-11-10T11:54:05Z</time>
      </trkpt>
      <trkpt lat="42.322239800" lon="-2.510244700">
        <ele>569.20</ele>
        <time>2012-11-10T11:54:14Z</time>
      </trkpt>
      <trkpt lat="42.322500400" lon="-2.509780300">
        <ele>568.30</ele>
        <time>2012-11-10T11:54:21Z</time>
      </trkpt>
      <trkpt lat="42.322734700" lon="-2.509354100">
        <ele>566.80</ele>
        <time>2012-11-10T11:54:30Z</time>
      </trkpt>
      <trkpt lat="42.322971000" lon="-2.509004600">
        <ele>564.90</ele>
        <time>2012-11-10T11:54:37Z</time>
      </trkpt>
      <trkpt lat="42.323466800" lon="-2.508572300">
        <ele>561.50</ele>
        <time>2012-11-10T11:54:47Z</time>
      </trkpt>
      <trkpt lat="42.323788000" lon="-2.508272000">
        <ele>559.60</ele>
        <time>2012-11-10T11:54:54Z</time>
      </trkpt>
      <trkpt lat="42.324152900" lon="-2.507841500">
        <ele>559.60</ele>
        <time>2012-11-10T11:55:03Z</time>
      </trkpt>
      <trkpt lat="42.324456500" lon="-2.507470000">
        <ele>559.60</ele>
        <time>2012-11-10T11:55:12Z</time>
      </trkpt>
      <trkpt lat="42.324626400" lon="-2.507210500">
        <ele>560.10</ele>
        <time>2012-11-10T11:55:17Z</time>
      </trkpt>
      <trkpt lat="42.324963100" lon="-2.506747100">
        <ele>558.20</ele>
        <time>2012-11-10T11:55:25Z</time>
      </trkpt>
      <trkpt lat="42.325244100" lon="-2.506304600">
        <ele>558.20</ele>
        <time>2012-11-10T11:55:34Z</time>
      </trkpt>
      <trkpt lat="42.325447900" lon="-2.505873900">
        <ele>558.70</ele>
        <time>2012-11-10T11:55:41Z</time>
      </trkpt>
      <trkpt lat="42.325609700" lon="-2.505472000">
        <ele>559.10</ele>
        <time>2012-11-10T11:55:46Z</time>
      </trkpt>
      <trkpt lat="42.325846600" lon="-2.504910900">
        <ele>560.60</ele>
        <time>2012-11-10T11:55:55Z</time>
      </trkpt>
      <trkpt lat="42.326076600" lon="-2.504436100">
        <ele>561.10</ele>
        <time>2012-11-10T11:56:02Z</time>
      </trkpt>
      <trkpt lat="42.326393500" lon="-2.503940400">
        <ele>561.50</ele>
        <time>2012-11-10T11:56:09Z</time>
      </trkpt>
      <trkpt lat="42.326726800" lon="-2.503365100">
        <ele>560.60</ele>
        <time>2012-11-10T11:56:19Z</time>
      </trkpt>
      <trkpt lat="42.326947800" lon="-2.502964300">
        <ele>560.60</ele>
        <time>2012-11-10T11:56:26Z</time>
      </trkpt>
      <trkpt lat="42.327261500" lon="-2.502384800">
        <ele>560.60</ele>
        <time>2012-11-10T11:56:37Z</time>
      </trkpt>
      <trkpt lat="42.327526500" lon="-2.501994000">
        <ele>560.10</ele>
        <time>2012-11-10T11:56:44Z</time>
      </trkpt>
      <trkpt lat="42.327842300" lon="-2.501682200">
        <ele>560.60</ele>
        <time>2012-11-10T11:56:51Z</time>
      </trkpt>
      <trkpt lat="42.328174000" lon="-2.501354800">
        <ele>562.00</ele>
        <time>2012-11-10T11:56:58Z</time>
      </trkpt>
      <trkpt lat="42.328451400" lon="-2.501008400">
        <ele>561.50</ele>
        <time>2012-11-10T11:57:05Z</time>
      </trkpt>
      <trkpt lat="42.328792500" lon="-2.500672900">
        <ele>560.60</ele>
        <time>2012-11-10T11:57:12Z</time>
      </trkpt>
      <trkpt lat="42.329064200" lon="-2.500407400">
        <ele>559.10</ele>
        <time>2012-11-10T11:57:17Z</time>
      </trkpt>
      <trkpt lat="42.329408300" lon="-2.500244800">
        <ele>556.30</ele>
        <time>2012-11-10T11:57:22Z</time>
      </trkpt>
      <trkpt lat="42.329794900" lon="-2.500138200">
        <ele>553.90</ele>
        <time>2012-11-10T11:57:27Z</time>
      </trkpt>
      <trkpt lat="42.330333500" lon="-2.499945700">
        <ele>551.90</ele>
        <time>2012-11-10T11:57:34Z</time>
      </trkpt>
      <trkpt lat="42.330396700" lon="-2.499910100">
        <ele>551.50</ele>
        <time>2012-11-10T11:57:36Z</time>
      </trkpt>
      <trkpt lat="42.330677900" lon="-2.499679300">
        <ele>551.50</ele>
        <time>2012-11-10T11:57:41Z</time>
      </trkpt>
      <trkpt lat="42.331034300" lon="-2.499455900">
        <ele>552.40</ele>
        <time>2012-11-10T11:57:48Z</time>
      </trkpt>
      <trkpt lat="42.331265400" lon="-2.499298600">
        <ele>553.90</ele>
        <time>2012-11-10T11:57:52Z</time>
      </trkpt>
      <trkpt lat="42.331311600" lon="-2.499273100">
        <ele>554.30</ele>
        <time>2012-11-10T11:57:54Z</time>
      </trkpt>
      <trkpt lat="42.331742900" lon="-2.498964000">
        <ele>555.30</ele>
        <time>2012-11-10T11:58:02Z</time>
      </trkpt>
      <trkpt lat="42.332003200" lon="-2.498739400">
        <ele>555.30</ele>
        <time>2012-11-10T11:58:07Z</time>
      </trkpt>
      <trkpt lat="42.332505800" lon="-2.498233800">
        <ele>554.80</ele>
        <time>2012-11-10T11:58:18Z</time>
      </trkpt>
      <trkpt lat="42.332908500" lon="-2.497767200">
        <ele>553.90</ele>
        <time>2012-11-10T11:58:25Z</time>
      </trkpt>
      <trkpt lat="42.333168600" lon="-2.497455700">
        <ele>552.40</ele>
        <time>2012-11-10T11:58:30Z</time>
      </trkpt>
      <trkpt lat="42.333427700" lon="-2.497149300">
        <ele>551.00</ele>
        <time>2012-11-10T11:58:35Z</time>
      </trkpt>
      <trkpt lat="42.333521200" lon="-2.497025000">
        <ele>551.00</ele>
        <time>2012-11-10T11:58:37Z</time>
      </trkpt>
      <trkpt lat="42.333940200" lon="-2.496515900">
        <ele>550.00</ele>
        <time>2012-11-10T11:58:46Z</time>
      </trkpt>
      <trkpt lat="42.334216400" lon="-2.496133400">
        <ele>549.50</ele>
        <time>2012-11-10T11:58:53Z</time>
      </trkpt>
      <trkpt lat="42.334565100" lon="-2.495513500">
        <ele>548.60</ele>
        <time>2012-11-10T11:59:01Z</time>
      </trkpt>
      <trkpt lat="42.334937400" lon="-2.494862000">
        <ele>545.70</ele>
        <time>2012-11-10T11:59:10Z</time>
      </trkpt>
      <trkpt lat="42.335217300" lon="-2.494480100">
        <ele>544.70</ele>
        <time>2012-11-10T11:59:17Z</time>
      </trkpt>
      <trkpt lat="42.335637900" lon="-2.494010200">
        <ele>543.80</ele>
        <time>2012-11-10T11:59:24Z</time>
      </trkpt>
      <trkpt lat="42.336014400" lon="-2.493541200">
        <ele>544.70</ele>
        <time>2012-11-10T11:59:33Z</time>
      </trkpt>
      <trkpt lat="42.336336200" lon="-2.493066200">
        <ele>543.30</ele>
        <time>2012-11-10T11:59:40Z</time>
      </trkpt>
      <trkpt lat="42.336454300" lon="-2.492868900">
        <ele>543.80</ele>
        <time>2012-11-10T11:59:45Z</time>
      </trkpt>
      <trkpt lat="42.336624700" lon="-2.492792200">
        <ele>542.80</ele>
        <time>2012-11-10T11:59:52Z</time>
      </trkpt>
      <trkpt lat="42.336761200" lon="-2.492863400">
        <ele>541.40</ele>
        <time>2012-11-10T11:59:54Z</time>
      </trkpt>
      <trkpt lat="42.337089100" lon="-2.493129600">
        <ele>537.50</ele>
        <time>2012-11-10T12:00:01Z</time>
      </trkpt>
      <trkpt lat="42.337246100" lon="-2.493332300">
        <ele>536.60</ele>
        <time>2012-11-10T12:00:04Z</time>
      </trkpt>
      <trkpt lat="42.337430700" lon="-2.493731900">
        <ele>532.70</ele>
        <time>2012-11-10T12:00:08Z</time>
      </trkpt>
      <trkpt lat="42.337505500" lon="-2.493962600">
        <ele>531.30</ele>
        <time>2012-11-10T12:00:09Z</time>
      </trkpt>
      <trkpt lat="42.337713400" lon="-2.494718900">
        <ele>530.30</ele>
        <time>2012-11-10T12:00:16Z</time>
      </trkpt>
      <trkpt lat="42.337847000" lon="-2.495157200">
        <ele>530.80</ele>
        <time>2012-11-10T12:00:22Z</time>
      </trkpt>
      <trkpt lat="42.337946700" lon="-2.495467800">
        <ele>530.80</ele>
        <time>2012-11-10T12:00:25Z</time>
      </trkpt>
      <trkpt lat="42.338106900" lon="-2.495965700">
        <ele>531.30</ele>
        <time>2012-11-10T12:00:32Z</time>
      </trkpt>
      <trkpt lat="42.338217300" lon="-2.496296700">
        <ele>532.70</ele>
        <time>2012-11-10T12:00:37Z</time>
      </trkpt>
      <trkpt lat="42.338393900" lon="-2.496823400">
        <ele>533.20</ele>
        <time>2012-11-10T12:00:46Z</time>
      </trkpt>
      <trkpt lat="42.338584000" lon="-2.497390800">
        <ele>534.10</ele>
        <time>2012-11-10T12:00:55Z</time>
      </trkpt>
      <trkpt lat="42.338749300" lon="-2.497850300">
        <ele>534.60</ele>
        <time>2012-11-10T12:01:02Z</time>
      </trkpt>
      <trkpt lat="42.338921800" lon="-2.498280600">
        <ele>535.60</ele>
        <time>2012-11-10T12:01:10Z</time>
      </trkpt>
      <trkpt lat="42.339059600" lon="-2.498572400">
        <ele>536.60</ele>
        <time>2012-11-10T12:01:17Z</time>
      </trkpt>
      <trkpt lat="42.339207200" lon="-2.498857500">
        <ele>537.00</ele>
        <time>2012-11-10T12:01:24Z</time>
      </trkpt>
      <trkpt lat="42.339378900" lon="-2.499190200">
        <ele>537.50</ele>
        <time>2012-11-10T12:01:31Z</time>
      </trkpt>
      <trkpt lat="42.339531200" lon="-2.499438800">
        <ele>538.00</ele>
        <time>2012-11-10T12:01:38Z</time>
      </trkpt>
      <trkpt lat="42.339717700" lon="-2.499688400">
        <ele>539.40</ele>
        <time>2012-11-10T12:01:47Z</time>
      </trkpt>
      <trkpt lat="42.339943600" lon="-2.499971900">
        <ele>539.90</ele>
        <time>2012-11-10T12:01:54Z</time>
      </trkpt>
      <trkpt lat="42.340154400" lon="-2.500249700">
        <ele>540.40</ele>
        <time>2012-11-10T12:02:03Z</time>
      </trkpt>
      <trkpt lat="42.340397500" lon="-2.500579500">
        <ele>541.40</ele>
        <time>2012-11-10T12:02:13Z</time>
      </trkpt>
      <trkpt lat="42.340632100" lon="-2.500914600">
        <ele>543.80</ele>
        <time>2012-11-10T12:02:24Z</time>
      </trkpt>
      <trkpt lat="42.340739000" lon="-2.501074900">
        <ele>545.70</ele>
        <time>2012-11-10T12:02:30Z</time>
      </trkpt>
      <trkpt lat="42.340801800" lon="-2.501151400">
        <ele>546.60</ele>
        <time>2012-11-10T12:02:36Z</time>
      </trkpt>
      <trkpt lat="42.340814800" lon="-2.501170900">
        <ele>547.10</ele>
        <time>2012-11-10T12:02:36Z</time>
      </trkpt>
      <trkpt lat="42.340790500" lon="-2.501219600">
        <ele>548.10</ele>
        <time>2012-11-10T12:02:41Z</time>
      </trkpt>
      <trkpt lat="42.340753500" lon="-2.501085800">
        <ele>549.10</ele>
        <time>2012-11-10T12:02:44Z</time>
      </trkpt>
      <trkpt lat="42.340819700" lon="-2.500976300">
        <ele>549.10</ele>
        <time>2012-11-10T12:02:48Z</time>
      </trkpt>
      <trkpt lat="42.340861600" lon="-2.500942000">
        <ele>549.10</ele>
        <time>2012-11-10T12:02:48Z</time>
      </trkpt>
      <trkpt lat="42.341169500" lon="-2.500722700">
        <ele>548.10</ele>
        <time>2012-11-10T12:02:55Z</time>
      </trkpt>
      <trkpt lat="42.341322400" lon="-2.500638000">
        <ele>546.60</ele>
        <time>2012-11-10T12:02:58Z</time>
      </trkpt>
      <trkpt lat="42.341423700" lon="-2.500612600">
        <ele>545.70</ele>
        <time>2012-11-10T12:03:02Z</time>
      </trkpt>
      <trkpt lat="42.341534700" lon="-2.500562900">
        <ele>545.20</ele>
        <time>2012-11-10T12:03:05Z</time>
      </trkpt>
      <trkpt lat="42.341727200" lon="-2.500581600">
        <ele>543.80</ele>
        <time>2012-11-10T12:03:09Z</time>
      </trkpt>
      <trkpt lat="42.341772500" lon="-2.500654000">
        <ele>543.80</ele>
        <time>2012-11-10T12:03:12Z</time>
      </trkpt>
      <trkpt lat="42.341994600" lon="-2.500967000">
        <ele>543.80</ele>
        <time>2012-11-10T12:03:21Z</time>
      </trkpt>
      <trkpt lat="42.342165100" lon="-2.501156600">
        <ele>544.20</ele>
        <time>2012-11-10T12:03:28Z</time>
      </trkpt>
      <trkpt lat="42.342205700" lon="-2.501186000">
        <ele>543.80</ele>
        <time>2012-11-10T12:03:30Z</time>
      </trkpt>
      <trkpt lat="42.342286100" lon="-2.501268100">
        <ele>543.30</ele>
        <time>2012-11-10T12:03:35Z</time>
      </trkpt>
      <trkpt lat="42.342396500" lon="-2.501274000">
        <ele>542.30</ele>
        <time>2012-11-10T12:03:40Z</time>
      </trkpt>
      <trkpt lat="42.342475200" lon="-2.501504500">
        <ele>541.80</ele>
        <time>2012-11-10T12:03:47Z</time>
      </trkpt>
      <trkpt lat="42.342590400" lon="-2.501841000">
        <ele>541.40</ele>
        <time>2012-11-10T12:03:56Z</time>
      </trkpt>
      <trkpt lat="42.342552400" lon="-2.501902000">
        <ele>544.20</ele>
        <time>2012-11-10T12:03:59Z</time>
      </trkpt>
      <trkpt lat="42.342563800" lon="-2.501783000">
        <ele>544.20</ele>
        <time>2012-11-10T12:04:03Z</time>
      </trkpt>
      <trkpt lat="42.342508900" lon="-2.501789600">
        <ele>544.70</ele>
        <time>2012-11-10T12:04:06Z</time>
      </trkpt>
      <trkpt lat="42.342473300" lon="-2.501789500">
        <ele>543.80</ele>
        <time>2012-11-10T12:04:08Z</time>
      </trkpt>
      <trkpt lat="42.342369200" lon="-2.501813400">
        <ele>544.70</ele>
        <time>2012-11-10T12:04:15Z</time>
      </trkpt>
      <trkpt lat="42.342367100" lon="-2.501890800">
        <ele>546.60</ele>
        <time>2012-11-10T12:04:20Z</time>
      </trkpt>
      <trkpt lat="42.342387900" lon="-2.501911000">
        <ele>547.10</ele>
        <time>2012-11-10T12:04:22Z</time>
      </trkpt>
      <trkpt lat="42.342546000" lon="-2.502063100">
        <ele>547.10</ele>
        <time>2012-11-10T12:04:29Z</time>
      </trkpt>
      <trkpt lat="42.342651700" lon="-2.502122700">
        <ele>546.20</ele>
        <time>2012-11-10T12:04:34Z</time>
      </trkpt>
      <trkpt lat="42.342852100" lon="-2.502139200">
        <ele>545.70</ele>
        <time>2012-11-10T12:04:41Z</time>
      </trkpt>
      <trkpt lat="42.343073800" lon="-2.502113900">
        <ele>545.70</ele>
        <time>2012-11-10T12:04:48Z</time>
      </trkpt>
      <trkpt lat="42.343239000" lon="-2.501966400">
        <ele>546.20</ele>
        <time>2012-11-10T12:04:53Z</time>
      </trkpt>
      <trkpt lat="42.343358000" lon="-2.501868400">
        <ele>546.20</ele>
        <time>2012-11-10T12:04:55Z</time>
      </trkpt>
      <trkpt lat="42.343696800" lon="-2.501771500">
        <ele>546.60</ele>
        <time>2012-11-10T12:05:02Z</time>
      </trkpt>
      <trkpt lat="42.343799300" lon="-2.501763000">
        <ele>547.10</ele>
        <time>2012-11-10T12:05:04Z</time>
      </trkpt>
      <trkpt lat="42.344016700" lon="-2.501631500">
        <ele>547.10</ele>
        <time>2012-11-10T12:05:09Z</time>
      </trkpt>
      <trkpt lat="42.344257600" lon="-2.501492800">
        <ele>549.50</ele>
        <time>2012-11-10T12:05:16Z</time>
      </trkpt>
      <trkpt lat="42.344438800" lon="-2.501400900">
        <ele>550.00</ele>
        <time>2012-11-10T12:05:19Z</time>
      </trkpt>
      <trkpt lat="42.344664400" lon="-2.501245700">
        <ele>548.60</ele>
        <time>2012-11-10T12:05:25Z</time>
      </trkpt>
      <trkpt lat="42.345038900" lon="-2.500982500">
        <ele>543.30</ele>
        <time>2012-11-10T12:05:33Z</time>
      </trkpt>
      <trkpt lat="42.345248000" lon="-2.500843000">
        <ele>541.40</ele>
        <time>2012-11-10T12:05:40Z</time>
      </trkpt>
      <trkpt lat="42.345451900" lon="-2.500672700">
        <ele>539.40</ele>
        <time>2012-11-10T12:05:47Z</time>
      </trkpt>
      <trkpt lat="42.345668900" lon="-2.500563100">
        <ele>539.00</ele>
        <time>2012-11-10T12:05:54Z</time>
      </trkpt>
      <trkpt lat="42.345683800" lon="-2.500555400">
        <ele>538.50</ele>
        <time>2012-11-10T12:05:58Z</time>
      </trkpt>
      <trkpt lat="42.345687500" lon="-2.500547100">
        <ele>540.40</ele>
        <time>2012-11-10T12:06:10Z</time>
      </trkpt>
      <trkpt lat="42.345689200" lon="-2.500541600">
        <ele>540.90</ele>
        <time>2012-11-10T12:06:12Z</time>
      </trkpt>
      <trkpt lat="42.345697400" lon="-2.500532900">
        <ele>540.90</ele>
        <time>2012-11-10T12:06:19Z</time>
      </trkpt>
      <trkpt lat="42.345751000" lon="-2.500491500">
        <ele>540.40</ele>
        <time>2012-11-10T12:06:22Z</time>
      </trkpt>
      <trkpt lat="42.345899400" lon="-2.500430300">
        <ele>539.40</ele>
        <time>2012-11-10T12:06:27Z</time>
      </trkpt>
      <trkpt lat="42.346186200" lon="-2.500352100">
        <ele>538.00</ele>
        <time>2012-11-10T12:06:36Z</time>
      </trkpt>
      <trkpt lat="42.346402000" lon="-2.500260900">
        <ele>537.00</ele>
        <time>2012-11-10T12:06:41Z</time>
      </trkpt>
      <trkpt lat="42.346619500" lon="-2.500136600">
        <ele>536.60</ele>
        <time>2012-11-10T12:06:48Z</time>
      </trkpt>
      <trkpt lat="42.346689600" lon="-2.500064800">
        <ele>536.10</ele>
        <time>2012-11-10T12:06:50Z</time>
      </trkpt>
      <trkpt lat="42.346958800" lon="-2.499910600">
        <ele>537.00</ele>
        <time>2012-11-10T12:06:55Z</time>
      </trkpt>
      <trkpt lat="42.347004400" lon="-2.499890100">
        <ele>537.00</ele>
        <time>2012-11-10T12:06:57Z</time>
      </trkpt>
      <trkpt lat="42.347186900" lon="-2.499838100">
        <ele>537.50</ele>
        <time>2012-11-10T12:07:00Z</time>
      </trkpt>
      <trkpt lat="42.347375300" lon="-2.499824400">
        <ele>537.50</ele>
        <time>2012-11-10T12:07:04Z</time>
      </trkpt>
      <trkpt lat="42.347794200" lon="-2.499700300">
        <ele>537.50</ele>
        <time>2012-11-10T12:07:13Z</time>
      </trkpt>
      <trkpt lat="42.348126300" lon="-2.499586400">
        <ele>537.50</ele>
        <time>2012-11-10T12:07:21Z</time>
      </trkpt>
      <trkpt lat="42.348318900" lon="-2.499523500">
        <ele>538.00</ele>
        <time>2012-11-10T12:07:25Z</time>
      </trkpt>
      <trkpt lat="42.348774900" lon="-2.499294900">
        <ele>536.60</ele>
        <time>2012-11-10T12:07:35Z</time>
      </trkpt>
      <trkpt lat="42.348867000" lon="-2.499237800">
        <ele>536.10</ele>
        <time>2012-11-10T12:07:37Z</time>
      </trkpt>
      <trkpt lat="42.349105800" lon="-2.499150400">
        <ele>536.10</ele>
        <time>2012-11-10T12:07:42Z</time>
      </trkpt>
      <trkpt lat="42.349408400" lon="-2.499007500">
        <ele>538.00</ele>
        <time>2012-11-10T12:07:49Z</time>
      </trkpt>
      <trkpt lat="42.349541400" lon="-2.498947400">
        <ele>539.00</ele>
        <time>2012-11-10T12:07:51Z</time>
      </trkpt>
      <trkpt lat="42.349707700" lon="-2.498804500">
        <ele>538.50</ele>
        <time>2012-11-10T12:07:56Z</time>
      </trkpt>
      <trkpt lat="42.349886800" lon="-2.498744100">
        <ele>539.40</ele>
        <time>2012-11-10T12:08:00Z</time>
      </trkpt>
      <trkpt lat="42.350134500" lon="-2.498612200">
        <ele>539.00</ele>
        <time>2012-11-10T12:08:05Z</time>
      </trkpt>
      <trkpt lat="42.350175800" lon="-2.498582300">
        <ele>539.00</ele>
        <time>2012-11-10T12:08:07Z</time>
      </trkpt>
      <trkpt lat="42.350401800" lon="-2.498502400">
        <ele>540.90</ele>
        <time>2012-11-10T12:08:12Z</time>
      </trkpt>
      <trkpt lat="42.350758600" lon="-2.498431400">
        <ele>540.90</ele>
        <time>2012-11-10T12:08:19Z</time>
      </trkpt>
      <trkpt lat="42.351025300" lon="-2.498352100">
        <ele>540.90</ele>
        <time>2012-11-10T12:08:26Z</time>
      </trkpt>
      <trkpt lat="42.351294200" lon="-2.498284400">
        <ele>540.40</ele>
        <time>2012-11-10T12:08:33Z</time>
      </trkpt>
      <trkpt lat="42.351575300" lon="-2.498198800">
        <ele>540.90</ele>
        <time>2012-11-10T12:08:38Z</time>
      </trkpt>
      <trkpt lat="42.352029100" lon="-2.498126100">
        <ele>540.90</ele>
        <time>2012-11-10T12:08:47Z</time>
      </trkpt>
      <trkpt lat="42.352332100" lon="-2.498161600">
        <ele>539.40</ele>
        <time>2012-11-10T12:08:54Z</time>
      </trkpt>
      <trkpt lat="42.352427000" lon="-2.498191500">
        <ele>538.50</ele>
        <time>2012-11-10T12:08:57Z</time>
      </trkpt>
      <trkpt lat="42.352598500" lon="-2.498233300">
        <ele>538.50</ele>
        <time>2012-11-10T12:09:04Z</time>
      </trkpt>
      <trkpt lat="42.352732300" lon="-2.498217000">
        <ele>540.40</ele>
        <time>2012-11-10T12:09:09Z</time>
      </trkpt>
      <trkpt lat="42.352831800" lon="-2.498172500">
        <ele>541.80</ele>
        <time>2012-11-10T12:09:13Z</time>
      </trkpt>
      <trkpt lat="42.352988200" lon="-2.498114500">
        <ele>541.80</ele>
        <time>2012-11-10T12:09:18Z</time>
      </trkpt>
      <trkpt lat="42.353163200" lon="-2.498063300">
        <ele>541.80</ele>
        <time>2012-11-10T12:09:23Z</time>
      </trkpt>
      <trkpt lat="42.353340900" lon="-2.498025200">
        <ele>543.80</ele>
        <time>2012-11-10T12:09:27Z</time>
      </trkpt>
      <trkpt lat="42.353495300" lon="-2.497987200">
        <ele>542.80</ele>
        <time>2012-11-10T12:09:32Z</time>
      </trkpt>
      <trkpt lat="42.353572800" lon="-2.497964200">
        <ele>545.70</ele>
        <time>2012-11-10T12:09:35Z</time>
      </trkpt>
      <trkpt lat="42.353725700" lon="-2.497847800">
        <ele>542.80</ele>
        <time>2012-11-10T12:09:41Z</time>
      </trkpt>
      <trkpt lat="42.353761000" lon="-2.497825900">
        <ele>542.30</ele>
        <time>2012-11-10T12:09:41Z</time>
      </trkpt>
      <trkpt lat="42.353954300" lon="-2.497714300">
        <ele>534.60</ele>
        <time>2012-11-10T12:09:48Z</time>
      </trkpt>
      <trkpt lat="42.354128100" lon="-2.497635800">
        <ele>535.10</ele>
        <time>2012-11-10T12:09:53Z</time>
      </trkpt>
      <trkpt lat="42.354257600" lon="-2.497551200">
        <ele>540.40</ele>
        <time>2012-11-10T12:09:55Z</time>
      </trkpt>
      <trkpt lat="42.354386000" lon="-2.497484100">
        <ele>545.70</ele>
        <time>2012-11-10T12:09:58Z</time>
      </trkpt>
      <trkpt lat="42.354454200" lon="-2.497453600">
        <ele>545.20</ele>
        <time>2012-11-10T12:10:00Z</time>
      </trkpt>
      <trkpt lat="42.354819400" lon="-2.497295000">
        <ele>541.80</ele>
        <time>2012-11-10T12:10:09Z</time>
      </trkpt>
      <trkpt lat="42.355139300" lon="-2.497179500">
        <ele>539.40</ele>
        <time>2012-11-10T12:10:17Z</time>
      </trkpt>
      <trkpt lat="42.355373200" lon="-2.497058900">
        <ele>537.50</ele>
        <time>2012-11-10T12:10:23Z</time>
      </trkpt>
      <trkpt lat="42.355476900" lon="-2.496992800">
        <ele>536.60</ele>
        <time>2012-11-10T12:10:26Z</time>
      </trkpt>
      <trkpt lat="42.355552800" lon="-2.496951800">
        <ele>535.60</ele>
        <time>2012-11-10T12:10:28Z</time>
      </trkpt>
      <trkpt lat="42.355700800" lon="-2.496912200">
        <ele>536.10</ele>
        <time>2012-11-10T12:10:33Z</time>
      </trkpt>
      <trkpt lat="42.355794700" lon="-2.496888700">
        <ele>537.00</ele>
        <time>2012-11-10T12:10:38Z</time>
      </trkpt>
      <trkpt lat="42.356022400" lon="-2.496896700">
        <ele>537.50</ele>
        <time>2012-11-10T12:10:43Z</time>
      </trkpt>
      <trkpt lat="42.356273400" lon="-2.496962700">
        <ele>538.00</ele>
        <time>2012-11-10T12:10:49Z</time>
      </trkpt>
      <trkpt lat="42.356525600" lon="-2.496998100">
        <ele>537.50</ele>
        <time>2012-11-10T12:10:56Z</time>
      </trkpt>
      <trkpt lat="42.356742900" lon="-2.496919200">
        <ele>538.00</ele>
        <time>2012-11-10T12:11:01Z</time>
      </trkpt>
      <trkpt lat="42.356832600" lon="-2.496872300">
        <ele>538.00</ele>
        <time>2012-11-10T12:11:03Z</time>
      </trkpt>
      <trkpt lat="42.356972600" lon="-2.496852500">
        <ele>538.50</ele>
        <time>2012-11-10T12:11:06Z</time>
      </trkpt>
      <trkpt lat="42.357158500" lon="-2.496828300">
        <ele>538.50</ele>
        <time>2012-11-10T12:11:11Z</time>
      </trkpt>
      <trkpt lat="42.357202700" lon="-2.496827000">
        <ele>538.50</ele>
        <time>2012-11-10T12:11:11Z</time>
      </trkpt>
      <trkpt lat="42.357339300" lon="-2.496844200">
        <ele>538.50</ele>
        <time>2012-11-10T12:11:15Z</time>
      </trkpt>
      <trkpt lat="42.357543200" lon="-2.496751100">
        <ele>537.50</ele>
        <time>2012-11-10T12:11:20Z</time>
      </trkpt>
      <trkpt lat="42.357583200" lon="-2.496723500">
        <ele>537.50</ele>
        <time>2012-11-10T12:11:20Z</time>
      </trkpt>
      <trkpt lat="42.357669400" lon="-2.496684600">
        <ele>537.50</ele>
        <time>2012-11-10T12:11:22Z</time>
      </trkpt>
      <trkpt lat="42.357820000" lon="-2.496666700">
        <ele>538.00</ele>
        <time>2012-11-10T12:11:25Z</time>
      </trkpt>
      <trkpt lat="42.358007000" lon="-2.496599300">
        <ele>537.50</ele>
        <time>2012-11-10T12:11:29Z</time>
      </trkpt>
      <trkpt lat="42.358096700" lon="-2.496580800">
        <ele>539.40</ele>
        <time>2012-11-10T12:11:32Z</time>
      </trkpt>
      <trkpt lat="42.358185200" lon="-2.496586200">
        <ele>539.90</ele>
        <time>2012-11-10T12:11:34Z</time>
      </trkpt>
      <trkpt lat="42.358383400" lon="-2.496472200">
        <ele>539.40</ele>
        <time>2012-11-10T12:11:39Z</time>
      </trkpt>
      <trkpt lat="42.358587500" lon="-2.496380300">
        <ele>540.90</ele>
        <time>2012-11-10T12:11:43Z</time>
      </trkpt>
      <trkpt lat="42.358714000" lon="-2.496357500">
        <ele>541.40</ele>
        <time>2012-11-10T12:11:46Z</time>
      </trkpt>
      <trkpt lat="42.358918400" lon="-2.496278000">
        <ele>541.40</ele>
        <time>2012-11-10T12:11:51Z</time>
      </trkpt>
      <trkpt lat="42.358999200" lon="-2.496262500">
        <ele>542.30</ele>
        <time>2012-11-10T12:11:53Z</time>
      </trkpt>
      <trkpt lat="42.359343000" lon="-2.496184400">
        <ele>541.40</ele>
        <time>2012-11-10T12:12:02Z</time>
      </trkpt>
      <trkpt lat="42.359512700" lon="-2.496146600">
        <ele>540.40</ele>
        <time>2012-11-10T12:12:05Z</time>
      </trkpt>
      <trkpt lat="42.359692100" lon="-2.496090700">
        <ele>537.50</ele>
        <time>2012-11-10T12:12:09Z</time>
      </trkpt>
      <trkpt lat="42.359769900" lon="-2.496051200">
        <ele>536.60</ele>
        <time>2012-11-10T12:12:12Z</time>
      </trkpt>
      <trkpt lat="42.360007800" lon="-2.495960900">
        <ele>534.60</ele>
        <time>2012-11-10T12:12:19Z</time>
      </trkpt>
      <trkpt lat="42.360194000" lon="-2.495876700">
        <ele>533.20</ele>
        <time>2012-11-10T12:12:24Z</time>
      </trkpt>
      <trkpt lat="42.360446800" lon="-2.495778600">
        <ele>532.20</ele>
        <time>2012-11-10T12:12:31Z</time>
      </trkpt>
      <trkpt lat="42.360878300" lon="-2.495604600">
        <ele>534.10</ele>
        <time>2012-11-10T12:12:42Z</time>
      </trkpt>
      <trkpt lat="42.361136700" lon="-2.495543200">
        <ele>534.10</ele>
        <time>2012-11-10T12:12:47Z</time>
      </trkpt>
      <trkpt lat="42.361319600" lon="-2.495453100">
        <ele>534.10</ele>
        <time>2012-11-10T12:12:52Z</time>
      </trkpt>
      <trkpt lat="42.361599700" lon="-2.495175300">
        <ele>535.10</ele>
        <time>2012-11-10T12:12:59Z</time>
      </trkpt>
      <trkpt lat="42.361634900" lon="-2.495128500">
        <ele>535.10</ele>
        <time>2012-11-10T12:12:59Z</time>
      </trkpt>
      <trkpt lat="42.361813100" lon="-2.494999200">
        <ele>535.60</ele>
        <time>2012-11-10T12:13:05Z</time>
      </trkpt>
      <trkpt lat="42.361918800" lon="-2.494970000">
        <ele>536.10</ele>
        <time>2012-11-10T12:13:08Z</time>
      </trkpt>
      <trkpt lat="42.362139400" lon="-2.494909600">
        <ele>536.60</ele>
        <time>2012-11-10T12:13:13Z</time>
      </trkpt>
      <trkpt lat="42.362403100" lon="-2.494835600">
        <ele>537.00</ele>
        <time>2012-11-10T12:13:20Z</time>
      </trkpt>
      <trkpt lat="42.362635300" lon="-2.494724200">
        <ele>536.60</ele>
        <time>2012-11-10T12:13:27Z</time>
      </trkpt>
      <trkpt lat="42.362674100" lon="-2.494714400">
        <ele>536.60</ele>
        <time>2012-11-10T12:13:27Z</time>
      </trkpt>
      <trkpt lat="42.362918000" lon="-2.494674800">
        <ele>537.50</ele>
        <time>2012-11-10T12:13:34Z</time>
      </trkpt>
      <trkpt lat="42.363040200" lon="-2.494583900">
        <ele>538.50</ele>
        <time>2012-11-10T12:13:38Z</time>
      </trkpt>
      <trkpt lat="42.363192100" lon="-2.494513200">
        <ele>539.40</ele>
        <time>2012-11-10T12:13:43Z</time>
      </trkpt>
      <trkpt lat="42.363390800" lon="-2.494441000">
        <ele>539.40</ele>
        <time>2012-11-10T12:13:50Z</time>
      </trkpt>
      <trkpt lat="42.363654700" lon="-2.494337800">
        <ele>539.40</ele>
        <time>2012-11-10T12:13:57Z</time>
      </trkpt>
      <trkpt lat="42.363885300" lon="-2.494241300">
        <ele>539.40</ele>
        <time>2012-11-10T12:14:04Z</time>
      </trkpt>
      <trkpt lat="42.364104900" lon="-2.494155900">
        <ele>539.40</ele>
        <time>2012-11-10T12:14:11Z</time>
      </trkpt>
      <trkpt lat="42.364274700" lon="-2.494137600">
        <ele>539.00</ele>
        <time>2012-11-10T12:14:16Z</time>
      </trkpt>
      <trkpt lat="42.364522200" lon="-2.494160200">
        <ele>539.40</ele>
        <time>2012-11-10T12:14:23Z</time>
      </trkpt>
      <trkpt lat="42.364765100" lon="-2.494142400">
        <ele>539.40</ele>
        <time>2012-11-10T12:14:30Z</time>
      </trkpt>
      <trkpt lat="42.364958000" lon="-2.494096700">
        <ele>539.40</ele>
        <time>2012-11-10T12:14:35Z</time>
      </trkpt>
      <trkpt lat="42.365236300" lon="-2.494042900">
        <ele>537.50</ele>
        <time>2012-11-10T12:14:42Z</time>
      </trkpt>
      <trkpt lat="42.365477200" lon="-2.493897700">
        <ele>537.00</ele>
        <time>2012-11-10T12:14:49Z</time>
      </trkpt>
      <trkpt lat="42.365774300" lon="-2.493745500">
        <ele>535.60</ele>
        <time>2012-11-10T12:14:56Z</time>
      </trkpt>
      <trkpt lat="42.366032000" lon="-2.493609400">
        <ele>534.60</ele>
        <time>2012-11-10T12:15:03Z</time>
      </trkpt>
      <trkpt lat="42.366291600" lon="-2.493488200">
        <ele>533.70</ele>
        <time>2012-11-10T12:15:10Z</time>
      </trkpt>
      <trkpt lat="42.366411000" lon="-2.493446300">
        <ele>533.20</ele>
        <time>2012-11-10T12:15:13Z</time>
      </trkpt>
      <trkpt lat="42.366575300" lon="-2.493446000">
        <ele>533.20</ele>
        <time>2012-11-10T12:15:17Z</time>
      </trkpt>
      <trkpt lat="42.366701100" lon="-2.493430100">
        <ele>533.70</ele>
        <time>2012-11-10T12:15:20Z</time>
      </trkpt>
      <trkpt lat="42.367072300" lon="-2.493245600">
        <ele>532.70</ele>
        <time>2012-11-10T12:15:29Z</time>
      </trkpt>
      <trkpt lat="42.367435300" lon="-2.493080600">
        <ele>532.20</ele>
        <time>2012-11-10T12:15:38Z</time>
      </trkpt>
      <trkpt lat="42.367729900" lon="-2.492935100">
        <ele>531.30</ele>
        <time>2012-11-10T12:15:45Z</time>
      </trkpt>
      <trkpt lat="42.368066100" lon="-2.492798600">
        <ele>530.80</ele>
        <time>2012-11-10T12:15:54Z</time>
      </trkpt>
      <trkpt lat="42.368182800" lon="-2.492735300">
        <ele>530.30</ele>
        <time>2012-11-10T12:15:57Z</time>
      </trkpt>
      <trkpt lat="42.368553800" lon="-2.492540800">
        <ele>530.30</ele>
        <time>2012-11-10T12:16:06Z</time>
      </trkpt>
      <trkpt lat="42.368750800" lon="-2.492393600">
        <ele>530.80</ele>
        <time>2012-11-10T12:16:11Z</time>
      </trkpt>
      <trkpt lat="42.368887300" lon="-2.492261600">
        <ele>532.70</ele>
        <time>2012-11-10T12:16:14Z</time>
      </trkpt>
      <trkpt lat="42.369108100" lon="-2.492097700">
        <ele>533.20</ele>
        <time>2012-11-10T12:16:21Z</time>
      </trkpt>
      <trkpt lat="42.369345300" lon="-2.491907100">
        <ele>532.70</ele>
        <time>2012-11-10T12:16:25Z</time>
      </trkpt>
      <trkpt lat="42.369658400" lon="-2.491747100">
        <ele>533.20</ele>
        <time>2012-11-10T12:16:32Z</time>
      </trkpt>
      <trkpt lat="42.370011800" lon="-2.491550200">
        <ele>531.30</ele>
        <time>2012-11-10T12:16:41Z</time>
      </trkpt>
      <trkpt lat="42.370256500" lon="-2.491387100">
        <ele>531.30</ele>
        <time>2012-11-10T12:16:46Z</time>
      </trkpt>
      <trkpt lat="42.370295000" lon="-2.491354100">
        <ele>531.30</ele>
        <time>2012-11-10T12:16:48Z</time>
      </trkpt>
      <trkpt lat="42.370404500" lon="-2.491235500">
        <ele>531.70</ele>
        <time>2012-11-10T12:16:51Z</time>
      </trkpt>
      <trkpt lat="42.370569900" lon="-2.491100200">
        <ele>532.70</ele>
        <time>2012-11-10T12:16:54Z</time>
      </trkpt>
      <trkpt lat="42.370742500" lon="-2.491004700">
        <ele>533.20</ele>
        <time>2012-11-10T12:16:58Z</time>
      </trkpt>
      <trkpt lat="42.371021700" lon="-2.490958900">
        <ele>533.70</ele>
        <time>2012-11-10T12:17:05Z</time>
      </trkpt>
      <trkpt lat="42.371064900" lon="-2.490938500">
        <ele>533.70</ele>
        <time>2012-11-10T12:17:05Z</time>
      </trkpt>
      <trkpt lat="42.371229000" lon="-2.490816400">
        <ele>534.10</ele>
        <time>2012-11-10T12:17:10Z</time>
      </trkpt>
      <trkpt lat="42.371562400" lon="-2.490729300">
        <ele>535.60</ele>
        <time>2012-11-10T12:17:17Z</time>
      </trkpt>
      <trkpt lat="42.371941700" lon="-2.490663400">
        <ele>535.60</ele>
        <time>2012-11-10T12:17:24Z</time>
      </trkpt>
      <trkpt lat="42.372246500" lon="-2.490528400">
        <ele>535.10</ele>
        <time>2012-11-10T12:17:31Z</time>
      </trkpt>
      <trkpt lat="42.372286500" lon="-2.490498800">
        <ele>535.10</ele>
        <time>2012-11-10T12:17:33Z</time>
      </trkpt>
      <trkpt lat="42.372676500" lon="-2.490281600">
        <ele>534.10</ele>
        <time>2012-11-10T12:17:42Z</time>
      </trkpt>
      <trkpt lat="42.372861700" lon="-2.490206400">
        <ele>534.10</ele>
        <time>2012-11-10T12:17:45Z</time>
      </trkpt>
      <trkpt lat="42.373177900" lon="-2.490023000">
        <ele>532.70</ele>
        <time>2012-11-10T12:17:52Z</time>
      </trkpt>
      <trkpt lat="42.373420400" lon="-2.490003200">
        <ele>532.70</ele>
        <time>2012-11-10T12:17:57Z</time>
      </trkpt>
      <trkpt lat="42.373822300" lon="-2.490016500">
        <ele>533.70</ele>
        <time>2012-11-10T12:18:06Z</time>
      </trkpt>
      <trkpt lat="42.374183300" lon="-2.489961600">
        <ele>534.60</ele>
        <time>2012-11-10T12:18:13Z</time>
      </trkpt>
      <trkpt lat="42.374272500" lon="-2.489966300">
        <ele>535.10</ele>
        <time>2012-11-10T12:18:15Z</time>
      </trkpt>
      <trkpt lat="42.374408400" lon="-2.489985900">
        <ele>535.10</ele>
        <time>2012-11-10T12:18:18Z</time>
      </trkpt>
      <trkpt lat="42.374771700" lon="-2.490055600">
        <ele>536.10</ele>
        <time>2012-11-10T12:18:25Z</time>
      </trkpt>
      <trkpt lat="42.375069800" lon="-2.490027800">
        <ele>536.60</ele>
        <time>2012-11-10T12:18:32Z</time>
      </trkpt>
      <trkpt lat="42.375302700" lon="-2.490078400">
        <ele>536.60</ele>
        <time>2012-11-10T12:18:37Z</time>
      </trkpt>
      <trkpt lat="42.375436300" lon="-2.490108900">
        <ele>537.00</ele>
        <time>2012-11-10T12:18:39Z</time>
      </trkpt>
      <trkpt lat="42.375572900" lon="-2.490146800">
        <ele>537.00</ele>
        <time>2012-11-10T12:18:42Z</time>
      </trkpt>
      <trkpt lat="42.375810500" lon="-2.490120200">
        <ele>537.00</ele>
        <time>2012-11-10T12:18:48Z</time>
      </trkpt>
      <trkpt lat="42.375858100" lon="-2.490091500">
        <ele>537.50</ele>
        <time>2012-11-10T12:18:48Z</time>
      </trkpt>
      <trkpt lat="42.376258900" lon="-2.489872000">
        <ele>537.50</ele>
        <time>2012-11-10T12:18:56Z</time>
      </trkpt>
      <trkpt lat="42.376528400" lon="-2.489776000">
        <ele>537.50</ele>
        <time>2012-11-10T12:19:02Z</time>
      </trkpt>
      <trkpt lat="42.376684700" lon="-2.489778400">
        <ele>537.50</ele>
        <time>2012-11-10T12:19:07Z</time>
      </trkpt>
      <trkpt lat="42.376916500" lon="-2.489793800">
        <ele>537.00</ele>
        <time>2012-11-10T12:19:12Z</time>
      </trkpt>
      <trkpt lat="42.377229400" lon="-2.489782200">
        <ele>537.00</ele>
        <time>2012-11-10T12:19:19Z</time>
      </trkpt>
      <trkpt lat="42.377632300" lon="-2.489805700">
        <ele>536.10</ele>
        <time>2012-11-10T12:19:28Z</time>
      </trkpt>
      <trkpt lat="42.377789200" lon="-2.489824300">
        <ele>536.10</ele>
        <time>2012-11-10T12:19:33Z</time>
      </trkpt>
      <trkpt lat="42.378022800" lon="-2.489846300">
        <ele>536.10</ele>
        <time>2012-11-10T12:19:40Z</time>
      </trkpt>
      <trkpt lat="42.378224000" lon="-2.489860500">
        <ele>536.10</ele>
        <time>2012-11-10T12:19:45Z</time>
      </trkpt>
      <trkpt lat="42.378302200" lon="-2.489833600">
        <ele>536.60</ele>
        <time>2012-11-10T12:19:47Z</time>
      </trkpt>
      <trkpt lat="42.378529500" lon="-2.489692800">
        <ele>536.10</ele>
        <time>2012-11-10T12:19:52Z</time>
      </trkpt>
      <trkpt lat="42.378956300" lon="-2.489551300">
        <ele>536.10</ele>
        <time>2012-11-10T12:20:03Z</time>
      </trkpt>
      <trkpt lat="42.379086800" lon="-2.489522500">
        <ele>536.10</ele>
        <time>2012-11-10T12:20:06Z</time>
      </trkpt>
      <trkpt lat="42.379215300" lon="-2.489517000">
        <ele>536.10</ele>
        <time>2012-11-10T12:20:08Z</time>
      </trkpt>
      <trkpt lat="42.379521900" lon="-2.489453400">
        <ele>536.10</ele>
        <time>2012-11-10T12:20:15Z</time>
      </trkpt>
      <trkpt lat="42.379837000" lon="-2.489399600">
        <ele>537.00</ele>
        <time>2012-11-10T12:20:22Z</time>
      </trkpt>
      <trkpt lat="42.380069800" lon="-2.489380100">
        <ele>537.00</ele>
        <time>2012-11-10T12:20:29Z</time>
      </trkpt>
      <trkpt lat="42.380298400" lon="-2.489358600">
        <ele>537.00</ele>
        <time>2012-11-10T12:20:34Z</time>
      </trkpt>
      <trkpt lat="42.380574300" lon="-2.489328300">
        <ele>538.00</ele>
        <time>2012-11-10T12:20:39Z</time>
      </trkpt>
      <trkpt lat="42.380838600" lon="-2.489301500">
        <ele>538.00</ele>
        <time>2012-11-10T12:20:46Z</time>
      </trkpt>
      <trkpt lat="42.381080500" lon="-2.489284700">
        <ele>538.50</ele>
        <time>2012-11-10T12:20:51Z</time>
      </trkpt>
      <trkpt lat="42.381290400" lon="-2.489322000">
        <ele>539.00</ele>
        <time>2012-11-10T12:20:58Z</time>
      </trkpt>
      <trkpt lat="42.381521400" lon="-2.489348800">
        <ele>539.00</ele>
        <time>2012-11-10T12:21:04Z</time>
      </trkpt>
      <trkpt lat="42.381777200" lon="-2.489358800">
        <ele>538.50</ele>
        <time>2012-11-10T12:21:09Z</time>
      </trkpt>
      <trkpt lat="42.382103000" lon="-2.489346800">
        <ele>538.50</ele>
        <time>2012-11-10T12:21:16Z</time>
      </trkpt>
      <trkpt lat="42.382489400" lon="-2.489297500">
        <ele>538.00</ele>
        <time>2012-11-10T12:21:24Z</time>
      </trkpt>
      <trkpt lat="42.382539800" lon="-2.489291600">
        <ele>538.00</ele>
        <time>2012-11-10T12:21:26Z</time>
      </trkpt>
      <trkpt lat="42.382679700" lon="-2.489231300">
        <ele>537.50</ele>
        <time>2012-11-10T12:21:28Z</time>
      </trkpt>
      <trkpt lat="42.382868000" lon="-2.489230700">
        <ele>537.00</ele>
        <time>2012-11-10T12:21:33Z</time>
      </trkpt>
      <trkpt lat="42.382913300" lon="-2.489261200">
        <ele>537.00</ele>
        <time>2012-11-10T12:21:33Z</time>
      </trkpt>
      <trkpt lat="42.383226500" lon="-2.489416400">
        <ele>535.10</ele>
        <time>2012-11-10T12:21:40Z</time>
      </trkpt>
      <trkpt lat="42.383368700" lon="-2.489352900">
        <ele>533.70</ele>
        <time>2012-11-10T12:21:45Z</time>
      </trkpt>
      <trkpt lat="42.383402700" lon="-2.489276000">
        <ele>533.20</ele>
        <time>2012-11-10T12:21:47Z</time>
      </trkpt>
      <trkpt lat="42.383581800" lon="-2.489052400">
        <ele>533.20</ele>
        <time>2012-11-10T12:21:54Z</time>
      </trkpt>
      <trkpt lat="42.383679900" lon="-2.488995800">
        <ele>533.20</ele>
        <time>2012-11-10T12:21:58Z</time>
      </trkpt>
      <trkpt lat="42.383860200" lon="-2.488985100">
        <ele>533.20</ele>
        <time>2012-11-10T12:22:03Z</time>
      </trkpt>
      <trkpt lat="42.384086400" lon="-2.488975900">
        <ele>533.20</ele>
        <time>2012-11-10T12:22:10Z</time>
      </trkpt>
      <trkpt lat="42.384256500" lon="-2.489082400">
        <ele>532.70</ele>
        <time>2012-11-10T12:22:15Z</time>
      </trkpt>
      <trkpt lat="42.384509700" lon="-2.489241300">
        <ele>533.20</ele>
        <time>2012-11-10T12:22:20Z</time>
      </trkpt>
      <trkpt lat="42.384743900" lon="-2.489332300">
        <ele>533.20</ele>
        <time>2012-11-10T12:22:25Z</time>
      </trkpt>
      <trkpt lat="42.384808400" lon="-2.489362700">
        <ele>532.70</ele>
        <time>2012-11-10T12:22:27Z</time>
      </trkpt>
      <trkpt lat="42.384908200" lon="-2.489429600">
        <ele>533.20</ele>
        <time>2012-11-10T12:22:31Z</time>
      </trkpt>
      <trkpt lat="42.385081700" lon="-2.489550700">
        <ele>532.20</ele>
        <time>2012-11-10T12:22:36Z</time>
      </trkpt>
      <trkpt lat="42.385328700" lon="-2.489752700">
        <ele>531.70</ele>
        <time>2012-11-10T12:22:43Z</time>
      </trkpt>
      <trkpt lat="42.385504600" lon="-2.489916800">
        <ele>532.70</ele>
        <time>2012-11-10T12:22:50Z</time>
      </trkpt>
      <trkpt lat="42.385719400" lon="-2.490113300">
        <ele>533.20</ele>
        <time>2012-11-10T12:22:57Z</time>
      </trkpt>
      <trkpt lat="42.385963700" lon="-2.490337600">
        <ele>533.20</ele>
        <time>2012-11-10T12:23:04Z</time>
      </trkpt>
      <trkpt lat="42.386136200" lon="-2.490525000">
        <ele>533.20</ele>
        <time>2012-11-10T12:23:11Z</time>
      </trkpt>
      <trkpt lat="42.386267200" lon="-2.490821600">
        <ele>533.20</ele>
        <time>2012-11-10T12:23:18Z</time>
      </trkpt>
      <trkpt lat="42.386287300" lon="-2.490987600">
        <ele>532.70</ele>
        <time>2012-11-10T12:23:23Z</time>
      </trkpt>
      <trkpt lat="42.386238800" lon="-2.491144300">
        <ele>531.70</ele>
        <time>2012-11-10T12:23:26Z</time>
      </trkpt>
      <trkpt lat="42.386150100" lon="-2.491385200">
        <ele>532.20</ele>
        <time>2012-11-10T12:23:32Z</time>
      </trkpt>
      <trkpt lat="42.386101300" lon="-2.491610000">
        <ele>532.70</ele>
        <time>2012-11-10T12:23:35Z</time>
      </trkpt>
      <trkpt lat="42.386071400" lon="-2.491715400">
        <ele>532.20</ele>
        <time>2012-11-10T12:23:37Z</time>
      </trkpt>
      <trkpt lat="42.386013000" lon="-2.491856300">
        <ele>532.20</ele>
        <time>2012-11-10T12:23:40Z</time>
      </trkpt>
      <trkpt lat="42.385987500" lon="-2.491952300">
        <ele>532.20</ele>
        <time>2012-11-10T12:23:42Z</time>
      </trkpt>
      <trkpt lat="42.385983700" lon="-2.492163100">
        <ele>532.20</ele>
        <time>2012-11-10T12:23:47Z</time>
      </trkpt>
      <trkpt lat="42.386019700" lon="-2.492575900">
        <ele>532.20</ele>
        <time>2012-11-10T12:23:54Z</time>
      </trkpt>
      <trkpt lat="42.386021300" lon="-2.492772900">
        <ele>532.20</ele>
        <time>2012-11-10T12:23:56Z</time>
      </trkpt>
      <trkpt lat="42.386051800" lon="-2.493273400">
        <ele>532.70</ele>
        <time>2012-11-10T12:24:05Z</time>
      </trkpt>
      <trkpt lat="42.386075700" lon="-2.493659000">
        <ele>532.20</ele>
        <time>2012-11-10T12:24:10Z</time>
      </trkpt>
      <trkpt lat="42.386178000" lon="-2.494253700">
        <ele>532.70</ele>
        <time>2012-11-10T12:24:19Z</time>
      </trkpt>
      <trkpt lat="42.386225900" lon="-2.494671400">
        <ele>533.70</ele>
        <time>2012-11-10T12:24:26Z</time>
      </trkpt>
      <trkpt lat="42.386230300" lon="-2.494727300">
        <ele>533.70</ele>
        <time>2012-11-10T12:24:27Z</time>
      </trkpt>
      <trkpt lat="42.386339500" lon="-2.494986200">
        <ele>533.20</ele>
        <time>2012-11-10T12:24:33Z</time>
      </trkpt>
      <trkpt lat="42.386458200" lon="-2.495190200">
        <ele>533.20</ele>
        <time>2012-11-10T12:24:36Z</time>
      </trkpt>
      <trkpt lat="42.386511800" lon="-2.495496800">
        <ele>532.70</ele>
        <time>2012-11-10T12:24:41Z</time>
      </trkpt>
      <trkpt lat="42.386500700" lon="-2.495561200">
        <ele>532.70</ele>
        <time>2012-11-10T12:24:43Z</time>
      </trkpt>
      <trkpt lat="42.386442800" lon="-2.495807400">
        <ele>532.70</ele>
        <time>2012-11-10T12:24:47Z</time>
      </trkpt>
      <trkpt lat="42.386420600" lon="-2.496107800">
        <ele>532.70</ele>
        <time>2012-11-10T12:24:52Z</time>
      </trkpt>
      <trkpt lat="42.386311500" lon="-2.496649400">
        <ele>533.20</ele>
        <time>2012-11-10T12:24:59Z</time>
      </trkpt>
      <trkpt lat="42.386249800" lon="-2.497052100">
        <ele>533.20</ele>
        <time>2012-11-10T12:25:04Z</time>
      </trkpt>
      <trkpt lat="42.386281900" lon="-2.497438300">
        <ele>533.20</ele>
        <time>2012-11-10T12:25:09Z</time>
      </trkpt>
      <trkpt lat="42.386314100" lon="-2.497506200">
        <ele>532.70</ele>
        <time>2012-11-10T12:25:11Z</time>
      </trkpt>
      <trkpt lat="42.386425500" lon="-2.497901600">
        <ele>532.70</ele>
        <time>2012-11-10T12:25:16Z</time>
      </trkpt>
      <trkpt lat="42.386423700" lon="-2.498227800">
        <ele>533.20</ele>
        <time>2012-11-10T12:25:20Z</time>
      </trkpt>
      <trkpt lat="42.386468200" lon="-2.498528900">
        <ele>533.20</ele>
        <time>2012-11-10T12:25:23Z</time>
      </trkpt>
      <trkpt lat="42.386619800" lon="-2.498921200">
        <ele>531.70</ele>
        <time>2012-11-10T12:25:28Z</time>
      </trkpt>
      <trkpt lat="42.386888800" lon="-2.499453000">
        <ele>530.30</ele>
        <time>2012-11-10T12:25:35Z</time>
      </trkpt>
      <trkpt lat="42.387006000" lon="-2.499665600">
        <ele>530.30</ele>
        <time>2012-11-10T12:25:39Z</time>
      </trkpt>
      <trkpt lat="42.387114400" lon="-2.500174400">
        <ele>529.30</ele>
        <time>2012-11-10T12:25:44Z</time>
      </trkpt>
      <trkpt lat="42.387141800" lon="-2.500780600">
        <ele>530.30</ele>
        <time>2012-11-10T12:25:51Z</time>
      </trkpt>
      <trkpt lat="42.387233800" lon="-2.501365800">
        <ele>531.30</ele>
        <time>2012-11-10T12:25:58Z</time>
      </trkpt>
      <trkpt lat="42.387500200" lon="-2.502136800">
        <ele>531.30</ele>
        <time>2012-11-10T12:26:08Z</time>
      </trkpt>
      <trkpt lat="42.387531200" lon="-2.502210900">
        <ele>531.70</ele>
        <time>2012-11-10T12:26:10Z</time>
      </trkpt>
      <trkpt lat="42.387600600" lon="-2.502536100">
        <ele>531.70</ele>
        <time>2012-11-10T12:26:14Z</time>
      </trkpt>
      <trkpt lat="42.387664300" lon="-2.503089200">
        <ele>531.70</ele>
        <time>2012-11-10T12:26:21Z</time>
      </trkpt>
      <trkpt lat="42.387740200" lon="-2.503204900">
        <ele>532.20</ele>
        <time>2012-11-10T12:26:24Z</time>
      </trkpt>
      <trkpt lat="42.387832600" lon="-2.503146700">
        <ele>532.70</ele>
        <time>2012-11-10T12:26:31Z</time>
      </trkpt>
      <trkpt lat="42.387872300" lon="-2.503107800">
        <ele>532.20</ele>
        <time>2012-11-10T12:26:36Z</time>
      </trkpt>
      <trkpt lat="42.387876900" lon="-2.503097000">
        <ele>531.30</ele>
        <time>2012-11-10T12:26:43Z</time>
      </trkpt>
      <trkpt lat="42.388003800" lon="-2.503029400">
        <ele>530.30</ele>
        <time>2012-11-10T12:26:50Z</time>
      </trkpt>
      <trkpt lat="42.388169400" lon="-2.502888500">
        <ele>529.80</ele>
        <time>2012-11-10T12:26:54Z</time>
      </trkpt>
      <trkpt lat="42.388348800" lon="-2.502682600">
        <ele>529.80</ele>
        <time>2012-11-10T12:27:01Z</time>
      </trkpt>
      <trkpt lat="42.388443500" lon="-2.502588800">
        <ele>529.30</ele>
        <time>2012-11-10T12:27:04Z</time>
      </trkpt>
      <trkpt lat="42.388670700" lon="-2.502264500">
        <ele>529.30</ele>
        <time>2012-11-10T12:27:09Z</time>
      </trkpt>
      <trkpt lat="42.388949500" lon="-2.501860000">
        <ele>528.90</ele>
        <time>2012-11-10T12:27:16Z</time>
      </trkpt>
      <trkpt lat="42.389200200" lon="-2.501415200">
        <ele>528.90</ele>
        <time>2012-11-10T12:27:23Z</time>
      </trkpt>
      <trkpt lat="42.389445300" lon="-2.500902900">
        <ele>529.30</ele>
        <time>2012-11-10T12:27:32Z</time>
      </trkpt>
      <trkpt lat="42.389633400" lon="-2.500495300">
        <ele>530.30</ele>
        <time>2012-11-10T12:27:39Z</time>
      </trkpt>
      <trkpt lat="42.389894800" lon="-2.500197900">
        <ele>528.40</ele>
        <time>2012-11-10T12:27:46Z</time>
      </trkpt>
      <trkpt lat="42.390257100" lon="-2.499746600">
        <ele>528.40</ele>
        <time>2012-11-10T12:27:55Z</time>
      </trkpt>
      <trkpt lat="42.390665000" lon="-2.499158100">
        <ele>529.30</ele>
        <time>2012-11-10T12:28:05Z</time>
      </trkpt>
      <trkpt lat="42.390977100" lon="-2.498788200">
        <ele>528.40</ele>
        <time>2012-11-10T12:28:12Z</time>
      </trkpt>
      <trkpt lat="42.391518100" lon="-2.498161500">
        <ele>527.40</ele>
        <time>2012-11-10T12:28:24Z</time>
      </trkpt>
      <trkpt lat="42.391908000" lon="-2.497740500">
        <ele>527.90</ele>
        <time>2012-11-10T12:28:33Z</time>
      </trkpt>
      <trkpt lat="42.392113100" lon="-2.497399500">
        <ele>528.40</ele>
        <time>2012-11-10T12:28:38Z</time>
      </trkpt>
      <trkpt lat="42.392233700" lon="-2.497059900">
        <ele>529.30</ele>
        <time>2012-11-10T12:28:43Z</time>
      </trkpt>
      <trkpt lat="42.392461900" lon="-2.496595600">
        <ele>529.30</ele>
        <time>2012-11-10T12:28:50Z</time>
      </trkpt>
      <trkpt lat="42.392725600" lon="-2.496141900">
        <ele>529.80</ele>
        <time>2012-11-10T12:28:57Z</time>
      </trkpt>
      <trkpt lat="42.393069300" lon="-2.495444100">
        <ele>529.80</ele>
        <time>2012-11-10T12:29:08Z</time>
      </trkpt>
      <trkpt lat="42.393332700" lon="-2.494873300">
        <ele>529.30</ele>
        <time>2012-11-10T12:29:15Z</time>
      </trkpt>
      <trkpt lat="42.393597900" lon="-2.494439800">
        <ele>524.10</ele>
        <time>2012-11-10T12:29:22Z</time>
      </trkpt>
      <trkpt lat="42.393791100" lon="-2.494131000">
        <ele>521.70</ele>
        <time>2012-11-10T12:29:25Z</time>
      </trkpt>
      <trkpt lat="42.394067000" lon="-2.493657900">
        <ele>520.70</ele>
        <time>2012-11-10T12:29:32Z</time>
      </trkpt>
      <trkpt lat="42.394419300" lon="-2.493203400">
        <ele>519.20</ele>
        <time>2012-11-10T12:29:39Z</time>
      </trkpt>
      <trkpt lat="42.394668300" lon="-2.492880500">
        <ele>519.20</ele>
        <time>2012-11-10T12:29:43Z</time>
      </trkpt>
      <trkpt lat="42.394906300" lon="-2.492357300">
        <ele>519.70</ele>
        <time>2012-11-10T12:29:50Z</time>
      </trkpt>
      <trkpt lat="42.395107600" lon="-2.491732400">
        <ele>519.20</ele>
        <time>2012-11-10T12:29:58Z</time>
      </trkpt>
      <trkpt lat="42.395311100" lon="-2.491041400">
        <ele>520.20</ele>
        <time>2012-11-10T12:30:07Z</time>
      </trkpt>
      <trkpt lat="42.395461600" lon="-2.490537100">
        <ele>521.20</ele>
        <time>2012-11-10T12:30:14Z</time>
      </trkpt>
      <trkpt lat="42.395576600" lon="-2.490174400">
        <ele>521.20</ele>
        <time>2012-11-10T12:30:21Z</time>
      </trkpt>
      <trkpt lat="42.395602100" lon="-2.490119000">
        <ele>521.20</ele>
        <time>2012-11-10T12:30:21Z</time>
      </trkpt>
      <trkpt lat="42.395660000" lon="-2.490019100">
        <ele>521.20</ele>
        <time>2012-11-10T12:30:23Z</time>
      </trkpt>
      <trkpt lat="42.395793200" lon="-2.489867000">
        <ele>520.20</ele>
        <time>2012-11-10T12:30:28Z</time>
      </trkpt>
      <trkpt lat="42.395953300" lon="-2.489700000">
        <ele>519.20</ele>
        <time>2012-11-10T12:30:33Z</time>
      </trkpt>
      <trkpt lat="42.396176900" lon="-2.489539800">
        <ele>518.30</ele>
        <time>2012-11-10T12:30:37Z</time>
      </trkpt>
      <trkpt lat="42.396222100" lon="-2.489391400">
        <ele>518.30</ele>
        <time>2012-11-10T12:30:40Z</time>
      </trkpt>
      <trkpt lat="42.396223500" lon="-2.488979000">
        <ele>516.80</ele>
        <time>2012-11-10T12:30:45Z</time>
      </trkpt>
      <trkpt lat="42.396180400" lon="-2.488828600">
        <ele>514.90</ele>
        <time>2012-11-10T12:30:47Z</time>
      </trkpt>
      <trkpt lat="42.396177500" lon="-2.488492600">
        <ele>513.00</ele>
        <time>2012-11-10T12:30:51Z</time>
      </trkpt>
      <trkpt lat="42.396276300" lon="-2.488189200">
        <ele>512.50</ele>
        <time>2012-11-10T12:30:54Z</time>
      </trkpt>
      <trkpt lat="42.396291100" lon="-2.488103200">
        <ele>512.00</ele>
        <time>2012-11-10T12:30:56Z</time>
      </trkpt>
      <trkpt lat="42.396306000" lon="-2.487809200">
        <ele>511.60</ele>
        <time>2012-11-10T12:30:59Z</time>
      </trkpt>
      <trkpt lat="42.396395900" lon="-2.487530900">
        <ele>509.20</ele>
        <time>2012-11-10T12:31:03Z</time>
      </trkpt>
      <trkpt lat="42.396447100" lon="-2.487476900">
        <ele>508.20</ele>
        <time>2012-11-10T12:31:03Z</time>
      </trkpt>
      <trkpt lat="42.396536600" lon="-2.487382200">
        <ele>506.30</ele>
        <time>2012-11-10T12:31:06Z</time>
      </trkpt>
      <trkpt lat="42.396604300" lon="-2.487243200">
        <ele>503.90</ele>
        <time>2012-11-10T12:31:08Z</time>
      </trkpt>
      <trkpt lat="42.396769100" lon="-2.487026000">
        <ele>501.50</ele>
        <time>2012-11-10T12:31:13Z</time>
      </trkpt>
      <trkpt lat="42.396892300" lon="-2.486936400">
        <ele>500.00</ele>
        <time>2012-11-10T12:31:15Z</time>
      </trkpt>
      <trkpt lat="42.397139600" lon="-2.486653000">
        <ele>494.70</ele>
        <time>2012-11-10T12:31:20Z</time>
      </trkpt>
      <trkpt lat="42.397346800" lon="-2.486358000">
        <ele>489.90</ele>
        <time>2012-11-10T12:31:24Z</time>
      </trkpt>
      <trkpt lat="42.397622800" lon="-2.485975000">
        <ele>484.20</ele>
        <time>2012-11-10T12:31:29Z</time>
      </trkpt>
      <trkpt lat="42.397719700" lon="-2.485828600">
        <ele>482.20</ele>
        <time>2012-11-10T12:31:31Z</time>
      </trkpt>
      <trkpt lat="42.398085400" lon="-2.485314700">
        <ele>477.40</ele>
        <time>2012-11-10T12:31:36Z</time>
      </trkpt>
      <trkpt lat="42.398523500" lon="-2.484749600">
        <ele>473.10</ele>
        <time>2012-11-10T12:31:43Z</time>
      </trkpt>
      <trkpt lat="42.398766500" lon="-2.484504000">
        <ele>471.70</ele>
        <time>2012-11-10T12:31:46Z</time>
      </trkpt>
      <trkpt lat="42.399021200" lon="-2.484159200">
        <ele>471.70</ele>
        <time>2012-11-10T12:31:50Z</time>
      </trkpt>
      <trkpt lat="42.399240400" lon="-2.483776000">
        <ele>470.20</ele>
        <time>2012-11-10T12:31:55Z</time>
      </trkpt>
      <trkpt lat="42.399685500" lon="-2.483046000">
        <ele>468.30</ele>
        <time>2012-11-10T12:32:07Z</time>
      </trkpt>
      <trkpt lat="42.399849300" lon="-2.482700000">
        <ele>466.90</ele>
        <time>2012-11-10T12:32:11Z</time>
      </trkpt>
      <trkpt lat="42.400087900" lon="-2.482060600">
        <ele>466.90</ele>
        <time>2012-11-10T12:32:21Z</time>
      </trkpt>
      <trkpt lat="42.400332400" lon="-2.481342200">
        <ele>466.90</ele>
        <time>2012-11-10T12:32:30Z</time>
      </trkpt>
      <trkpt lat="42.400489500" lon="-2.480964700">
        <ele>468.30</ele>
        <time>2012-11-10T12:32:37Z</time>
      </trkpt>
      <trkpt lat="42.400601300" lon="-2.480730400">
        <ele>469.30</ele>
        <time>2012-11-10T12:32:40Z</time>
      </trkpt>
      <trkpt lat="42.400661800" lon="-2.480613200">
        <ele>470.20</ele>
        <time>2012-11-10T12:32:42Z</time>
      </trkpt>
      <trkpt lat="42.400870700" lon="-2.480194200">
        <ele>471.20</ele>
        <time>2012-11-10T12:32:49Z</time>
      </trkpt>
      <trkpt lat="42.401160000" lon="-2.479621800">
        <ele>469.70</ele>
        <time>2012-11-10T12:32:58Z</time>
      </trkpt>
      <trkpt lat="42.401306600" lon="-2.479290400">
        <ele>469.30</ele>
        <time>2012-11-10T12:33:03Z</time>
      </trkpt>
      <trkpt lat="42.401479600" lon="-2.478816600">
        <ele>468.30</ele>
        <time>2012-11-10T12:33:10Z</time>
      </trkpt>
      <trkpt lat="42.401654800" lon="-2.478272700">
        <ele>467.30</ele>
        <time>2012-11-10T12:33:19Z</time>
      </trkpt>
      <trkpt lat="42.401883200" lon="-2.477617400">
        <ele>467.30</ele>
        <time>2012-11-10T12:33:29Z</time>
      </trkpt>
      <trkpt lat="42.401999800" lon="-2.477381200">
        <ele>467.80</ele>
        <time>2012-11-10T12:33:33Z</time>
      </trkpt>
      <trkpt lat="42.402064200" lon="-2.477051000">
        <ele>468.80</ele>
        <time>2012-11-10T12:33:38Z</time>
      </trkpt>
      <trkpt lat="42.402199400" lon="-2.476506200">
        <ele>468.80</ele>
        <time>2012-11-10T12:33:45Z</time>
      </trkpt>
      <trkpt lat="42.402348500" lon="-2.476127200">
        <ele>469.30</ele>
        <time>2012-11-10T12:33:52Z</time>
      </trkpt>
      <trkpt lat="42.402592400" lon="-2.475684800">
        <ele>468.80</ele>
        <time>2012-11-10T12:33:59Z</time>
      </trkpt>
      <trkpt lat="42.403072000" lon="-2.475013800">
        <ele>466.40</ele>
        <time>2012-11-10T12:34:09Z</time>
      </trkpt>
      <trkpt lat="42.403434000" lon="-2.474511900">
        <ele>464.00</ele>
        <time>2012-11-10T12:34:18Z</time>
      </trkpt>
      <trkpt lat="42.403827200" lon="-2.473922400">
        <ele>462.50</ele>
        <time>2012-11-10T12:34:27Z</time>
      </trkpt>
      <trkpt lat="42.404095500" lon="-2.473572900">
        <ele>463.00</ele>
        <time>2012-11-10T12:34:32Z</time>
      </trkpt>
      <trkpt lat="42.404431800" lon="-2.473104500">
        <ele>464.50</ele>
        <time>2012-11-10T12:34:41Z</time>
      </trkpt>
      <trkpt lat="42.404583700" lon="-2.472852000">
        <ele>464.50</ele>
        <time>2012-11-10T12:34:44Z</time>
      </trkpt>
      <trkpt lat="42.405050400" lon="-2.472117300">
        <ele>463.50</ele>
        <time>2012-11-10T12:34:56Z</time>
      </trkpt>
      <trkpt lat="42.405401900" lon="-2.471615100">
        <ele>465.40</ele>
        <time>2012-11-10T12:35:05Z</time>
      </trkpt>
      <trkpt lat="42.405692700" lon="-2.471165300">
        <ele>465.90</ele>
        <time>2012-11-10T12:35:14Z</time>
      </trkpt>
      <trkpt lat="42.405990800" lon="-2.470793300">
        <ele>467.30</ele>
        <time>2012-11-10T12:35:22Z</time>
      </trkpt>
      <trkpt lat="42.406177000" lon="-2.470577600">
        <ele>465.90</ele>
        <time>2012-11-10T12:35:26Z</time>
      </trkpt>
      <trkpt lat="42.406385600" lon="-2.470236800">
        <ele>464.90</ele>
        <time>2012-11-10T12:35:33Z</time>
      </trkpt>
      <trkpt lat="42.406618800" lon="-2.469909900">
        <ele>464.50</ele>
        <time>2012-11-10T12:35:40Z</time>
      </trkpt>
      <trkpt lat="42.406755300" lon="-2.469722000">
        <ele>464.00</ele>
        <time>2012-11-10T12:35:45Z</time>
      </trkpt>
      <trkpt lat="42.406818500" lon="-2.469641700">
        <ele>464.00</ele>
        <time>2012-11-10T12:35:47Z</time>
      </trkpt>
      <trkpt lat="42.407061700" lon="-2.469376500">
        <ele>463.50</ele>
        <time>2012-11-10T12:35:54Z</time>
      </trkpt>
      <trkpt lat="42.407260500" lon="-2.469198300">
        <ele>461.60</ele>
        <time>2012-11-10T12:35:57Z</time>
      </trkpt>
      <trkpt lat="42.407307900" lon="-2.469153800">
        <ele>461.60</ele>
        <time>2012-11-10T12:35:59Z</time>
      </trkpt>
      <trkpt lat="42.407618100" lon="-2.468699100">
        <ele>462.10</ele>
        <time>2012-11-10T12:36:06Z</time>
      </trkpt>
      <trkpt lat="42.407842800" lon="-2.468268100">
        <ele>462.10</ele>
        <time>2012-11-10T12:36:13Z</time>
      </trkpt>
      <trkpt lat="42.408078600" lon="-2.467808500">
        <ele>461.60</ele>
        <time>2012-11-10T12:36:20Z</time>
      </trkpt>
      <trkpt lat="42.408159600" lon="-2.467669600">
        <ele>461.60</ele>
        <time>2012-11-10T12:36:23Z</time>
      </trkpt>
      <trkpt lat="42.408586100" lon="-2.467123900">
        <ele>461.10</ele>
        <time>2012-11-10T12:36:32Z</time>
      </trkpt>
      <trkpt lat="42.408667900" lon="-2.466994800">
        <ele>460.60</ele>
        <time>2012-11-10T12:36:34Z</time>
      </trkpt>
      <trkpt lat="42.408970900" lon="-2.466658500">
        <ele>459.60</ele>
        <time>2012-11-10T12:36:41Z</time>
      </trkpt>
      <trkpt lat="42.409297700" lon="-2.466383100">
        <ele>458.70</ele>
        <time>2012-11-10T12:36:48Z</time>
      </trkpt>
      <trkpt lat="42.409413300" lon="-2.466297600">
        <ele>459.20</ele>
        <time>2012-11-10T12:36:51Z</time>
      </trkpt>
      <trkpt lat="42.409721400" lon="-2.466156600">
        <ele>459.60</ele>
        <time>2012-11-10T12:36:58Z</time>
      </trkpt>
      <trkpt lat="42.409845700" lon="-2.466109300">
        <ele>459.60</ele>
        <time>2012-11-10T12:37:02Z</time>
      </trkpt>
      <trkpt lat="42.410111100" lon="-2.466064000">
        <ele>459.60</ele>
        <time>2012-11-10T12:37:07Z</time>
      </trkpt>
      <trkpt lat="42.410375200" lon="-2.466090900">
        <ele>459.20</ele>
        <time>2012-11-10T12:37:12Z</time>
      </trkpt>
      <trkpt lat="42.410647800" lon="-2.466144100">
        <ele>459.20</ele>
        <time>2012-11-10T12:37:17Z</time>
      </trkpt>
      <trkpt lat="42.411031100" lon="-2.466302800">
        <ele>458.20</ele>
        <time>2012-11-10T12:37:24Z</time>
      </trkpt>
      <trkpt lat="42.411184300" lon="-2.466404800">
        <ele>457.70</ele>
        <time>2012-11-10T12:37:28Z</time>
      </trkpt>
      <trkpt lat="42.411562500" lon="-2.466582500">
        <ele>456.30</ele>
        <time>2012-11-10T12:37:35Z</time>
      </trkpt>
      <trkpt lat="42.411664100" lon="-2.466620200">
        <ele>456.80</ele>
        <time>2012-11-10T12:37:36Z</time>
      </trkpt>
      <trkpt lat="42.412055900" lon="-2.466799400">
        <ele>456.80</ele>
        <time>2012-11-10T12:37:45Z</time>
      </trkpt>
      <trkpt lat="42.412434600" lon="-2.466983200">
        <ele>456.30</ele>
        <time>2012-11-10T12:37:52Z</time>
      </trkpt>
      <trkpt lat="42.412845100" lon="-2.467115600">
        <ele>455.80</ele>
        <time>2012-11-10T12:38:01Z</time>
      </trkpt>
      <trkpt lat="42.412998900" lon="-2.467115600">
        <ele>454.80</ele>
        <time>2012-11-10T12:38:04Z</time>
      </trkpt>
      <trkpt lat="42.413311300" lon="-2.467027400">
        <ele>452.40</ele>
        <time>2012-11-10T12:38:10Z</time>
      </trkpt>
      <trkpt lat="42.413377500" lon="-2.466997000">
        <ele>452.00</ele>
        <time>2012-11-10T12:38:11Z</time>
      </trkpt>
      <trkpt lat="42.413646000" lon="-2.466764600">
        <ele>449.60</ele>
        <time>2012-11-10T12:38:15Z</time>
      </trkpt>
      <trkpt lat="42.413762300" lon="-2.466626300">
        <ele>449.60</ele>
        <time>2012-11-10T12:38:17Z</time>
      </trkpt>
      <trkpt lat="42.413956600" lon="-2.466617800">
        <ele>450.50</ele>
        <time>2012-11-10T12:38:20Z</time>
      </trkpt>
      <trkpt lat="42.414100800" lon="-2.466817600">
        <ele>452.00</ele>
        <time>2012-11-10T12:38:22Z</time>
      </trkpt>
      <trkpt lat="42.414132200" lon="-2.466887700">
        <ele>452.40</ele>
        <time>2012-11-10T12:38:24Z</time>
      </trkpt>
      <trkpt lat="42.414301100" lon="-2.467180700">
        <ele>453.90</ele>
        <time>2012-11-10T12:38:29Z</time>
      </trkpt>
      <trkpt lat="42.414422400" lon="-2.467396000">
        <ele>454.80</ele>
        <time>2012-11-10T12:38:32Z</time>
      </trkpt>
      <trkpt lat="42.414512000" lon="-2.467543800">
        <ele>455.30</ele>
        <time>2012-11-10T12:38:36Z</time>
      </trkpt>
      <trkpt lat="42.414620400" lon="-2.467681600">
        <ele>455.80</ele>
        <time>2012-11-10T12:38:39Z</time>
      </trkpt>
      <trkpt lat="42.414991000" lon="-2.467935500">
        <ele>455.80</ele>
        <time>2012-11-10T12:38:46Z</time>
      </trkpt>
      <trkpt lat="42.415090200" lon="-2.467980100">
        <ele>455.80</ele>
        <time>2012-11-10T12:38:48Z</time>
      </trkpt>
      <trkpt lat="42.415555600" lon="-2.468117300">
        <ele>455.80</ele>
        <time>2012-11-10T12:38:58Z</time>
      </trkpt>
      <trkpt lat="42.416044800" lon="-2.468268900">
        <ele>454.80</ele>
        <time>2012-11-10T12:39:07Z</time>
      </trkpt>
      <trkpt lat="42.416408300" lon="-2.468349500">
        <ele>454.40</ele>
        <time>2012-11-10T12:39:14Z</time>
      </trkpt>
      <trkpt lat="42.416863200" lon="-2.468420500">
        <ele>453.40</ele>
        <time>2012-11-10T12:39:21Z</time>
      </trkpt>
      <trkpt lat="42.417320200" lon="-2.468487000">
        <ele>452.90</ele>
        <time>2012-11-10T12:39:30Z</time>
      </trkpt>
      <trkpt lat="42.417960100" lon="-2.468537400">
        <ele>452.90</ele>
        <time>2012-11-10T12:39:40Z</time>
      </trkpt>
      <trkpt lat="42.418375600" lon="-2.468496500">
        <ele>452.90</ele>
        <time>2012-11-10T12:39:47Z</time>
      </trkpt>
      <trkpt lat="42.418862700" lon="-2.468428200">
        <ele>452.00</ele>
        <time>2012-11-10T12:39:56Z</time>
      </trkpt>
      <trkpt lat="42.419355700" lon="-2.468308000">
        <ele>450.50</ele>
        <time>2012-11-10T12:40:03Z</time>
      </trkpt>
      <trkpt lat="42.419730800" lon="-2.468262800">
        <ele>450.00</ele>
        <time>2012-11-10T12:40:10Z</time>
      </trkpt>
      <trkpt lat="42.420041200" lon="-2.468242700">
        <ele>449.60</ele>
        <time>2012-11-10T12:40:15Z</time>
      </trkpt>
      <trkpt lat="42.420620700" lon="-2.468099800">
        <ele>450.00</ele>
        <time>2012-11-10T12:40:24Z</time>
      </trkpt>
      <trkpt lat="42.420934000" lon="-2.468016600">
        <ele>450.50</ele>
        <time>2012-11-10T12:40:29Z</time>
      </trkpt>
      <trkpt lat="42.421407600" lon="-2.467862600">
        <ele>451.00</ele>
        <time>2012-11-10T12:40:36Z</time>
      </trkpt>
      <trkpt lat="42.421648100" lon="-2.467793400">
        <ele>451.50</ele>
        <time>2012-11-10T12:40:41Z</time>
      </trkpt>
      <trkpt lat="42.422036600" lon="-2.467589500">
        <ele>452.90</ele>
        <time>2012-11-10T12:40:48Z</time>
      </trkpt>
      <trkpt lat="42.422353900" lon="-2.467354900">
        <ele>453.40</ele>
        <time>2012-11-10T12:40:53Z</time>
      </trkpt>
      <trkpt lat="42.422768200" lon="-2.467050000">
        <ele>453.90</ele>
        <time>2012-11-10T12:41:02Z</time>
      </trkpt>
      <trkpt lat="42.423124100" lon="-2.466783500">
        <ele>454.80</ele>
        <time>2012-11-10T12:41:09Z</time>
      </trkpt>
      <trkpt lat="42.423419100" lon="-2.466534700">
        <ele>454.80</ele>
        <time>2012-11-10T12:41:14Z</time>
      </trkpt>
      <trkpt lat="42.423650300" lon="-2.466258200">
        <ele>453.90</ele>
        <time>2012-11-10T12:41:19Z</time>
      </trkpt>
      <trkpt lat="42.423912900" lon="-2.465808200">
        <ele>452.90</ele>
        <time>2012-11-10T12:41:25Z</time>
      </trkpt>
      <trkpt lat="42.424297500" lon="-2.465134200">
        <ele>450.50</ele>
        <time>2012-11-10T12:41:33Z</time>
      </trkpt>
      <trkpt lat="42.424492200" lon="-2.464797500">
        <ele>450.00</ele>
        <time>2012-11-10T12:41:37Z</time>
      </trkpt>
      <trkpt lat="42.424760100" lon="-2.464484500">
        <ele>449.60</ele>
        <time>2012-11-10T12:41:42Z</time>
      </trkpt>
      <trkpt lat="42.425080000" lon="-2.464299100">
        <ele>447.20</ele>
        <time>2012-11-10T12:41:47Z</time>
      </trkpt>
      <trkpt lat="42.425431600" lon="-2.464113800">
        <ele>444.70</ele>
        <time>2012-11-10T12:41:54Z</time>
      </trkpt>
      <trkpt lat="42.425557400" lon="-2.463999100">
        <ele>446.70</ele>
        <time>2012-11-10T12:41:58Z</time>
      </trkpt>
      <trkpt lat="42.425578200" lon="-2.463986000">
        <ele>451.50</ele>
        <time>2012-11-10T12:42:01Z</time>
      </trkpt>
      <trkpt lat="42.425470200" lon="-2.464022700">
        <ele>467.30</ele>
        <time>2012-11-10T12:42:19Z</time>
      </trkpt>
      <trkpt lat="42.425454300" lon="-2.464095500">
        <ele>479.40</ele>
        <time>2012-11-10T12:42:29Z</time>
      </trkpt>
      <trkpt lat="42.425421600" lon="-2.464207300">
        <ele>497.10</ele>
        <time>2012-11-10T12:42:52Z</time>
      </trkpt>
      <trkpt lat="42.425412900" lon="-2.464228500">
        <ele>500.00</ele>
        <time>2012-11-10T12:42:57Z</time>
      </trkpt>
      <trkpt lat="42.425436300" lon="-2.464269800">
        <ele>503.40</ele>
        <time>2012-11-10T12:43:18Z</time>
      </trkpt>
      <trkpt lat="42.425431000" lon="-2.464221000">
        <ele>501.00</ele>
        <time>2012-11-10T12:43:53Z</time>
      </trkpt>
      <trkpt lat="42.425401300" lon="-2.464182400">
        <ele>499.10</ele>
        <time>2012-11-10T12:44:01Z</time>
      </trkpt>
      <trkpt lat="42.425360300" lon="-2.464213700">
        <ele>501.50</ele>
        <time>2012-11-10T12:44:19Z</time>
      </trkpt>
      <trkpt lat="42.425376400" lon="-2.464212200">
        <ele>501.90</ele>
        <time>2012-11-10T12:44:24Z</time>
      </trkpt>
      <trkpt lat="42.425393400" lon="-2.464187600">
        <ele>499.50</ele>
        <time>2012-11-10T12:44:31Z</time>
      </trkpt>
      <trkpt lat="42.425438500" lon="-2.464130400">
        <ele>496.20</ele>
        <time>2012-11-10T12:44:35Z</time>
      </trkpt>
      <trkpt lat="42.425451800" lon="-2.464113400">
        <ele>493.80</ele>
        <time>2012-11-10T12:44:36Z</time>
      </trkpt>
      <trkpt lat="42.425674800" lon="-2.464052100">
        <ele>487.50</ele>
        <time>2012-11-10T12:44:40Z</time>
      </trkpt>
      <trkpt lat="42.425985700" lon="-2.463856400">
        <ele>476.00</ele>
        <time>2012-11-10T12:44:45Z</time>
      </trkpt>
      <trkpt lat="42.426313900" lon="-2.463609500">
        <ele>467.30</ele>
        <time>2012-11-10T12:44:52Z</time>
      </trkpt>
      <trkpt lat="42.426465900" lon="-2.463490600">
        <ele>464.50</ele>
        <time>2012-11-10T12:44:54Z</time>
      </trkpt>
      <trkpt lat="42.426572300" lon="-2.463406300">
        <ele>462.50</ele>
        <time>2012-11-10T12:44:57Z</time>
      </trkpt>
      <trkpt lat="42.426789100" lon="-2.463161600">
        <ele>455.80</ele>
        <time>2012-11-10T12:45:01Z</time>
      </trkpt>
      <trkpt lat="42.426948900" lon="-2.462789100">
        <ele>447.20</ele>
        <time>2012-11-10T12:45:06Z</time>
      </trkpt>
      <trkpt lat="42.427040000" lon="-2.462586600">
        <ele>444.30</ele>
        <time>2012-11-10T12:45:09Z</time>
      </trkpt>
      <trkpt lat="42.427152400" lon="-2.462443700">
        <ele>443.80</ele>
        <time>2012-11-10T12:45:11Z</time>
      </trkpt>
      <trkpt lat="42.427281900" lon="-2.462228800">
        <ele>442.30</ele>
        <time>2012-11-10T12:45:13Z</time>
      </trkpt>
      <trkpt lat="42.427313500" lon="-2.462157800">
        <ele>441.40</ele>
        <time>2012-11-10T12:45:15Z</time>
      </trkpt>
      <trkpt lat="42.427443700" lon="-2.461834000">
        <ele>438.50</ele>
        <time>2012-11-10T12:45:20Z</time>
      </trkpt>
      <trkpt lat="42.427683100" lon="-2.461579100">
        <ele>438.00</ele>
        <time>2012-11-10T12:45:25Z</time>
      </trkpt>
      <trkpt lat="42.427804800" lon="-2.461449200">
        <ele>439.00</ele>
        <time>2012-11-10T12:45:27Z</time>
      </trkpt>
      <trkpt lat="42.427925000" lon="-2.461160600">
        <ele>438.00</ele>
        <time>2012-11-10T12:45:30Z</time>
      </trkpt>
      <trkpt lat="42.427963200" lon="-2.461015000">
        <ele>435.60</ele>
        <time>2012-11-10T12:45:32Z</time>
      </trkpt>
      <trkpt lat="42.428137200" lon="-2.460673500">
        <ele>430.80</ele>
        <time>2012-11-10T12:45:37Z</time>
      </trkpt>
      <trkpt lat="42.428323800" lon="-2.460402600">
        <ele>427.00</ele>
        <time>2012-11-10T12:45:41Z</time>
      </trkpt>
      <trkpt lat="42.428586800" lon="-2.460290600">
        <ele>424.10</ele>
        <time>2012-11-10T12:45:44Z</time>
      </trkpt>
      <trkpt lat="42.428683100" lon="-2.460268100">
        <ele>424.60</ele>
        <time>2012-11-10T12:45:44Z</time>
      </trkpt>
      <trkpt lat="42.428951700" lon="-2.460343100">
        <ele>424.10</ele>
        <time>2012-11-10T12:45:48Z</time>
      </trkpt>
      <trkpt lat="42.429245100" lon="-2.460421600">
        <ele>427.40</ele>
        <time>2012-11-10T12:45:55Z</time>
      </trkpt>
      <trkpt lat="42.429421800" lon="-2.460509800">
        <ele>426.00</ele>
        <time>2012-11-10T12:45:58Z</time>
      </trkpt>
      <trkpt lat="42.429885600" lon="-2.460849400">
        <ele>421.20</ele>
        <time>2012-11-10T12:46:07Z</time>
      </trkpt>
      <trkpt lat="42.430229900" lon="-2.460977200">
        <ele>419.80</ele>
        <time>2012-11-10T12:46:12Z</time>
      </trkpt>
      <trkpt lat="42.430334800" lon="-2.461023200">
        <ele>419.80</ele>
        <time>2012-11-10T12:46:14Z</time>
      </trkpt>
      <trkpt lat="42.430623000" lon="-2.461164400">
        <ele>419.30</ele>
        <time>2012-11-10T12:46:21Z</time>
      </trkpt>
      <trkpt lat="42.430874500" lon="-2.461130700">
        <ele>419.80</ele>
        <time>2012-11-10T12:46:26Z</time>
      </trkpt>
      <trkpt lat="42.430968700" lon="-2.461070500">
        <ele>420.20</ele>
        <time>2012-11-10T12:46:28Z</time>
      </trkpt>
      <trkpt lat="42.431102800" lon="-2.460974600">
        <ele>420.70</ele>
        <time>2012-11-10T12:46:31Z</time>
      </trkpt>
      <trkpt lat="42.431422100" lon="-2.460932700">
        <ele>421.20</ele>
        <time>2012-11-10T12:46:36Z</time>
      </trkpt>
      <trkpt lat="42.431767900" lon="-2.460913800">
        <ele>421.20</ele>
        <time>2012-11-10T12:46:43Z</time>
      </trkpt>
      <trkpt lat="42.432020400" lon="-2.460917500">
        <ele>420.70</ele>
        <time>2012-11-10T12:46:49Z</time>
      </trkpt>
      <trkpt lat="42.432348500" lon="-2.460760800">
        <ele>417.80</ele>
        <time>2012-11-10T12:46:54Z</time>
      </trkpt>
      <trkpt lat="42.432711200" lon="-2.460644200">
        <ele>414.90</ele>
        <time>2012-11-10T12:47:01Z</time>
      </trkpt>
      <trkpt lat="42.433029300" lon="-2.460565600">
        <ele>413.00</ele>
        <time>2012-11-10T12:47:04Z</time>
      </trkpt>
      <trkpt lat="42.433211700" lon="-2.460645800">
        <ele>414.00</ele>
        <time>2012-11-10T12:47:08Z</time>
      </trkpt>
      <trkpt lat="42.433452900" lon="-2.460543200">
        <ele>415.90</ele>
        <time>2012-11-10T12:47:13Z</time>
      </trkpt>
      <trkpt lat="42.433521000" lon="-2.460441200">
        <ele>416.90</ele>
        <time>2012-11-10T12:47:15Z</time>
      </trkpt>
      <trkpt lat="42.433607500" lon="-2.460248600">
        <ele>417.80</ele>
        <time>2012-11-10T12:47:18Z</time>
      </trkpt>
      <trkpt lat="42.433708400" lon="-2.460087700">
        <ele>418.30</ele>
        <time>2012-11-10T12:47:22Z</time>
      </trkpt>
      <trkpt lat="42.433885000" lon="-2.459936500">
        <ele>417.80</ele>
        <time>2012-11-10T12:47:25Z</time>
      </trkpt>
      <trkpt lat="42.434286000" lon="-2.459781300">
        <ele>416.40</ele>
        <time>2012-11-10T12:47:32Z</time>
      </trkpt>
      <trkpt lat="42.434345900" lon="-2.459757900">
        <ele>416.40</ele>
        <time>2012-11-10T12:47:34Z</time>
      </trkpt>
      <trkpt lat="42.434594800" lon="-2.459674600">
        <ele>415.40</ele>
        <time>2012-11-10T12:47:37Z</time>
      </trkpt>
      <trkpt lat="42.435054300" lon="-2.459541300">
        <ele>413.00</ele>
        <time>2012-11-10T12:47:44Z</time>
      </trkpt>
      <trkpt lat="42.435482600" lon="-2.459384100">
        <ele>410.10</ele>
        <time>2012-11-10T12:47:51Z</time>
      </trkpt>
      <trkpt lat="42.435674500" lon="-2.459246800">
        <ele>408.70</ele>
        <time>2012-11-10T12:47:55Z</time>
      </trkpt>
      <trkpt lat="42.435767800" lon="-2.459175800">
        <ele>408.20</ele>
        <time>2012-11-10T12:47:58Z</time>
      </trkpt>
      <trkpt lat="42.435959900" lon="-2.459195700">
        <ele>408.70</ele>
        <time>2012-11-10T12:48:02Z</time>
      </trkpt>
      <trkpt lat="42.436135600" lon="-2.459220700">
        <ele>408.70</ele>
        <time>2012-11-10T12:48:05Z</time>
      </trkpt>
      <trkpt lat="42.436500900" lon="-2.459119900">
        <ele>409.70</ele>
        <time>2012-11-10T12:48:14Z</time>
      </trkpt>
      <trkpt lat="42.436630800" lon="-2.459095500">
        <ele>409.70</ele>
        <time>2012-11-10T12:48:16Z</time>
      </trkpt>
      <trkpt lat="42.436673500" lon="-2.459091400">
        <ele>409.70</ele>
        <time>2012-11-10T12:48:18Z</time>
      </trkpt>
      <trkpt lat="42.436861300" lon="-2.459057900">
        <ele>409.70</ele>
        <time>2012-11-10T12:48:21Z</time>
      </trkpt>
      <trkpt lat="42.437018200" lon="-2.459028700">
        <ele>409.20</ele>
        <time>2012-11-10T12:48:24Z</time>
      </trkpt>
      <trkpt lat="42.437128600" lon="-2.459010100">
        <ele>409.20</ele>
        <time>2012-11-10T12:48:26Z</time>
      </trkpt>
      <trkpt lat="42.437517800" lon="-2.458973200">
        <ele>409.20</ele>
        <time>2012-11-10T12:48:33Z</time>
      </trkpt>
      <trkpt lat="42.437886300" lon="-2.458934200">
        <ele>408.70</ele>
        <time>2012-11-10T12:48:40Z</time>
      </trkpt>
      <trkpt lat="42.438375000" lon="-2.458924300">
        <ele>407.30</ele>
        <time>2012-11-10T12:48:49Z</time>
      </trkpt>
      <trkpt lat="42.438872800" lon="-2.458928700">
        <ele>407.30</ele>
        <time>2012-11-10T12:48:59Z</time>
      </trkpt>
      <trkpt lat="42.439356700" lon="-2.458930900">
        <ele>406.80</ele>
        <time>2012-11-10T12:49:08Z</time>
      </trkpt>
      <trkpt lat="42.439578000" lon="-2.458926000">
        <ele>406.80</ele>
        <time>2012-11-10T12:49:12Z</time>
      </trkpt>
      <trkpt lat="42.439633600" lon="-2.458921600">
        <ele>406.80</ele>
        <time>2012-11-10T12:49:13Z</time>
      </trkpt>
      <trkpt lat="42.440159600" lon="-2.458905100">
        <ele>405.30</ele>
        <time>2012-11-10T12:49:22Z</time>
      </trkpt>
      <trkpt lat="42.440561600" lon="-2.458862500">
        <ele>404.40</ele>
        <time>2012-11-10T12:49:29Z</time>
      </trkpt>
      <trkpt lat="42.440614900" lon="-2.458850800">
        <ele>404.40</ele>
        <time>2012-11-10T12:49:29Z</time>
      </trkpt>
      <trkpt lat="42.440861500" lon="-2.458650900">
        <ele>403.40</ele>
        <time>2012-11-10T12:49:34Z</time>
      </trkpt>
      <trkpt lat="42.441077900" lon="-2.458370700">
        <ele>402.40</ele>
        <time>2012-11-10T12:49:39Z</time>
      </trkpt>
      <trkpt lat="42.441287000" lon="-2.458322000">
        <ele>402.00</ele>
        <time>2012-11-10T12:49:43Z</time>
      </trkpt>
      <trkpt lat="42.441733300" lon="-2.458387000">
        <ele>402.00</ele>
        <time>2012-11-10T12:49:52Z</time>
      </trkpt>
      <trkpt lat="42.442119600" lon="-2.458465400">
        <ele>402.00</ele>
        <time>2012-11-10T12:49:57Z</time>
      </trkpt>
      <trkpt lat="42.442253900" lon="-2.458505900">
        <ele>402.00</ele>
        <time>2012-11-10T12:50:00Z</time>
      </trkpt>
      <trkpt lat="42.442386400" lon="-2.458534500">
        <ele>402.00</ele>
        <time>2012-11-10T12:50:02Z</time>
      </trkpt>
      <trkpt lat="42.442851700" lon="-2.458593600">
        <ele>401.00</ele>
        <time>2012-11-10T12:50:09Z</time>
      </trkpt>
      <trkpt lat="42.443207200" lon="-2.458651200">
        <ele>400.00</ele>
        <time>2012-11-10T12:50:14Z</time>
      </trkpt>
      <trkpt lat="42.443602800" lon="-2.458706000">
        <ele>399.10</ele>
        <time>2012-11-10T12:50:21Z</time>
      </trkpt>
      <trkpt lat="42.444071700" lon="-2.458781200">
        <ele>399.10</ele>
        <time>2012-11-10T12:50:30Z</time>
      </trkpt>
      <trkpt lat="42.444354200" lon="-2.458802900">
        <ele>398.60</ele>
        <time>2012-11-10T12:50:35Z</time>
      </trkpt>
      <trkpt lat="42.444704900" lon="-2.458692400">
        <ele>398.10</ele>
        <time>2012-11-10T12:50:40Z</time>
      </trkpt>
      <trkpt lat="42.445066700" lon="-2.458600100">
        <ele>397.60</ele>
        <time>2012-11-10T12:50:47Z</time>
      </trkpt>
      <trkpt lat="42.445814600" lon="-2.458529300">
        <ele>396.20</ele>
        <time>2012-11-10T12:50:58Z</time>
      </trkpt>
      <trkpt lat="42.446065200" lon="-2.458550500">
        <ele>395.70</ele>
        <time>2012-11-10T12:51:03Z</time>
      </trkpt>
      <trkpt lat="42.446298300" lon="-2.458475600">
        <ele>395.70</ele>
        <time>2012-11-10T12:51:06Z</time>
      </trkpt>
      <trkpt lat="42.446820600" lon="-2.458168400">
        <ele>394.80</ele>
        <time>2012-11-10T12:51:15Z</time>
      </trkpt>
      <trkpt lat="42.447324000" lon="-2.457940800">
        <ele>394.80</ele>
        <time>2012-11-10T12:51:24Z</time>
      </trkpt>
      <trkpt lat="42.447668900" lon="-2.457730900">
        <ele>394.80</ele>
        <time>2012-11-10T12:51:29Z</time>
      </trkpt>
      <trkpt lat="42.448044200" lon="-2.457587800">
        <ele>393.80</ele>
        <time>2012-11-10T12:51:36Z</time>
      </trkpt>
      <trkpt lat="42.448263400" lon="-2.457359000">
        <ele>393.30</ele>
        <time>2012-11-10T12:51:40Z</time>
      </trkpt>
      <trkpt lat="42.448625300" lon="-2.456806500">
        <ele>393.30</ele>
        <time>2012-11-10T12:51:48Z</time>
      </trkpt>
      <trkpt lat="42.448951800" lon="-2.456370800">
        <ele>394.30</ele>
        <time>2012-11-10T12:51:55Z</time>
      </trkpt>
      <trkpt lat="42.449043400" lon="-2.456261500">
        <ele>394.80</ele>
        <time>2012-11-10T12:51:57Z</time>
      </trkpt>
      <trkpt lat="42.449172700" lon="-2.456089600">
        <ele>394.80</ele>
        <time>2012-11-10T12:51:59Z</time>
      </trkpt>
      <trkpt lat="42.449335400" lon="-2.455999900">
        <ele>394.30</ele>
        <time>2012-11-10T12:52:02Z</time>
      </trkpt>
      <trkpt lat="42.449483800" lon="-2.455823300">
        <ele>393.80</ele>
        <time>2012-11-10T12:52:06Z</time>
      </trkpt>
      <trkpt lat="42.449588600" lon="-2.455542700">
        <ele>393.80</ele>
        <time>2012-11-10T12:52:11Z</time>
      </trkpt>
      <trkpt lat="42.449765600" lon="-2.455539400">
        <ele>393.30</ele>
        <time>2012-11-10T12:52:16Z</time>
      </trkpt>
      <trkpt lat="42.449809900" lon="-2.455530800">
        <ele>393.30</ele>
        <time>2012-11-10T12:52:16Z</time>
      </trkpt>
      <trkpt lat="42.450096700" lon="-2.455444400">
        <ele>394.80</ele>
        <time>2012-11-10T12:52:23Z</time>
      </trkpt>
      <trkpt lat="42.450449900" lon="-2.455340600">
        <ele>396.20</ele>
        <time>2012-11-10T12:52:32Z</time>
      </trkpt>
      <trkpt lat="42.450570500" lon="-2.455311000">
        <ele>396.70</ele>
        <time>2012-11-10T12:52:35Z</time>
      </trkpt>
      <trkpt lat="42.450724700" lon="-2.455283800">
        <ele>398.10</ele>
        <time>2012-11-10T12:52:39Z</time>
      </trkpt>
      <trkpt lat="42.451031600" lon="-2.455185800">
        <ele>400.00</ele>
        <time>2012-11-10T12:52:46Z</time>
      </trkpt>
      <trkpt lat="42.451396300" lon="-2.455063400">
        <ele>399.60</ele>
        <time>2012-11-10T12:52:53Z</time>
      </trkpt>
      <trkpt lat="42.451530100" lon="-2.455011200">
        <ele>399.10</ele>
        <time>2012-11-10T12:52:56Z</time>
      </trkpt>
      <trkpt lat="42.451714400" lon="-2.454968000">
        <ele>398.10</ele>
        <time>2012-11-10T12:53:00Z</time>
      </trkpt>
      <trkpt lat="42.451895800" lon="-2.454898200">
        <ele>398.10</ele>
        <time>2012-11-10T12:53:05Z</time>
      </trkpt>
      <trkpt lat="42.452113000" lon="-2.454838100">
        <ele>398.10</ele>
        <time>2012-11-10T12:53:10Z</time>
      </trkpt>
      <trkpt lat="42.452359300" lon="-2.454766600">
        <ele>397.20</ele>
        <time>2012-11-10T12:53:15Z</time>
      </trkpt>
      <trkpt lat="42.452549100" lon="-2.454773500">
        <ele>398.10</ele>
        <time>2012-11-10T12:53:21Z</time>
      </trkpt>
      <trkpt lat="42.452735300" lon="-2.454755200">
        <ele>397.20</ele>
        <time>2012-11-10T12:53:26Z</time>
      </trkpt>
      <trkpt lat="42.452874900" lon="-2.454709900">
        <ele>397.20</ele>
        <time>2012-11-10T12:53:29Z</time>
      </trkpt>
      <trkpt lat="42.453065900" lon="-2.454658400">
        <ele>398.60</ele>
        <time>2012-11-10T12:53:33Z</time>
      </trkpt>
      <trkpt lat="42.453150100" lon="-2.454616800">
        <ele>399.10</ele>
        <time>2012-11-10T12:53:36Z</time>
      </trkpt>
      <trkpt lat="42.453369600" lon="-2.454549000">
        <ele>398.60</ele>
        <time>2012-11-10T12:53:43Z</time>
      </trkpt>
      <trkpt lat="42.453398600" lon="-2.454559100">
        <ele>399.10</ele>
        <time>2012-11-10T12:53:45Z</time>
      </trkpt>
      <trkpt lat="42.453487000" lon="-2.454679300">
        <ele>398.60</ele>
        <time>2012-11-10T12:53:48Z</time>
      </trkpt>
      <trkpt lat="42.453660200" lon="-2.454714500">
        <ele>398.60</ele>
        <time>2012-11-10T12:53:52Z</time>
      </trkpt>
      <trkpt lat="42.453828900" lon="-2.454833700">
        <ele>398.10</ele>
        <time>2012-11-10T12:53:57Z</time>
      </trkpt>
      <trkpt lat="42.453861400" lon="-2.454932000">
        <ele>397.60</ele>
        <time>2012-11-10T12:53:59Z</time>
      </trkpt>
      <trkpt lat="42.453932500" lon="-2.455420300">
        <ele>396.20</ele>
        <time>2012-11-10T12:54:06Z</time>
      </trkpt>
      <trkpt lat="42.453996300" lon="-2.455888300">
        <ele>396.20</ele>
        <time>2012-11-10T12:54:15Z</time>
      </trkpt>
      <trkpt lat="42.454056400" lon="-2.456288200">
        <ele>395.70</ele>
        <time>2012-11-10T12:54:22Z</time>
      </trkpt>
      <trkpt lat="42.454118500" lon="-2.456538100">
        <ele>395.20</ele>
        <time>2012-11-10T12:54:27Z</time>
      </trkpt>
      <trkpt lat="42.454153200" lon="-2.456578700">
        <ele>394.30</ele>
        <time>2012-11-10T12:54:27Z</time>
      </trkpt>
      <trkpt lat="42.454389200" lon="-2.456795900">
        <ele>391.90</ele>
        <time>2012-11-10T12:54:32Z</time>
      </trkpt>
      <trkpt lat="42.454598100" lon="-2.456839200">
        <ele>390.90</ele>
        <time>2012-11-10T12:54:37Z</time>
      </trkpt>
      <trkpt lat="42.454729300" lon="-2.457076000">
        <ele>390.00</ele>
        <time>2012-11-10T12:54:41Z</time>
      </trkpt>
      <trkpt lat="42.454787900" lon="-2.457142200">
        <ele>390.00</ele>
        <time>2012-11-10T12:54:44Z</time>
      </trkpt>
      <trkpt lat="42.454945700" lon="-2.457395400">
        <ele>389.00</ele>
        <time>2012-11-10T12:54:48Z</time>
      </trkpt>
      <trkpt lat="42.454990700" lon="-2.457634000">
        <ele>389.50</ele>
        <time>2012-11-10T12:54:51Z</time>
      </trkpt>
      <trkpt lat="42.455022900" lon="-2.457922200">
        <ele>390.00</ele>
        <time>2012-11-10T12:54:55Z</time>
      </trkpt>
      <trkpt lat="42.455122800" lon="-2.458034600">
        <ele>390.00</ele>
        <time>2012-11-10T12:55:00Z</time>
      </trkpt>
      <trkpt lat="42.455237500" lon="-2.457990600">
        <ele>390.40</ele>
        <time>2012-11-10T12:55:02Z</time>
      </trkpt>
      <trkpt lat="42.455458100" lon="-2.457807300">
        <ele>390.40</ele>
        <time>2012-11-10T12:55:07Z</time>
      </trkpt>
      <trkpt lat="42.455629000" lon="-2.457796400">
        <ele>389.50</ele>
        <time>2012-11-10T12:55:12Z</time>
      </trkpt>
      <trkpt lat="42.455787500" lon="-2.457897000">
        <ele>389.00</ele>
        <time>2012-11-10T12:55:14Z</time>
      </trkpt>
      <trkpt lat="42.455974100" lon="-2.457904900">
        <ele>389.00</ele>
        <time>2012-11-10T12:55:19Z</time>
      </trkpt>
      <trkpt lat="42.456141600" lon="-2.457881500">
        <ele>390.00</ele>
        <time>2012-11-10T12:55:23Z</time>
      </trkpt>
      <trkpt lat="42.456182300" lon="-2.457931800">
        <ele>390.40</ele>
        <time>2012-11-10T12:55:24Z</time>
      </trkpt>
      <trkpt lat="42.456223300" lon="-2.458177400">
        <ele>390.00</ele>
        <time>2012-11-10T12:55:29Z</time>
      </trkpt>
      <trkpt lat="42.456281500" lon="-2.458651600">
        <ele>390.90</ele>
        <time>2012-11-10T12:55:38Z</time>
      </trkpt>
      <trkpt lat="42.456316400" lon="-2.458922300">
        <ele>391.90</ele>
        <time>2012-11-10T12:55:42Z</time>
      </trkpt>
      <trkpt lat="42.456358100" lon="-2.459188100">
        <ele>391.90</ele>
        <time>2012-11-10T12:55:49Z</time>
      </trkpt>
      <trkpt lat="42.456415600" lon="-2.459452700">
        <ele>391.90</ele>
        <time>2012-11-10T12:55:54Z</time>
      </trkpt>
      <trkpt lat="42.456464800" lon="-2.459793200">
        <ele>391.40</ele>
        <time>2012-11-10T12:56:01Z</time>
      </trkpt>
      <trkpt lat="42.456537400" lon="-2.460168200">
        <ele>390.40</ele>
        <time>2012-11-10T12:56:08Z</time>
      </trkpt>
      <trkpt lat="42.456567800" lon="-2.460411000">
        <ele>390.90</ele>
        <time>2012-11-10T12:56:13Z</time>
      </trkpt>
      <trkpt lat="42.456612700" lon="-2.460512700">
        <ele>390.40</ele>
        <time>2012-11-10T12:56:15Z</time>
      </trkpt>
      <trkpt lat="42.456695100" lon="-2.460726900">
        <ele>390.90</ele>
        <time>2012-11-10T12:56:20Z</time>
      </trkpt>
      <trkpt lat="42.456712200" lon="-2.460920200">
        <ele>391.90</ele>
        <time>2012-11-10T12:56:25Z</time>
      </trkpt>
      <trkpt lat="42.456750800" lon="-2.461152700">
        <ele>392.80</ele>
        <time>2012-11-10T12:56:29Z</time>
      </trkpt>
      <trkpt lat="42.456762700" lon="-2.461385400">
        <ele>396.70</ele>
        <time>2012-11-10T12:56:36Z</time>
      </trkpt>
      <trkpt lat="42.456757000" lon="-2.461424500">
        <ele>398.10</ele>
        <time>2012-11-10T12:56:36Z</time>
      </trkpt>
      <trkpt lat="42.456833700" lon="-2.461484600">
        <ele>401.00</ele>
        <time>2012-11-10T12:56:41Z</time>
      </trkpt>
      <trkpt lat="42.457074500" lon="-2.461370700">
        <ele>403.40</ele>
        <time>2012-11-10T12:56:46Z</time>
      </trkpt>
      <trkpt lat="42.457353000" lon="-2.461248200">
        <ele>408.20</ele>
        <time>2012-11-10T12:56:53Z</time>
      </trkpt>
      <trkpt lat="42.457628100" lon="-2.461085300">
        <ele>410.10</ele>
        <time>2012-11-10T12:57:00Z</time>
      </trkpt>
      <trkpt lat="42.457676700" lon="-2.461058700">
        <ele>412.50</ele>
        <time>2012-11-10T12:57:02Z</time>
      </trkpt>
      <trkpt lat="42.457728600" lon="-2.461038700">
        <ele>416.90</ele>
        <time>2012-11-10T12:57:09Z</time>
      </trkpt>
      <trkpt lat="42.457684200" lon="-2.461112700">
        <ele>428.40</ele>
        <time>2012-11-10T12:57:23Z</time>
      </trkpt>
      <trkpt lat="42.457700700" lon="-2.461058200">
        <ele>422.60</ele>
        <time>2012-11-10T12:57:31Z</time>
      </trkpt>
      <trkpt lat="42.457702300" lon="-2.461036500">
        <ele>420.20</ele>
        <time>2012-11-10T12:57:38Z</time>
      </trkpt>
      <trkpt lat="42.457704000" lon="-2.461035200">
        <ele>420.70</ele>
        <time>2012-11-10T12:57:40Z</time>
      </trkpt>
      <trkpt lat="42.457703500" lon="-2.461037400">
        <ele>423.60</ele>
        <time>2012-11-10T12:57:45Z</time>
      </trkpt>
      <trkpt lat="42.457730900" lon="-2.461028600">
        <ele>424.60</ele>
        <time>2012-11-10T12:57:52Z</time>
      </trkpt>
      <trkpt lat="42.457819200" lon="-2.460993700">
        <ele>424.60</ele>
        <time>2012-11-10T12:57:56Z</time>
      </trkpt>
      <trkpt lat="42.458118600" lon="-2.460867900">
        <ele>420.20</ele>
        <time>2012-11-10T12:58:03Z</time>
      </trkpt>
      <trkpt lat="42.458463600" lon="-2.460734000">
        <ele>420.20</ele>
        <time>2012-11-10T12:58:08Z</time>
      </trkpt>
      <trkpt lat="42.458755400" lon="-2.460578200">
        <ele>415.90</ele>
        <time>2012-11-10T12:58:13Z</time>
      </trkpt>
      <trkpt lat="42.459115100" lon="-2.460354300">
        <ele>409.20</ele>
        <time>2012-11-10T12:58:20Z</time>
      </trkpt>
      <trkpt lat="42.459315100" lon="-2.460204400">
        <ele>405.80</ele>
        <time>2012-11-10T12:58:24Z</time>
      </trkpt>
      <trkpt lat="42.459499800" lon="-2.460059200">
        <ele>404.90</ele>
        <time>2012-11-10T12:58:29Z</time>
      </trkpt>
      <trkpt lat="42.459551700" lon="-2.460023500">
        <ele>405.30</ele>
        <time>2012-11-10T12:58:29Z</time>
      </trkpt>
      <trkpt lat="42.459653200" lon="-2.459950800">
        <ele>407.30</ele>
        <time>2012-11-10T12:58:31Z</time>
      </trkpt>
      <trkpt lat="42.459811600" lon="-2.459866300">
        <ele>410.10</ele>
        <time>2012-11-10T12:58:34Z</time>
      </trkpt>
      <trkpt lat="42.459950200" lon="-2.459788900">
        <ele>419.30</ele>
        <time>2012-11-10T12:58:39Z</time>
      </trkpt>
      <trkpt lat="42.460038800" lon="-2.459732700">
        <ele>418.30</ele>
        <time>2012-11-10T12:58:43Z</time>
      </trkpt>
      <trkpt lat="42.460145400" lon="-2.459534100">
        <ele>409.70</ele>
        <time>2012-11-10T12:58:50Z</time>
      </trkpt>
      <trkpt lat="42.460238600" lon="-2.459354700">
        <ele>409.70</ele>
        <time>2012-11-10T12:58:53Z</time>
      </trkpt>
      <trkpt lat="42.460496400" lon="-2.459320600">
        <ele>408.70</ele>
        <time>2012-11-10T12:58:57Z</time>
      </trkpt>
      <trkpt lat="42.460756500" lon="-2.459439100">
        <ele>406.30</ele>
        <time>2012-11-10T12:59:00Z</time>
      </trkpt>
      <trkpt lat="42.460714500" lon="-2.459584300">
        <ele>404.40</ele>
        <time>2012-11-10T12:59:02Z</time>
      </trkpt>
      <trkpt lat="42.460674200" lon="-2.459736100">
        <ele>402.40</ele>
        <time>2012-11-10T12:59:04Z</time>
      </trkpt>
      <trkpt lat="42.460676400" lon="-2.460014200">
        <ele>400.00</ele>
        <time>2012-11-10T12:59:09Z</time>
      </trkpt>
      <trkpt lat="42.460755300" lon="-2.460319200">
        <ele>400.00</ele>
        <time>2012-11-10T12:59:14Z</time>
      </trkpt>
      <trkpt lat="42.460947900" lon="-2.460731400">
        <ele>402.90</ele>
        <time>2012-11-10T12:59:21Z</time>
      </trkpt>
      <trkpt lat="42.460977200" lon="-2.460788600">
        <ele>402.90</ele>
        <time>2012-11-10T12:59:21Z</time>
      </trkpt>
      <trkpt lat="42.461175600" lon="-2.461044500">
        <ele>403.90</ele>
        <time>2012-11-10T12:59:26Z</time>
      </trkpt>
      <trkpt lat="42.461445400" lon="-2.461283400">
        <ele>406.80</ele>
        <time>2012-11-10T12:59:33Z</time>
      </trkpt>
      <trkpt lat="42.461848800" lon="-2.461401900">
        <ele>401.50</ele>
        <time>2012-11-10T12:59:40Z</time>
      </trkpt>
      <trkpt lat="42.462286500" lon="-2.461563600">
        <ele>399.10</ele>
        <time>2012-11-10T12:59:47Z</time>
      </trkpt>
      <trkpt lat="42.462667700" lon="-2.461794900">
        <ele>399.10</ele>
        <time>2012-11-10T12:59:54Z</time>
      </trkpt>
      <trkpt lat="42.462986000" lon="-2.461907600">
        <ele>402.40</ele>
        <time>2012-11-10T13:00:01Z</time>
      </trkpt>
      <trkpt lat="42.463038500" lon="-2.461923400">
        <ele>402.90</ele>
        <time>2012-11-10T13:00:01Z</time>
      </trkpt>
      <trkpt lat="42.463280700" lon="-2.462030400">
        <ele>405.80</ele>
        <time>2012-11-10T13:00:08Z</time>
      </trkpt>
      <trkpt lat="42.463518600" lon="-2.462095500">
        <ele>403.40</ele>
        <time>2012-11-10T13:00:12Z</time>
      </trkpt>
      <trkpt lat="42.463620700" lon="-2.462197900">
        <ele>406.30</ele>
        <time>2012-11-10T13:00:15Z</time>
      </trkpt>
      <trkpt lat="42.463840800" lon="-2.462395300">
        <ele>413.50</ele>
        <time>2012-11-10T13:00:22Z</time>
      </trkpt>
      <trkpt lat="42.464179200" lon="-2.462500100">
        <ele>418.80</ele>
        <time>2012-11-10T13:00:29Z</time>
      </trkpt>
      <trkpt lat="42.464228700" lon="-2.462523400">
        <ele>419.30</ele>
        <time>2012-11-10T13:00:31Z</time>
      </trkpt>
      <trkpt lat="42.464504300" lon="-2.462697300">
        <ele>428.40</ele>
        <time>2012-11-10T13:00:36Z</time>
      </trkpt>
      <trkpt lat="42.464712100" lon="-2.462771200">
        <ele>427.90</ele>
        <time>2012-11-10T13:00:41Z</time>
      </trkpt>
      <trkpt lat="42.464828500" lon="-2.462784300">
        <ele>426.00</ele>
        <time>2012-11-10T13:00:43Z</time>
      </trkpt>
      <trkpt lat="42.465219900" lon="-2.462756900">
        <ele>422.60</ele>
        <time>2012-11-10T13:00:50Z</time>
      </trkpt>
      <trkpt lat="42.465601900" lon="-2.462686600">
        <ele>420.70</ele>
        <time>2012-11-10T13:00:57Z</time>
      </trkpt>
      <trkpt lat="42.466025400" lon="-2.462613300">
        <ele>415.40</ele>
        <time>2012-11-10T13:01:04Z</time>
      </trkpt>
      <trkpt lat="42.466415700" lon="-2.462512800">
        <ele>408.20</ele>
        <time>2012-11-10T13:01:11Z</time>
      </trkpt>
      <trkpt lat="42.466857200" lon="-2.462280100">
        <ele>400.00</ele>
        <time>2012-11-10T13:01:18Z</time>
      </trkpt>
      <trkpt lat="42.467040400" lon="-2.462152100">
        <ele>397.60</ele>
        <time>2012-11-10T13:01:23Z</time>
      </trkpt>
      <trkpt lat="42.467256400" lon="-2.461949900">
        <ele>397.20</ele>
        <time>2012-11-10T13:01:28Z</time>
      </trkpt>
      <trkpt lat="42.467415600" lon="-2.461984400">
        <ele>395.20</ele>
        <time>2012-11-10T13:01:30Z</time>
      </trkpt>
      <trkpt lat="42.467638300" lon="-2.462037600">
        <ele>393.30</ele>
        <time>2012-11-10T13:01:35Z</time>
      </trkpt>
      <trkpt lat="42.468000500" lon="-2.461976800">
        <ele>390.40</ele>
        <time>2012-11-10T13:01:41Z</time>
      </trkpt>
      <trkpt lat="42.468414600" lon="-2.461896500">
        <ele>391.40</ele>
        <time>2012-11-10T13:01:48Z</time>
      </trkpt>
      <trkpt lat="42.468692200" lon="-2.461854400">
        <ele>390.90</ele>
        <time>2012-11-10T13:01:53Z</time>
      </trkpt>
      <trkpt lat="42.468743800" lon="-2.461840700">
        <ele>390.90</ele>
        <time>2012-11-10T13:01:53Z</time>
      </trkpt>
      <trkpt lat="42.468957100" lon="-2.461733600">
        <ele>389.50</ele>
        <time>2012-11-10T13:01:58Z</time>
      </trkpt>
      <trkpt lat="42.469363700" lon="-2.461428000">
        <ele>387.50</ele>
        <time>2012-11-10T13:02:05Z</time>
      </trkpt>
      <trkpt lat="42.469772900" lon="-2.461110200">
        <ele>387.10</ele>
        <time>2012-11-10T13:02:14Z</time>
      </trkpt>
      <trkpt lat="42.470045700" lon="-2.460888400">
        <ele>387.10</ele>
        <time>2012-11-10T13:02:19Z</time>
      </trkpt>
      <trkpt lat="42.470273800" lon="-2.460691200">
        <ele>387.50</ele>
        <time>2012-11-10T13:02:26Z</time>
      </trkpt>
      <trkpt lat="42.470336900" lon="-2.460636600">
        <ele>387.10</ele>
        <time>2012-11-10T13:02:28Z</time>
      </trkpt>
      <trkpt lat="42.470503400" lon="-2.460511200">
        <ele>386.60</ele>
        <time>2012-11-10T13:02:33Z</time>
      </trkpt>
      <trkpt lat="42.470657500" lon="-2.460391900">
        <ele>389.50</ele>
        <time>2012-11-10T13:02:40Z</time>
      </trkpt>
      <trkpt lat="42.470839600" lon="-2.460273400">
        <ele>392.80</ele>
        <time>2012-11-10T13:02:47Z</time>
      </trkpt>
      <trkpt lat="42.470959500" lon="-2.460320600">
        <ele>391.90</ele>
        <time>2012-11-10T13:02:50Z</time>
      </trkpt>
      <trkpt lat="42.471076600" lon="-2.460518200">
        <ele>390.40</ele>
        <time>2012-11-10T13:02:54Z</time>
      </trkpt>
      <trkpt lat="42.471155300" lon="-2.460681600">
        <ele>391.90</ele>
        <time>2012-11-10T13:02:57Z</time>
      </trkpt>
      <trkpt lat="42.471368700" lon="-2.461147900">
        <ele>395.70</ele>
        <time>2012-11-10T13:03:04Z</time>
      </trkpt>
      <trkpt lat="42.471523600" lon="-2.461537700">
        <ele>398.60</ele>
        <time>2012-11-10T13:03:09Z</time>
      </trkpt>
      <trkpt lat="42.471767300" lon="-2.461838400">
        <ele>395.70</ele>
        <time>2012-11-10T13:03:15Z</time>
      </trkpt>
      <trkpt lat="42.472044300" lon="-2.462237600">
        <ele>395.20</ele>
        <time>2012-11-10T13:03:22Z</time>
      </trkpt>
      <trkpt lat="42.472250900" lon="-2.462508100">
        <ele>392.80</ele>
        <time>2012-11-10T13:03:27Z</time>
      </trkpt>
      <trkpt lat="42.472487200" lon="-2.462595400">
        <ele>390.40</ele>
        <time>2012-11-10T13:03:32Z</time>
      </trkpt>
      <trkpt lat="42.472646600" lon="-2.462618500">
        <ele>389.00</ele>
        <time>2012-11-10T13:03:34Z</time>
      </trkpt>
      <trkpt lat="42.472699200" lon="-2.462670500">
        <ele>388.00</ele>
        <time>2012-11-10T13:03:36Z</time>
      </trkpt>
      <trkpt lat="42.473225800" lon="-2.463349800">
        <ele>378.90</ele>
        <time>2012-11-10T13:03:46Z</time>
      </trkpt>
      <trkpt lat="42.473394800" lon="-2.463560500">
        <ele>377.50</ele>
        <time>2012-11-10T13:03:48Z</time>
      </trkpt>
      <trkpt lat="42.473673000" lon="-2.463747500">
        <ele>376.00</ele>
        <time>2012-11-10T13:03:53Z</time>
      </trkpt>
      <trkpt lat="42.473817600" lon="-2.463666900">
        <ele>376.00</ele>
        <time>2012-11-10T13:03:55Z</time>
      </trkpt>
      <trkpt lat="42.474181900" lon="-2.463312000">
        <ele>375.50</ele>
        <time>2012-11-10T13:04:00Z</time>
      </trkpt>
      <trkpt lat="42.474438800" lon="-2.463002300">
        <ele>374.10</ele>
        <time>2012-11-10T13:04:05Z</time>
      </trkpt>
      <trkpt lat="42.474620500" lon="-2.462727000">
        <ele>374.10</ele>
        <time>2012-11-10T13:04:10Z</time>
      </trkpt>
      <trkpt lat="42.474660000" lon="-2.462684700">
        <ele>373.60</ele>
        <time>2012-11-10T13:04:10Z</time>
      </trkpt>
      <trkpt lat="42.474816700" lon="-2.462527200">
        <ele>373.60</ele>
        <time>2012-11-10T13:04:14Z</time>
      </trkpt>
      <trkpt lat="42.474835200" lon="-2.462515300">
        <ele>372.60</ele>
        <time>2012-11-10T13:04:19Z</time>
      </trkpt>
      <trkpt lat="42.474827600" lon="-2.462517500">
        <ele>372.60</ele>
        <time>2012-11-10T13:04:21Z</time>
      </trkpt>
    </trkseg>
  </trk>
</gpx>
